[[{"header":{"parameterUnit":"m.s-1","parameterCategory":1,"la1":30.6,"la2":29.2853,"lo1":-89.7004,"lo2":-87.6739,"dy":0.0162,"dx":0.0183,"nx":112,"ny":82,"refTime":"2023-07-17T00:00:00:Z","depth":0,"parameterNumber":2,"parameterNumberName":"U-component_of_WINDS"},"data":[0.0,0.0,0.0,0.0,0.0,0.0,0.0,0.0,0.0,0.0,0.0,0.0,0.0,0.0,0.0,0.0,0.0,0.0,0.0,0.0,0.0,0.0,0.0,0.0,0.0,0.0,0.0,0.0,0.0,0.0,0.0,0.0,0.0,0.0,0.0,0.0,0.0,0.0,0.0,0.0,0.0,0.0,0.0,0.0,0.0,0.0,0.0,0.0,0.0,0.0,0.0,0.0,0.0,0.0,0.0,0.0,0.0,0.0,0.0,0.0,0.0,0.0,0.0,0.0,0.0,0.0,0.0,0.0,0.0,0.0,0.0,0.0,0.0,0.0,0.0,0.0,0.0,0.0,0.0,0.0,0.0,0.0,0.0,0.0,0.0,0.0,0.0,0.0,0.0,0.0,-1.8654,-1.8451,-1.76,-1.672,-1.5933,-1.5083,-1.4193,-1.3292,0.0,0.0,0.0,0.0,0.0,0.0,0.0,0.0,0.0,0.0,0.0,0.0,0.0,0.0,0.0,0.0,0.0,0.0,0.0,0.0,0.0,0.0,0.0,0.0,0.0,0.0,0.0,0.0,0.0,0.0,0.0,0.0,0.0,0.0,0.0,0.0,0.0,0.0,0.0,0.0,0.0,0.0,0.0,0.0,0.0,0.0,0.0,0.0,0.0,0.0,0.0,0.0,0.0,0.0,0.0,0.0,0.0,0.0,0.0,0.0,0.0,0.0,0.0,0.0,0.0,0.0,0.0,0.0,0.0,0.0,0.0,0.0,0.0,0.0,0.0,0.0,0.0,0.0,0.0,0.0,0.0,0.0,0.0,0.0,0.0,0.0,0.0,0.0,0.0,0.0,0.0,0.0,0.0,0.0,0.0,0.0,0.0,0.0,0.0,0.0,0.0,0.0,0.0,0.0,-1.747,-1.7212,-1.6368,-1.5723,-1.5352,-1.4472,-1.3765,-1.3391,0.0,0.0,0.0,0.0,0.0,0.0,0.0,0.0,0.0,0.0,0.0,0.0,0.0,0.0,0.0,0.0,0.0,0.0,0.0,0.0,0.0,0.0,0.0,0.0,0.0,0.0,0.0,0.0,0.0,0.0,0.0,0.0,0.0,0.0,0.0,0.0,0.0,0.0,0.0,0.0,0.0,0.0,0.0,0.0,0.0,0.0,0.0,0.0,0.0,0.0,0.0,0.0,0.0,0.0,0.0,0.0,0.0,0.0,0.0,0.0,0.0,0.0,0.0,0.0,0.0,0.0,0.0,0.0,0.0,0.0,0.0,0.0,0.0,0.0,0.0,0.0,0.0,0.0,0.0,0.0,0.0,0.0,0.0,0.0,0.0,0.0,0.0,0.0,0.0,0.0,0.0,0.0,0.0,0.0,0.0,0.0,0.0,0.0,0.0,0.0,0.0,0.0,0.0,-1.7416,-1.7166,-1.6996,-1.6154,-1.5521,-1.5285,-1.4373,-1.3741,-1.3459,-1.3185,0.0,0.0,0.0,0.0,0.0,0.0,0.0,0.0,0.0,0.0,0.0,0.0,0.0,0.0,0.0,0.0,0.0,0.0,0.0,0.0,0.0,0.0,0.0,0.0,0.0,0.0,0.0,0.0,0.0,0.0,0.0,0.0,0.0,0.0,0.0,0.0,0.0,0.0,0.0,0.0,0.0,0.0,0.0,0.0,0.0,0.0,0.0,0.0,0.0,0.0,0.0,0.0,0.0,0.0,0.0,0.0,0.0,0.0,0.0,0.0,0.0,0.0,0.0,0.0,0.0,0.0,0.0,0.0,0.0,0.0,0.0,0.0,0.0,0.0,0.0,0.0,0.0,0.0,0.0,0.0,0.0,0.0,0.0,0.0,0.0,0.0,0.0,0.0,0.0,0.0,0.0,0.0,0.0,0.0,0.0,0.0,0.0,0.0,0.0,0.0,0.0,0.0,-1.701,-1.675,-1.6618,-1.5891,-1.5333,-1.5119,-1.4379,-1.3828,-1.3594,-1.3335,0.0,0.0,0.0,0.0,0.0,0.0,0.0,0.0,0.0,0.0,0.0,0.0,0.0,0.0,0.0,0.0,0.0,0.0,0.0,0.0,0.0,0.0,0.0,0.0,0.0,0.0,0.0,0.0,0.0,0.0,0.0,0.0,0.0,0.0,0.0,0.0,0.0,0.0,0.0,0.0,0.0,0.0,0.0,0.0,0.0,0.0,0.0,0.0,0.0,0.0,0.0,0.0,0.0,0.0,0.0,0.0,0.0,0.0,0.0,0.0,0.0,0.0,0.0,0.0,0.0,0.0,0.0,0.0,0.0,0.0,0.0,0.0,0.0,0.0,0.0,0.0,0.0,0.0,0.0,0.0,0.0,0.0,0.0,0.0,0.0,0.0,0.0,0.0,0.0,0.0,0.0,0.0,0.0,0.0,0.0,0.0,0.0,0.0,0.0,0.0,0.0,0.0,-1.5846,-1.5639,-1.5443,-1.5156,-1.485,-1.457,-1.4208,-1.3947,-1.3788,-1.3404,0.0,0.0,0.0,0.0,0.0,0.0,0.0,0.0,0.0,0.0,0.0,0.0,0.0,0.0,0.0,0.0,0.0,0.0,0.0,0.0,0.0,0.0,0.0,0.0,0.0,0.0,0.0,0.0,0.0,0.0,0.0,0.0,0.0,0.0,0.0,0.0,0.0,0.0,0.0,0.0,0.0,0.0,0.0,0.0,0.0,0.0,0.0,0.0,0.0,0.0,0.0,0.0,0.0,0.0,0.0,0.0,0.0,0.0,0.0,0.0,0.0,0.0,0.0,0.0,0.0,0.0,0.0,0.0,0.0,0.0,0.0,0.0,0.0,0.0,0.0,0.0,0.0,0.0,0.0,0.0,0.0,0.0,0.0,0.0,0.0,0.0,0.0,0.0,0.0,0.0,0.0,0.0,0.0,0.0,0.0,0.0,0.0,0.0,0.0,0.0,0.0,0.0,-1.5856,-1.561,-1.5374,-1.5118,-1.4904,-1.4686,-1.4369,-1.4157,-1.4072,0.0,0.0,0.0,0.0,0.0,0.0,0.0,0.0,0.0,0.0,0.0,0.0,0.0,0.0,0.0,0.0,0.0,0.0,0.0,0.0,0.0,0.0,0.0,0.0,0.0,0.0,0.0,0.0,0.0,0.0,0.0,0.0,0.0,0.0,0.0,0.0,0.0,0.0,0.0,0.0,0.0,0.0,0.0,0.0,0.0,0.0,0.0,0.0,0.0,0.0,0.0,0.0,0.0,0.0,0.0,0.0,0.0,0.0,0.0,0.0,0.0,0.0,0.0,0.0,0.0,0.0,0.0,0.0,0.0,0.0,0.0,0.0,0.0,0.0,0.0,0.0,0.0,0.0,0.0,0.0,0.0,0.0,0.0,0.0,0.0,0.0,0.0,0.0,0.0,0.0,0.0,0.0,0.0,0.0,0.0,0.0,0.0,0.0,0.0,0.0,0.0,0.0,-1.6151,-1.597,-1.5741,-1.5448,-1.5239,-1.5027,-1.4839,-1.4394,-1.4065,-1.3952,0.0,0.0,0.0,0.0,0.0,0.0,0.0,0.0,0.0,0.0,0.0,0.0,0.0,0.0,0.0,0.0,0.0,0.0,0.0,0.0,0.0,0.0,0.0,0.0,0.0,0.0,0.0,0.0,0.0,0.0,0.0,0.0,0.0,0.0,0.0,0.0,0.0,0.0,0.0,0.0,0.0,0.0,0.0,0.0,0.0,0.0,0.0,0.0,0.0,0.0,0.0,0.0,0.0,0.0,0.0,0.0,0.0,0.0,0.0,0.0,0.0,0.0,0.0,0.0,0.0,0.0,0.0,0.0,0.0,0.0,0.0,0.0,0.0,0.0,0.0,0.0,0.0,0.0,0.0,0.0,0.0,0.0,0.0,0.0,0.0,0.0,0.0,0.0,0.0,0.0,0.0,0.0,0.0,0.0,0.0,0.0,0.0,0.0,0.0,0.0,0.0,0.0,-1.6237,-1.6042,-1.5799,-1.5551,-1.5388,-1.5192,-1.4932,-1.4188,-1.3617,0.0,0.0,0.0,0.0,0.0,0.0,0.0,0.0,0.0,0.0,0.0,0.0,0.0,0.0,0.0,0.0,0.0,0.0,0.0,0.0,0.0,0.0,0.0,0.0,0.0,0.0,0.0,0.0,0.0,0.0,0.0,0.0,0.0,0.0,0.0,0.0,0.0,0.0,0.0,0.0,0.0,0.0,0.0,0.0,0.0,0.0,0.0,0.0,0.0,0.0,0.0,0.0,0.0,0.0,0.0,0.0,0.0,0.0,0.0,0.0,0.0,0.0,0.0,0.0,0.0,0.0,0.0,0.0,0.0,0.0,0.0,0.0,0.0,0.0,0.0,0.0,0.0,0.0,0.0,0.0,0.0,0.0,0.0,0.0,0.0,0.0,0.0,0.0,0.0,0.0,0.0,0.0,0.0,0.0,0.0,0.0,0.0,0.0,0.0,0.0,0.0,0.0,0.0,-1.6872,-1.6287,-1.5799,-1.5551,-1.5433,-1.5284,-1.5117,-1.4322,-1.3822,-1.3763,0.0,0.0,0.0,0.0,0.0,0.0,0.0,0.0,0.0,0.0,0.0,0.0,0.0,0.0,0.0,0.0,0.0,0.0,0.0,0.0,0.0,0.0,0.0,0.0,0.0,0.0,0.0,0.0,0.0,0.0,0.0,0.0,0.0,0.0,0.0,0.0,0.0,0.0,0.0,0.0,0.0,0.0,0.0,0.0,0.0,0.0,0.0,0.0,0.0,0.0,0.0,0.0,0.0,0.0,0.0,0.0,0.0,0.0,0.0,0.0,0.0,0.0,0.0,0.0,0.0,0.0,0.0,0.0,0.0,0.0,0.0,0.0,0.0,0.0,0.0,0.0,0.0,0.0,0.0,0.0,0.0,0.0,0.0,0.0,0.0,0.0,0.0,0.0,0.0,0.0,0.0,0.0,0.0,0.0,0.0,0.0,0.0,0.0,0.0,0.0,0.0,0.0,-1.7164,-1.6562,-1.6039,-1.5536,-1.5448,-1.5227,-1.4847,-1.4099,-1.3516,-1.3206,0.0,0.0,0.0,0.0,0.0,0.0,0.0,0.0,0.0,0.0,0.0,0.0,0.0,0.0,0.0,0.0,0.0,0.0,0.0,0.0,0.0,0.0,0.0,0.0,0.0,0.0,0.0,0.0,0.0,0.0,0.0,0.0,0.0,0.0,0.0,0.0,0.0,0.0,0.0,0.0,0.0,0.0,0.0,0.0,0.0,0.0,0.0,0.0,0.0,0.0,0.0,0.0,0.0,0.0,0.0,0.0,0.0,0.0,0.0,0.0,0.0,0.0,0.0,0.0,0.0,0.0,0.0,0.0,0.0,0.0,0.0,0.0,0.0,0.0,0.0,0.0,0.0,0.0,0.0,0.0,0.0,0.0,0.0,0.0,0.0,0.0,0.0,0.0,0.0,0.0,0.0,0.0,0.0,0.0,0.0,0.0,0.0,0.0,0.0,0.0,0.0,0.0,-1.7364,-1.6909,-1.6412,-1.5669,-1.5462,-1.5067,-1.4284,-1.365,-1.2963,-1.2181,0.0,0.0,0.0,0.0,0.0,0.0,0.0,0.0,0.0,0.0,0.0,0.0,0.0,0.0,0.0,0.0,0.0,0.0,0.0,0.0,0.0,0.0,0.0,0.0,0.0,0.0,0.0,0.0,0.0,0.0,0.0,0.0,0.0,0.0,0.0,0.0,0.0,0.0,0.0,0.0,0.0,0.0,0.0,0.0,0.0,0.0,0.0,0.0,0.0,0.0,0.0,0.0,0.0,0.0,0.0,0.0,0.0,0.0,0.0,0.0,-1.7825,-1.7182,0.0,0.0,0.0,0.0,0.0,0.0,0.0,0.0,0.0,0.0,0.0,0.0,0.0,0.0,0.0,0.0,0.0,0.0,0.0,0.0,0.0,0.0,0.0,0.0,0.0,0.0,0.0,0.0,0.0,0.0,0.0,0.0,0.0,0.0,0.0,0.0,0.0,0.0,0.0,0.0,-1.8398,-1.7339,-1.6529,-1.6224,-1.5726,-1.5096,-1.4341,-1.3677,-1.3015,-1.2306,-1.1627,0.0,0.0,0.0,0.0,0.0,0.0,0.0,0.0,0.0,0.0,0.0,0.0,0.0,0.0,0.0,0.0,0.0,0.0,0.0,0.0,0.0,0.0,0.0,0.0,0.0,0.0,0.0,0.0,0.0,0.0,0.0,0.0,0.0,0.0,0.0,0.0,0.0,0.0,0.0,0.0,0.0,0.0,0.0,0.0,0.0,0.0,0.0,0.0,0.0,0.0,0.0,0.0,0.0,0.0,0.0,0.0,0.0,0.0,0.0,-1.8981,-1.854,0.0,0.0,0.0,0.0,0.0,0.0,0.0,0.0,0.0,0.0,0.0,0.0,0.0,0.0,0.0,0.0,0.0,0.0,0.0,0.0,0.0,0.0,0.0,0.0,0.0,0.0,0.0,0.0,0.0,0.0,0.0,0.0,0.0,0.0,0.0,0.0,0.0,0.0,0.0,0.0,-1.8781,-1.7703,-1.6816,-1.6427,-1.5768,-1.5081,-1.4369,-1.3704,-1.3066,-1.238,-1.1722,0.0,0.0,0.0,0.0,0.0,0.0,0.0,0.0,0.0,0.0,0.0,0.0,0.0,0.0,0.0,0.0,0.0,0.0,0.0,0.0,0.0,0.0,0.0,0.0,0.0,0.0,0.0,0.0,0.0,0.0,0.0,0.0,0.0,0.0,0.0,0.0,0.0,0.0,0.0,0.0,0.0,0.0,0.0,0.0,0.0,0.0,0.0,0.0,0.0,0.0,0.0,0.0,0.0,-2.1097,-2.1012,-2.0969,-2.0754,-2.0653,-2.0609,-2.0346,-2.0059,-1.9738,-1.9289,0.0,0.0,0.0,0.0,0.0,0.0,0.0,0.0,0.0,0.0,0.0,0.0,0.0,0.0,0.0,0.0,0.0,0.0,0.0,0.0,0.0,0.0,-2.2551,-2.3317,-2.3634,-2.3424,-2.2243,0.0,0.0,0.0,0.0,0.0,0.0,0.0,0.0,0.0,0.0,0.0,-1.8922,-1.8076,-1.7276,-1.6553,-1.5864,-1.5138,-1.4356,-1.3832,-1.3292,-1.2628,-1.1942,-1.1557,0.0,0.0,0.0,0.0,0.0,0.0,0.0,0.0,0.0,0.0,0.0,0.0,0.0,0.0,0.0,0.0,0.0,0.0,0.0,0.0,0.0,0.0,0.0,0.0,0.0,0.0,0.0,0.0,0.0,0.0,0.0,0.0,-2.1772,-2.2587,0.0,0.0,0.0,0.0,0.0,0.0,0.0,0.0,0.0,0.0,0.0,0.0,0.0,-2.3583,-2.3441,-2.314,-2.2966,-2.2981,-2.2746,-2.2598,-2.2598,-2.2464,-2.2359,-2.2359,-2.2314,0.0,-2.0128,-2.0174,0.0,0.0,0.0,0.0,0.0,0.0,0.0,0.0,0.0,0.0,0.0,0.0,0.0,0.0,0.0,0.0,0.0,0.0,0.0,0.0,0.0,0.0,-2.3435,-2.3567,-2.3735,-2.3819,-2.3638,-2.3654,-2.3702,-2.3572,-2.3473,-2.3341,0.0,0.0,0.0,0.0,0.0,0.0,-1.9369,-1.8563,-1.778,-1.6938,-1.634,-1.5509,-1.4328,-1.4196,-1.3919,-1.3307,-1.2642,-1.227,-1.227,-1.1687,0.0,0.0,0.0,0.0,0.0,0.0,0.0,0.0,0.0,0.0,0.0,0.0,0.0,0.0,0.0,0.0,0.0,0.0,0.0,0.0,0.0,0.0,0.0,0.0,0.0,0.0,0.0,0.0,0.0,-2.1915,-2.2783,-2.3138,-2.4184,-2.4986,0.0,0.0,0.0,0.0,0.0,0.0,0.0,0.0,0.0,-2.432,-2.4418,-2.4385,-2.4261,-2.3994,-2.3797,-2.3668,-2.348,-2.3392,-2.329,-2.3143,-2.3098,-2.3098,-2.3098,-2.2688,-2.1975,-2.1513,-2.1284,-2.1327,0.0,0.0,0.0,0.0,-2.2206,-2.2378,-2.2405,-2.2322,-2.2188,-2.2415,0.0,0.0,0.0,0.0,0.0,0.0,0.0,-2.2989,-2.3462,-2.4011,-2.4526,-2.4954,-2.5157,-2.526,-2.526,-2.5226,-2.4943,-2.3984,-2.3702,-2.3549,-2.3221,-2.2916,0.0,0.0,0.0,-2.0398,-1.9812,-1.8759,-1.7892,-1.7498,-1.6618,-1.5834,-1.5291,-1.4645,-1.4139,-1.3919,-1.331,-1.2947,-1.2947,-1.2686,-1.2671,0.0,0.0,0.0,0.0,0.0,0.0,0.0,0.0,0.0,0.0,0.0,0.0,0.0,0.0,0.0,0.0,0.0,0.0,0.0,0.0,0.0,0.0,0.0,0.0,0.0,0.0,0.0,0.0,-2.2622,-2.3551,-2.3551,-2.4873,-2.5754,0.0,0.0,0.0,0.0,0.0,0.0,-2.5605,-2.5508,-2.5432,-2.5301,-2.5091,-2.4934,-2.4791,-2.4549,-2.4343,-2.4151,-2.4009,-2.3925,-2.3767,-2.3638,-2.358,-2.358,-2.358,-2.358,-2.3507,-2.2715,-2.2452,-2.2495,-2.2581,-2.2623,-2.2768,-2.3301,-2.3653,-2.3824,-2.3852,-2.3686,-2.3517,-2.3716,-2.3405,-2.2944,-2.3076,0.0,0.0,0.0,0.0,-2.4146,-2.4704,-2.5141,-2.5611,-2.6142,-2.6293,-2.6295,-2.6295,-2.6258,-2.5837,-2.4576,-2.4225,-2.4032,-2.3658,-2.3343,0.0,-2.2276,-2.1446,-2.0676,-2.0132,-1.9032,-1.8218,-1.7868,-1.6864,-1.617,-1.6045,-1.5061,-1.4486,-1.4544,-1.3963,-1.3641,-1.3641,-1.3508,-1.3534,-1.3762,0.0,0.0,0.0,0.0,0.0,0.0,0.0,0.0,0.0,0.0,0.0,0.0,0.0,0.0,0.0,0.0,0.0,0.0,0.0,0.0,0.0,0.0,0.0,0.0,0.0,0.0,0.0,0.0,0.0,-2.3968,-2.5276,0.0,0.0,0.0,0.0,-2.617,-2.617,-2.617,-2.617,-2.6026,-2.5917,-2.5844,-2.5642,-2.5454,-2.5256,-2.5013,-2.4759,-2.4589,-2.4498,-2.44,-2.4261,-2.412,-2.4063,-2.4063,-2.4063,-2.4063,-2.4021,-2.3694,-2.3593,-2.3694,-2.3694,-2.3822,-2.4032,-2.4063,-2.4219,-2.4441,-2.4508,-2.4639,-2.4768,-2.5114,-2.4959,-2.4568,-2.3932,-2.3852,0.0,0.0,-2.4514,-2.5146,-2.5179,-2.5798,-2.6435,-2.6485,-2.6382,-2.6295,-2.6295,-2.6258,-2.6115,-2.5835,-2.5677,-2.5475,-2.5073,0.0,-2.4157,-2.3107,-2.2521,-2.1633,-2.0125,-1.9698,-1.9016,-1.7768,-1.7107,-1.6539,-1.5953,-1.5444,-1.5165,-1.5165,-1.4602,-1.4253,-1.4253,-1.3768,-1.3806,-1.4451,-1.4644,0.0,0.0,0.0,0.0,0.0,0.0,0.0,0.0,0.0,0.0,0.0,0.0,0.0,0.0,0.0,0.0,0.0,0.0,0.0,0.0,0.0,0.0,0.0,0.0,0.0,0.0,0.0,0.0,-2.4242,-2.5096,0.0,-2.6418,-2.5982,-2.5899,-2.6435,-2.6468,-2.6468,-2.6468,-2.633,-2.6225,-2.6154,-2.6063,-2.5881,-2.5712,-2.5605,-2.5378,-2.5045,-2.5021,-2.4926,-2.4766,-2.471,-2.467,-2.467,-2.467,-2.467,-2.467,-2.4549,-2.4385,-2.4234,-2.4302,-2.441,-2.4574,-2.467,-2.4831,-2.5021,-2.5045,-2.5162,-2.5355,-2.56,-2.5737,-2.5723,-2.5493,-2.5495,-2.5614,-2.5614,-2.5798,-2.6032,-2.6032,-2.6319,-2.6554,-2.6554,-2.6503,-2.6434,-2.6434,-2.6258,-2.6043,-2.5917,-2.577,-2.553,-2.5107,-2.467,-2.4168,-2.3507,-2.2653,-2.1684,-2.0538,-1.9875,-1.9148,-1.8278,-1.7669,-1.7241,-1.7086,-1.6222,-1.5719,-1.5797,-1.5253,-1.495,-1.495,-1.4804,-1.4847,-1.5125,-1.5341,-1.5615,0.0,0.0,0.0,0.0,0.0,0.0,0.0,0.0,0.0,0.0,0.0,0.0,0.0,0.0,0.0,0.0,0.0,0.0,0.0,0.0,0.0,0.0,0.0,0.0,0.0,-2.3147,-2.395,-2.4059,-2.4669,-2.5326,-2.5881,-2.5696,-2.5796,-2.6303,-2.6607,-2.6742,-2.6742,-2.6657,-2.6538,-2.6435,-2.64,-2.626,-2.6026,-2.6026,-2.5844,-2.5524,-2.5524,-2.5394,-2.5201,-2.5162,-2.5123,-2.5123,-2.5123,-2.51,-2.5084,-2.5123,-2.5045,-2.4862,-2.4846,-2.491,-2.5013,-2.5162,-2.5317,-2.5416,-2.5508,-2.5637,-2.584,-2.599,-2.6206,-2.6417,-2.6417,-2.6486,-2.6572,-2.6572,-2.6572,-2.6572,-2.6572,-2.6606,-2.664,-2.6606,-2.6554,-2.6485,-2.6434,-2.6206,-2.599,-2.5917,-2.5696,-2.5416,-2.5045,-2.4589,-2.4135,-2.3681,-2.2834,-2.1917,-2.084,-2.0133,-1.9445,-1.8616,-1.7969,-1.7627,-1.765,-1.6829,-1.6246,-1.6078,-1.5787,-1.5516,-1.5327,-1.5374,-1.5448,-1.5507,-1.5979,-1.6467,-1.6926,0.0,0.0,0.0,0.0,0.0,0.0,0.0,0.0,0.0,0.0,0.0,0.0,0.0,0.0,0.0,0.0,0.0,0.0,0.0,0.0,0.0,0.0,0.0,-2.2214,-2.2878,-2.3393,-2.3393,-2.4096,-2.4567,-2.4601,-2.5374,-2.5866,-2.5883,-2.6565,-2.7007,-2.7007,-2.7007,-2.6892,-2.6742,-2.6691,-2.659,-2.633,-2.633,-2.6189,-2.5917,-2.5917,-2.5807,-2.5605,-2.5492,-2.5416,-2.5416,-2.5371,-2.5333,-2.5333,-2.5394,-2.547,-2.5578,-2.5371,-2.5355,-2.5416,-2.5562,-2.5659,-2.5738,-2.5937,-2.6115,-2.6203,-2.6277,-2.6452,-2.6606,-2.6606,-2.6657,-2.6691,-2.6691,-2.6691,-2.6691,-2.6691,-2.6691,-2.6674,-2.6606,-2.6554,-2.645,-2.6347,-2.6154,-2.599,-2.5881,-2.5621,-2.5301,-2.5045,-2.4589,-2.4135,-2.3681,-2.3201,0.0,-2.0897,-2.0514,-1.9908,-1.8658,-1.7983,-1.7632,-1.7632,-1.7185,-1.6698,-1.6084,-1.6175,-1.598,-1.54,-1.5492,-1.5581,-1.5581,-1.6622,-1.7621,-1.8603,0.0,0.0,0.0,0.0,0.0,0.0,0.0,0.0,0.0,0.0,0.0,0.0,0.0,0.0,0.0,0.0,0.0,0.0,0.0,0.0,0.0,-2.2721,-2.289,-2.2367,-2.2907,-2.3422,-2.3481,-2.3667,-2.402,-2.4547,-2.4819,-2.5176,-2.5703,-2.6516,-2.7007,-2.7007,-2.7055,-2.7006,-2.6925,-2.6942,-2.6825,-2.659,-2.659,-2.6469,-2.6189,-2.6189,-2.6082,-2.5901,-2.5864,-2.5807,-2.577,-2.5733,-2.5749,-2.5749,-2.5733,-2.577,-2.5824,-2.5642,-2.5642,-2.577,-2.5824,-2.5934,-2.6079,-2.6293,-2.6399,-2.6468,-2.6503,-2.664,-2.6826,-2.6826,-2.6876,-2.6909,-2.6876,-2.6842,-2.6825,-2.6742,-2.664,-2.664,-2.6606,-2.6452,-2.6312,-2.6258,-2.6079,-2.5897,-2.5712,-2.5486,-2.524,-2.5045,-2.4589,-2.4135,-2.3681,-2.329,-2.2498,-2.0897,-2.0571,-1.9978,-1.8644,-1.8363,-1.8303,-1.8379,-1.7925,-1.7591,-1.7461,-1.7118,-1.6884,-1.6837,-1.6887,-1.7079,-1.7331,-1.7792,-1.8236,0.0,0.0,0.0,0.0,0.0,0.0,0.0,0.0,0.0,0.0,0.0,0.0,0.0,0.0,0.0,0.0,0.0,0.0,0.0,0.0,0.0,0.0,-2.3697,-2.3757,-2.3333,-2.3338,-2.3422,-2.3451,-2.3209,-2.3221,-2.3646,-2.4271,-2.4815,-2.5241,-2.636,-2.7007,-2.7007,-2.7038,-2.707,-2.7007,-2.704,-2.6957,-2.6825,-2.6825,-2.6708,-2.6469,-2.6469,-2.6365,-2.6222,-2.6154,-2.6082,-2.6063,-2.6026,-2.6026,-2.6026,-2.6063,-2.6063,-2.6063,0.0,0.0,0.0,0.0,-2.6239,-2.6345,-2.6485,-2.6554,-2.6606,-2.6623,-2.6775,-2.6893,-2.6893,-2.6926,-2.6959,-2.6926,-2.6842,-2.6792,-2.6691,-2.6623,-2.6572,-2.6486,-2.6347,-2.6241,-2.6151,-2.5954,-2.577,-2.5616,-2.5464,0.0,-2.4966,-2.4564,-2.4177,-2.3739,-2.3348,-2.2586,-2.108,-2.0656,-2.0005,-1.8736,-1.8595,-1.8634,-1.8673,-1.8498,0.0,0.0,0.0,-1.7627,-1.7548,-1.7614,0.0,0.0,0.0,-1.9077,-1.9562,-2.0208,0.0,0.0,-2.0831,-2.1327,0.0,0.0,0.0,0.0,0.0,0.0,0.0,0.0,0.0,0.0,0.0,0.0,0.0,0.0,0.0,0.0,-2.4816,-2.4747,-2.4717,-2.4113,-2.3579,-2.341,-2.2779,-2.2349,-2.2349,-2.3743,-2.4641,-2.4641,-2.6073,-2.6942,-2.6975,-2.7055,0.0,0.0,0.0,-2.7208,-2.7144,-2.7212,-2.7129,-2.686,-2.686,-2.6725,-2.652,-2.6382,-2.633,-2.633,-2.6277,-2.6241,-2.6241,-2.6312,-2.633,-2.633,-2.6274,-2.6239,-2.6256,-2.645,-2.652,-2.652,-2.6589,0.0,0.0,-2.6674,-2.6792,-2.6926,-2.6926,-2.6926,-2.6926,-2.6926,-2.6825,-2.6708,-2.664,-2.6572,-2.6537,-2.6347,-2.6222,-2.6132,-2.599,-2.5828,-2.568,-2.5562,-2.541,-2.5162,-2.4822,-2.4523,-2.4177,-2.3839,-2.3392,-2.263,-2.1247,-2.0782,-2.0088,-1.8839,-1.8711,0.0,-1.875,-1.8903,-1.8823,-1.8375,-1.8402,-1.8327,-1.8017,-1.8052,-1.8488,-1.9395,-1.9525,-2.0001,-2.0893,-2.1087,-2.139,-2.1704,-2.1735,-2.2155,0.0,0.0,0.0,0.0,0.0,0.0,0.0,0.0,0.0,0.0,0.0,0.0,0.0,0.0,0.0,-2.5068,-2.5459,-2.5672,-2.5516,-2.527,-2.4652,-2.3456,-2.2601,-2.2084,-2.2084,-2.3415,-2.4288,-2.4288,-2.5781,-2.6691,-2.6775,-2.6859,-2.6942,-2.7007,-2.7688,-2.8013,-2.7896,-2.8562,-2.8562,-2.7811,-2.7794,0.0,-2.6674,-2.6589,-2.6503,-2.645,-2.645,-2.645,-2.645,-2.645,-2.6503,-2.6537,-2.6485,-2.645,-2.645,-2.6554,-2.6589,-2.6572,-2.664,-2.6674,-2.6674,-2.6691,-2.6825,-2.6992,-2.6992,-2.704,0.0,-2.7007,-2.6909,-2.6809,-2.6657,-2.6554,-2.6485,-2.6274,-2.6115,-2.599,-2.5811,-2.568,-2.5562,-2.541,-2.524,-2.5029,-2.471,-2.4426,-2.4177,-2.3839,-2.348,-2.2717,-2.1303,-2.0963,-2.0294,-1.8927,-1.8798,-1.8836,-1.8988,-1.9078,-1.9095,-1.9163,-1.933,-1.94,-1.9351,-1.963,-1.9912,-2.0104,-2.0391,-2.0652,-2.0893,-2.1151,-2.1696,-2.2505,-2.2599,-2.2758,0.0,0.0,0.0,0.0,0.0,0.0,0.0,0.0,0.0,0.0,0.0,-2.679,-2.679,0.0,-2.6486,-2.64,-2.6493,-2.6536,-2.6409,-2.5878,-2.5226,-2.4486,-2.362,-2.3059,-2.3059,-2.3997,-2.4597,-2.4597,-2.5747,-2.6435,-2.6504,-2.6657,-2.6775,-2.6859,-2.7333,-2.7742,-2.8118,-2.8596,-2.8596,-2.8118,-2.8084,-2.7624,-2.6792,-2.6691,-2.6623,-2.6589,-2.6674,-2.6691,-2.6691,-2.6725,-2.6775,-2.6792,-2.6742,-2.6674,-2.6589,-2.6657,-2.6657,-2.6657,-2.6691,-2.6691,-2.6691,-2.6792,-2.6892,-2.7007,-2.7023,-2.7055,-2.7055,-2.7007,-2.6892,-2.6759,-2.6572,-2.652,-2.6415,-2.6151,-2.6026,-2.5917,-2.5738,-2.5605,-2.5448,-2.5333,-2.5201,-2.4974,-2.467,-2.4482,-2.4276,-2.3925,-2.3668,-2.2933,-2.1439,-2.1087,-2.0472,-1.907,-1.8912,-1.8988,-1.9101,-1.9273,-1.9435,-1.9545,-1.9741,-1.9919,-1.9975,-2.0185,-2.0373,-2.0561,-2.0695,-2.0893,-2.1103,-2.1633,-2.2198,-2.283,-2.3717,-2.4163,0.0,0.0,0.0,0.0,0.0,0.0,0.0,-2.7853,-2.8071,-2.8126,-2.8154,-2.8154,-2.8154,-2.795,-2.7789,-2.773,-2.7461,-2.7213,-2.7117,-2.6299,-2.5714,-2.5664,-2.4712,-2.4049,-2.4049,-2.4596,-2.4975,-2.4975,-2.5723,-2.6225,-2.6225,-2.6382,-2.6521,-2.6624,-2.6911,-2.7352,-2.8032,-2.8339,-2.8339,-2.8118,-2.8084,-2.7657,-2.6893,-2.6742,-2.6691,-2.6742,-2.6876,-2.6926,-2.6926,-2.6992,-2.7007,-2.7007,-2.7007,-2.6892,-2.6742,-2.6742,-2.6742,-2.6691,-2.6691,-2.6691,-2.6742,-2.6842,-2.6959,-2.7007,-2.707,-2.7055,-2.7007,-2.7007,-2.6859,-2.6674,-2.6537,-2.6485,-2.6415,-2.6063,-2.5954,-2.5844,-2.5717,-2.553,-2.5355,-2.5333,-2.5201,-2.4989,-2.467,-2.4564,-2.4416,-2.4067,-2.3782,-2.3133,-2.1765,-2.1366,-2.0651,-1.9411,-1.9188,-1.9176,-1.9213,-1.9545,-1.9726,-1.9762,-1.9955,-2.0146,-2.0304,-2.0339,-2.0509,-2.0794,-2.086,-2.1023,-2.1309,-2.215,-2.2767,-2.3139,-2.4711,-2.543,-2.2777,-2.4519,-2.62,-2.6706,-2.7095,-2.7404,0.0,-2.7996,-2.8209,-2.8246,-2.8327,-2.8353,-2.83,-2.8191,-2.8053,-2.7818,-2.76,-2.7386,-2.7117,-2.6757,-2.6403,-2.6248,-2.4795,-2.3819,-2.3819,-2.4426,-2.4835,-2.4835,-2.5507,-2.5954,-2.601,-2.6046,-2.6154,-2.633,-2.7123,-2.7668,-2.7928,-2.8626,-2.8697,-2.8118,-2.8049,-2.7624,-2.6893,-2.6742,-2.6742,-2.6876,-2.6959,-2.6975,-2.6975,-2.6992,-2.7007,-2.7007,-2.7007,-2.6942,-2.6893,-2.6893,-2.6792,-2.6691,-2.6691,-2.6691,-2.6742,-2.6842,-2.6959,-2.7007,-2.707,-2.7055,-2.7007,-2.7007,-2.6859,-2.6674,-2.6537,-2.6485,-2.6415,-2.6007,-2.5897,-2.586,-2.5637,-2.5448,-2.5333,-2.5294,-2.5123,-2.4926,-2.463,-2.4589,-2.4467,-2.4067,-2.3782,-2.3298,-2.2471,-2.1783,-2.1068,-2.0318,-1.9729,-1.945,-1.9617,-1.9726,-1.9848,-1.9955,-2.0166,-2.027,-2.0304,-2.0509,-2.0711,-2.0794,-2.1038,-2.1199,-2.1309,-2.2356,-2.3207,-2.3901,-2.4978,-2.5495,-2.4585,-2.5881,-2.6825,-2.7152,-2.7465,-2.7824,-2.8429,-2.8795,-2.9151,-2.9645,-2.9431,-2.9161,-2.9116,-2.8622,-2.8154,-2.7996,-2.7736,-2.7448,-2.7198,-2.6875,-2.6572,-2.633,-2.545,-2.4876,-2.4837,-2.5025,-2.513,-2.5109,-2.5405,-2.5605,-2.5642,-2.5733,-2.5844,-2.6063,-2.6432,-2.6942,-2.7593,-2.8039,-2.8146,-2.7929,-2.7946,-2.7572,-2.6893,-2.6742,-2.6775,-2.6942,-2.7023,-2.7087,-2.7186,-2.7186,-2.7186,-2.7186,-2.7186,-2.7105,-2.7023,-2.6926,-2.6825,-2.6691,-2.6691,-2.6742,-2.6825,-2.6926,-2.7007,-2.7087,-2.7184,-2.712,-2.7055,-2.7007,-2.6909,-2.6775,-2.6554,-2.6485,-2.6415,-2.6007,-2.5897,-2.586,-2.5654,-2.5486,-2.5355,-2.5333,-2.5162,-2.495,-2.467,-2.4589,-2.4467,-2.4166,-2.394,-2.3513,-2.2617,-2.1895,-2.1094,-2.0102,-1.9745,-1.9654,-1.9848,-1.994,-2.0045,-2.0181,-2.0285,-2.0407,-2.0525,-2.0677,-2.081,-2.0957,-2.1167,-2.1325,-2.1497,-2.2847,-2.3767,-2.4228,-2.558,-2.6218,-2.5544,-2.6556,-2.7072,-2.7341,-2.763,-2.8041,-2.8953,-2.9408,-2.9836,-3.0664,-3.0233,-2.971,-2.9701,-2.8892,-2.8209,-2.8126,-2.7824,-2.7539,-2.7244,-2.6891,-2.6556,-2.626,-2.5901,-2.5621,-2.5448,-2.5355,-2.5301,-2.524,-2.5278,-2.5278,-2.5278,-2.5355,-2.5524,-2.5749,-2.5733,-2.6143,-2.6985,-2.7111,-2.7238,-2.738,-2.7502,-2.73,-2.6826,-2.6792,-2.6859,-2.7024,-2.712,-2.7233,-2.733,-2.733,-2.733,-2.733,-2.733,-2.7233,-2.7103,-2.699,-2.6859,-2.6742,-2.6742,-2.6825,-2.6926,-2.7007,-2.7055,-2.7135,-2.725,-2.7201,-2.7103,-2.7007,-2.6959,-2.6826,-2.6554,-2.6485,-2.6415,-2.6043,-2.5917,-2.586,-2.5675,-2.5508,-2.5394,-2.5317,-2.5201,-2.5029,-2.4726,-2.463,-2.4508,-2.4291,-2.4124,-2.3773,-2.2939,-2.2107,-2.1192,-2.0167,-1.9867,-1.9833,-2.0025,-2.0115,-2.0185,-2.0304,-2.0423,-2.0559,-2.0711,-2.0794,-2.0925,-2.1151,-2.1262,-2.1547,-2.1977,-2.3388,-2.4295,-2.4704,-2.6116,-2.6825,-2.503,-2.615,-2.7072,-2.7404,-2.7659,-2.8088,-2.9144,-2.9492,-2.9836,-3.0702,-3.0297,-2.9763,-2.9728,-2.8972,-2.8345,-2.8126,-2.7864,-2.7582,-2.7244,-2.6858,-2.6469,-2.6063,-2.5787,-2.5448,-2.5045,-2.5068,-2.5107,-2.5107,-2.5045,-2.5005,-2.5005,-2.5005,-2.5123,-2.5333,-2.5333,-2.5524,-2.593,-2.6007,-2.6151,-2.6364,-2.6571,-2.664,-2.6623,-2.6876,-2.6975,-2.7007,-2.7218,-2.7313,-2.7393,-2.7393,-2.7393,-2.7393,-2.7393,-2.7264,-2.7103,-2.7103,-2.7023,-2.6893,-2.6893,-2.6893,-2.6926,-2.7038,-2.7103,-2.7135,-2.725,-2.7201,-2.7103,-2.7007,-2.6959,-2.6826,-2.6554,-2.6485,-2.6415,-2.6099,-2.5954,-2.5844,-2.5738,-2.553,-2.5394,-2.5317,-2.5201,-2.5029,-2.4822,-2.4686,-2.4549,-2.4317,-2.425,-2.4067,-2.3809,-2.2621,-2.1566,-2.1,-2.0385,-2.0025,-2.008,-2.022,-2.0304,-2.0388,-2.0592,-2.0711,-2.0794,-2.0877,-2.1039,-2.1294,-2.1371,-2.1884,-2.2857,-2.3811,-2.4738,-2.559,-2.6469,-2.6975,-2.5076,-2.5953,-2.6592,-2.7357,-2.7766,-2.8333,-2.984,-3.0299,-3.08,-3.218,-3.1472,-3.0586,-3.0523,-2.9305,-2.8273,-2.8071,-2.7766,-2.7448,-2.712,-2.6674,-2.6295,-2.5954,-2.553,-2.5201,-2.5005,-2.5005,-2.495,-2.4791,-2.4751,-2.471,-2.471,-2.471,-2.4846,-2.5084,-2.51,-2.5278,-2.5691,-2.5712,-2.5897,-2.6222,-2.6468,-2.6606,-2.6606,-2.6876,-2.7007,-2.7007,-2.725,-2.7376,-2.7407,-2.7452,-2.7483,-2.7483,-2.7483,-2.739,-2.7296,-2.7198,-2.7103,-2.7023,-2.6975,-2.7007,-2.7038,-2.7103,-2.7152,-2.7233,-2.7282,-2.7282,-2.7201,-2.7087,-2.704,-2.6909,-2.6691,-2.6572,-2.645,-2.6203,-2.6007,-2.5844,-2.5738,-2.5605,-2.5486,-2.5333,-2.524,-2.5123,-2.4862,-2.4782,-2.4686,-2.4508,-2.4234,-2.3872,-2.3334,-2.25,-2.1721,-2.1127,-2.0492,-2.0115,-2.027,-2.0339,-2.0423,-2.0592,-2.0711,-2.0794,-2.0877,-2.1071,-2.1214,-2.1309,-2.1556,-2.2054,-2.2891,-2.389,-2.4801,-2.5624,-2.6551,-2.699,-2.4879,-2.5747,-2.6398,-2.7437,-2.7882,-2.8464,-2.9908,-3.0553,-3.1124,-3.2227,-3.1642,-3.0857,-3.0476,-2.9205,-2.8164,-2.7922,-2.76,-2.7261,-2.6925,-2.6469,-2.6082,-2.577,-2.5339,-2.4989,-2.4862,-2.4766,-2.4686,-2.4508,-2.4426,-2.4385,-2.4441,-2.4482,-2.4564,-2.4846,-2.4846,-2.5045,-2.5502,-2.5524,-2.5787,-2.6222,-2.645,-2.6606,-2.6708,-2.6909,-2.7007,-2.7055,-2.7313,-2.7407,-2.7421,-2.7496,-2.7526,-2.7526,-2.7526,-2.7496,-2.7421,-2.7324,-2.7293,-2.723,-2.7087,-2.7038,-2.7117,-2.7166,-2.7264,-2.733,-2.733,-2.733,-2.7313,-2.7135,-2.7055,-2.6942,-2.6742,-2.6589,-2.645,-2.6258,-2.6261,-2.6241,-2.615,-2.6243,-2.6202,-2.575,-2.5646,-2.5488,-2.4973,-2.4822,-2.4742,-2.463,-2.4385,-2.4066,-2.3636,-2.2968,-2.2317,-2.1686,-2.106,-2.0586,-2.0457,-2.0491,-2.0577,-2.0711,-2.0794,-2.0909,-2.1039,-2.1214,-2.134,-2.1464,-2.1708,-2.2338,-2.3445,-2.4101,-2.5,-2.6128,-2.6736,-2.7087,-2.4432,-2.5483,-2.6493,-2.7513,-2.7989,-2.8451,-2.9395,-3.0251,-3.0856,-3.0892,-3.0874,-3.0548,-2.9653,-2.8727,-2.7996,-2.773,-2.74,-2.7053,-2.6725,-2.626,-2.5828,-2.5416,-2.5162,-2.4862,-2.4585,-2.4421,-2.4379,-2.441,-2.4155,-2.4082,-2.4181,-2.4223,-2.4333,-2.4589,-2.463,-2.4831,-2.5294,-2.5426,-2.5766,-2.6345,-2.6534,-2.6741,-2.7012,-2.7027,-2.7074,-2.7186,-2.7313,-2.7438,-2.7496,-2.7557,-2.7617,-2.7617,-2.7617,-2.7557,-2.7496,-2.7496,-2.7496,-2.7465,-2.7198,-2.7117,-2.7166,-2.7327,-2.7407,-2.7407,-2.7407,-2.7407,-2.7376,-2.7166,-2.7055,-2.6942,-2.6775,-2.6589,-2.6485,-2.638,-2.6644,-2.6929,-2.6962,-2.7362,-2.7454,-2.6519,-2.6318,-2.6039,-2.5171,-2.4902,-2.4766,-2.463,-2.463,-2.463,-2.4589,-2.3973,-2.3305,-2.2711,-2.203,-2.1327,-2.0637,-2.066,-2.0744,-2.0794,-2.0877,-2.1039,-2.1277,-2.1325,-2.1464,-2.1781,-2.186,-2.2712,-2.4399,-2.4526,-2.5399,-2.7007,-2.7087,-2.7215,-2.3619,-2.466,-2.5736,-2.6778,-2.7627,-2.8451,-2.944,-2.9864,-3.0188,-3.0784,-3.0423,-2.9881,-2.949,-2.8568,-2.776,-2.7457,-2.7068,-2.6674,-2.6315,-2.5832,-2.5454,-2.5224,-2.4846,-2.4782,-2.5211,-2.5087,-2.5173,-2.5663,-2.4732,-2.4166,-2.4223,-2.4333,-2.4498,-2.4589,-2.4791,-2.5045,-2.5294,-2.6156,-2.6721,-2.7072,-2.7785,-2.8272,-2.8471,-2.8032,-2.7861,-2.7977,-2.7555,-2.7438,-2.7496,-2.7557,-2.763,-2.7672,-2.7672,-2.763,-2.7587,-2.7587,-2.7557,-2.7496,-2.7434,-2.7404,-2.7404,-2.7465,-2.7465,-2.7483,-2.7407,-2.7407,-2.7376,-2.7282,-2.7122,-2.6975,-2.6942,-2.6708,-2.6619,-2.7086,-2.7114,-2.7169,-2.7617,-2.7816,-2.7737,-2.7356,-2.6727,-2.5974,-2.5132,-2.4989,-2.5029,-2.4989,-2.5068,-2.5005,-2.463,-2.3997,-2.3515,-2.3366,-2.2311,-2.153,-2.1393,-2.1009,-2.0794,-2.0877,-2.1023,-2.1199,-2.1294,-2.145,-2.1603,-2.1797,-2.2482,-2.3382,-2.4492,-2.5096,-2.5987,-2.7135,-2.7166,-2.7324,-2.3543,-2.4607,-2.5666,-2.6641,-2.7629,-2.8532,-2.9088,-2.9502,-2.9817,-2.9881,-2.9746,-2.943,-2.8895,-2.8164,-2.7552,-2.7147,-2.6774,-2.6383,-2.5961,-2.5864,-2.5726,-2.5528,-2.5529,-2.5664,-2.601,-2.5883,-2.5949,-2.6334,-2.5509,-2.4915,-2.4694,-2.4806,-2.4834,-2.4766,-2.4926,-2.5266,-2.5899,-2.7038,-2.7684,-2.7819,-2.8461,-2.8848,-2.9085,-2.8749,-2.8665,-2.8784,-2.8174,-2.7892,-2.7903,-2.7696,-2.763,-2.7659,-2.7701,-2.7672,-2.763,-2.763,-2.763,-2.76,-2.76,-2.76,-2.7569,-2.7539,-2.7557,-2.7526,-2.7452,-2.7452,-2.7421,-2.733,-2.7154,-2.7007,-2.7007,-2.7013,-2.7125,-2.7403,-2.7802,-2.8168,-2.8444,-2.8666,-2.8591,-2.7768,-2.6855,-2.6014,-2.525,-2.5162,-2.5185,-2.5224,-2.5317,-2.5278,-2.5068,-2.4641,-2.4216,-2.3901,-2.3196,-2.2663,-2.2362,-2.1766,-2.1404,-2.1535,-2.1649,-2.1795,-2.1954,-2.2422,-2.2712,-2.2834,-2.3452,-2.4208,-2.5108,-2.5641,-2.6378,-2.7324,-2.74,-2.7569,-2.3684,-2.4796,-2.5904,-2.6675,-2.7767,-2.8612,-2.8612,-2.9207,-2.9522,-2.8757,-2.9017,-2.9096,-2.8167,-2.7736,-2.7355,-2.6891,0.0,-2.617,-2.5905,-2.6131,-2.6286,-2.6202,-2.6646,-2.6969,-2.6945,-2.6873,-2.6876,-2.6941,-2.6656,-2.6167,-2.5531,-2.5527,-2.5477,-2.5386,-2.537,-2.5878,-2.6899,-2.7987,-2.8583,-2.8665,-2.8971,-2.9245,-2.9501,-2.9416,-2.9488,-2.9627,-2.8935,-2.8587,-2.8481,-2.7931,-2.7674,-2.7587,-2.7642,-2.7701,-2.7701,-2.7701,-2.7701,-2.7701,-2.7701,-2.7701,-2.7701,-2.763,-2.7617,-2.7587,-2.7526,-2.7496,-2.7465,-2.7345,-2.7154,-2.7024,-2.7127,-2.7419,-2.7734,-2.7811,-2.8643,-2.9393,-2.9305,-2.9662,-2.955,-2.7971,-2.7042,-2.627,-2.5461,-2.5371,-2.5355,-2.5416,-2.5454,-2.553,-2.5642,-2.547,-2.5077,-2.4457,-2.4312,-2.4007,-2.343,-2.2724,-2.239,-2.2539,-2.2589,-2.2704,-2.2961,-2.3653,-2.4081,-2.4225,-2.4515,-2.5105,-2.5925,-2.6178,-2.6727,-2.7569,-2.7701,-2.7876,-2.2998,-2.4392,-2.5806,-2.6157,-2.7446,-2.8637,-2.8737,-2.887,0.0,-2.8648,-2.8644,-2.8541,-2.8088,-2.7736,-2.7355,-2.6891,-2.6453,-2.6297,-2.6591,-2.6421,-2.651,-2.7102,-2.7185,-2.7471,-2.8056,-2.8104,-2.8271,-2.8801,-2.8758,-2.8039,-2.6533,-2.6675,-2.6941,-2.7227,-2.7332,-2.7581,-2.7948,-2.8864,-2.9403,-2.956,-3.0264,-3.0801,-3.109,-3.0492,-3.0311,-3.0437,-2.9661,-2.8988,-2.8483,-2.8377,-2.8007,-2.7526,-2.7569,-2.7617,-2.763,-2.7672,-2.7701,-2.7701,-2.7701,-2.7701,-2.7701,-2.7701,-2.7659,-2.7587,-2.7526,-2.7452,-2.7407,-2.7313,-2.7201,-2.7225,-2.7759,-2.7844,-2.8058,-2.9215,-2.951,-2.9703,-3.0154,-3.0218,-2.9721,-2.816,-2.7729,-2.7185,-2.5788,-2.5584,-2.5626,-2.5663,-2.5791,-2.5901,-2.5937,-2.5712,-2.5513,-2.5352,-2.4802,-2.4398,-2.4285,-2.3708,-2.337,-2.337,-2.3555,-2.3704,-2.3786,-2.4096,-2.4305,-2.4444,-2.5258,-2.5819,-2.6165,-2.6944,-2.7549,-2.7915,-2.8045,-2.8255,-2.3045,-2.4488,-2.5947,-2.6123,-2.7483,-2.8828,-2.89,0.0,0.0,-2.881,-2.8644,-2.8414,-2.8146,-2.7806,-2.7386,-2.6891,-2.6841,-2.6906,-2.6956,-2.7394,-2.7875,-2.8216,-2.8579,-2.8951,-2.9302,-2.9335,-2.9453,-2.9633,-2.9665,-2.9066,-2.7604,-2.7439,-2.7541,-2.7786,-2.8347,-2.8664,-2.8784,-2.9729,-3.0272,-3.0352,-3.0864,-3.1213,-3.1389,-3.1031,-3.0991,-3.1141,-3.0367,-2.9868,-2.9592,-2.883,-2.8308,-2.799,-2.7683,-2.7557,-2.7617,-2.763,-2.7672,-2.7701,-2.7701,-2.7701,-2.7771,-2.8193,-2.829,-2.8216,-2.8119,-2.8303,-2.8535,-2.847,-2.8354,-2.8356,-2.863,-2.8866,-2.9197,-2.9758,-3.0034,-3.0118,-2.9947,-2.984,-2.9264,-2.7692,-2.7375,-2.7032,-2.5987,-2.5828,-2.5885,-2.5994,-2.6101,-2.6189,-2.6312,-2.6222,-2.6079,-2.5937,-2.5589,-2.5376,-2.5376,-2.4755,-2.4412,-2.443,-2.458,-2.4697,-2.4762,-2.5376,-2.5756,-2.5866,-2.6475,-2.6892,-2.7093,-2.7635,-2.8083,-2.8352,-2.8482,-2.8639,-2.3536,-2.4939,-2.6399,-2.6481,-2.7757,-2.9053,-2.9242,-2.9297,0.0,-2.9475,-2.915,-2.8771,-2.8533,-2.8057,-2.7592,0.0,-2.747,-2.7679,-2.774,-2.8655,-2.9376,-2.9558,-3.0063,-3.0384,-3.0426,-3.0443,-3.0359,-3.0172,-3.0103,-2.9686,-2.873,-2.8424,-2.8339,-2.8404,-2.9165,-2.9543,-2.9543,-3.0409,-3.0871,-3.0912,-3.1072,-3.1213,-3.1295,-3.1295,-3.1389,-3.1562,-3.0979,-3.0673,-3.054,-2.9247,-2.8606,-2.8414,-2.7747,-2.7496,-2.7557,-2.7587,-2.763,-2.7672,-2.7701,-2.7701,-2.7824,-2.8649,-2.8851,-2.876,-2.8836,-2.919,-2.9574,-2.9506,-2.9472,-2.9437,-2.9451,-2.9875,-3.0241,-3.0184,-3.0398,-3.0389,-2.9613,-2.9317,-2.8718,-2.729,-2.7064,-2.6887,-2.625,-2.6154,-2.6225,-2.6365,-2.6435,-2.6521,-2.6674,-2.6708,-2.6657,-2.6435,-2.633,-2.6312,-2.6312,-2.5762,-2.5463,-2.5548,-2.5681,-2.5764,-2.5845,-2.665,-2.712,-2.7198,-2.7539,-2.7789,-2.7992,-2.8237,-2.8515,-2.8821,-2.8902,-2.9023,-2.4504,-2.5847,-2.7254,-2.7502,-2.8292,-2.9223,-3.0079,0.0,-3.0448,-3.1042,-3.0546,-2.9842,-2.9521,-2.8647,-2.807,-2.838,-2.8282,-2.8528,-2.9765,-2.9926,-3.0226,-3.1014,-3.105,-3.1061,-3.1179,-3.1134,-3.1015,-3.0764,-3.051,-3.0215,-2.9876,-3.0025,-3.0178,-3.0178,-3.0311,-3.0369,-3.0369,-3.0617,-3.0773,-3.0912,-3.0992,-3.1117,-3.1295,-3.1295,-3.1368,-3.1517,-3.1449,-3.1059,-3.0467,-2.9643,-2.8973,-2.8316,-2.767,-2.7407,-2.7438,-2.7574,-2.7617,-2.7617,-2.7672,-2.7701,-2.7824,-2.8649,-2.8753,-2.8749,-2.948,-2.9607,-2.9506,-2.9506,-2.9506,-2.9627,-3.0226,-3.0431,-3.058,-3.0997,-3.0594,-3.0061,-2.975,-2.9137,-2.8436,-2.7618,-2.754,-2.7394,-2.6672,-2.6589,-2.6624,-2.6657,-2.6825,-2.6942,-2.6942,-2.7087,-2.7149,-2.7117,-2.6825,-2.6657,-2.6657,-2.659,-2.659,-2.6656,-2.679,-2.6888,-2.6967,-2.7258,-2.7496,-2.7557,-2.7829,-2.8093,-2.835,-2.8621,-2.8906,-2.9251,-2.9318,-2.9457,-2.55,-2.6506,-2.757,-2.7724,-2.8463,-2.9407,-3.0324,0.0,-3.0776,-3.1501,-3.1297,-3.0913,-3.0628,-3.017,-2.9779,-2.9703,0.0,0.0,-3.0664,-3.1008,-3.1332,-3.1623,-3.162,-3.16,-3.1579,-3.1504,-3.1291,-3.0958,-3.0733,-3.0485,-3.0231,-3.0333,-3.0401,-3.0443,-3.0485,-3.0526,-3.0526,-3.0651,-3.0733,-3.0773,-3.0912,-3.0975,-3.1055,-3.1078,-3.1173,-3.1308,-3.1368,-3.1312,-3.1085,-2.99,-2.9265,-2.8954,-2.7779,-2.7345,-2.7407,-2.7513,-2.7557,-2.7617,-2.7672,-2.7701,-2.7824,-2.8649,-2.9117,-2.9528,-3.033,-3.0768,-3.0923,-3.0923,-3.0904,-3.0919,-3.1102,-3.117,-3.1079,-3.081,-3.0537,-3.0023,-2.8907,-2.8448,-2.8009,-2.7249,-2.7131,-2.7114,-2.6926,-2.694,-2.6989,-2.7103,-2.7184,-2.7279,-2.7341,-2.7404,-2.7478,-2.7552,-2.7307,-2.7135,-2.7135,-2.7166,-2.7181,-2.723,-2.731,-2.7386,-2.7461,-2.7683,-2.7904,-2.8073,-2.8342,-2.8603,-2.8883,-2.9151,-2.9398,-2.9588,-2.9713,-2.9832,-2.6548,-2.7333,-2.8136,-2.8224,-2.878,-2.9611,0.0,0.0,-3.1352,-3.2329,-3.2279,-3.1977,-3.174,-3.1404,-3.1111,0.0,0.0,-3.1586,-3.1641,-3.2001,-3.2231,-3.2179,-3.2091,-3.2037,-3.1982,-3.1746,-3.1428,-3.1095,-3.0814,-3.0609,-3.0417,-3.0375,-3.0359,-3.0485,-3.0485,-3.0485,-3.0526,-3.0609,-3.0651,-3.0692,-3.079,-3.0871,-3.0912,-3.0952,-3.1015,-3.1151,-3.1196,-3.1351,-3.1439,-2.9949,-2.942,-2.9351,-2.7868,-2.733,-2.7376,-2.7483,-2.7526,-2.7569,-2.7672,-2.773,-2.7889,-2.8679,-2.9263,-2.9846,-3.0914,-3.1585,-3.1948,-3.1948,-3.1929,-3.1873,-3.1765,-3.1593,-3.1263,-3.0692,-3.0246,-2.9644,-2.8442,-2.7997,-2.7672,-2.7124,-2.7021,-2.7085,-2.7244,-2.7307,-2.7369,-2.7522,-2.76,-2.7659,-2.7766,-2.7806,-2.7876,-2.7961,-2.7847,-2.7701,-2.7569,-2.76,-2.763,-2.7677,-2.7736,-2.7806,-2.7876,-2.8083,-2.8281,-2.8507,-2.8766,-2.9064,-2.9357,-2.9589,-2.9784,-2.9912,-3.0071,-3.0136,-2.7638,-2.8356,-2.9115,-2.9251,-2.9293,-2.9781,-3.1582,-3.1995,-3.2422,-3.3962,-3.3641,-3.3041,-3.2906,-3.212,-3.1697,-3.2291,-3.2274,0.0,-3.2929,-3.293,-3.2852,-3.2805,-3.2558,-3.2388,-3.2388,-3.1929,-3.1483,-3.123,-3.0912,-3.0609,-3.0417,-3.0274,-3.0274,-3.0417,-3.0417,-3.0443,-3.0526,-3.0526,-3.0568,-3.0692,-3.0692,-3.0773,-3.0912,-3.0912,-3.0952,-3.1015,-3.1015,-3.119,-3.1397,-2.9843,-2.9316,-2.9351,-2.7868,-2.7299,-2.733,-2.7434,-2.7496,-2.7526,-2.7642,-2.7795,-2.8029,-2.8757,-2.9047,-2.942,-3.1013,-3.1756,-3.2108,-3.2108,-3.2108,-3.2126,-3.2126,-3.1551,-3.1009,-3.0907,-2.9791,-2.869,-2.861,-2.8035,-2.7496,-2.7496,-2.7557,-2.76,-2.7672,-2.776,-2.7818,-2.7869,-2.8073,-2.8174,-2.8201,-2.8309,-2.837,-2.8396,-2.85,-2.8404,-2.7926,-2.7897,-2.7943,-2.8099,-2.8164,-2.8228,-2.83,-2.8492,-2.8658,-2.879,-2.906,-2.9377,-2.9696,-2.9832,-3.0003,-3.0203,-3.0336,-3.0425,-2.8725,-2.9018,-2.931,-2.9353,-2.9472,-3.0019,-3.1688,-3.2142,-3.2671,-3.4264,-3.4355,-3.4145,-3.4035,-3.372,-3.351,-3.3548,-3.3403,0.0,-3.3339,-3.3244,-3.3091,-3.2884,-3.2641,-3.2405,-3.2196,-3.1946,-3.1596,-3.123,-3.0912,-3.0568,-3.0274,-3.0044,-3.0044,-3.0274,-3.0274,-3.0274,-3.0274,-3.0274,-3.0316,-3.0359,-3.0359,-3.0443,-3.0584,-3.0609,-3.0733,-3.0935,-3.0975,-3.119,-3.1397,-2.9843,-2.9316,-2.9351,-2.7868,-2.7299,-2.733,-2.7434,-2.7496,-2.7526,-2.7642,-2.7795,-2.7941,-2.817,-2.8653,-2.9313,-3.0401,-3.1144,-3.1635,-3.2126,-3.1864,-3.1479,-3.1529,-3.0999,-3.0325,-2.9783,-2.9352,-2.887,-2.8247,-2.7959,-2.7876,-2.7979,-2.8035,-2.8119,-2.821,-2.8264,-2.8317,-2.8448,-2.8489,-2.8565,-2.8669,-2.8731,-2.8742,-2.8808,-2.8855,-2.8737,-2.8404,-2.8456,-2.8768,-2.9355,-2.8909,-2.8905,-2.9575,-2.919,-2.9042,-2.9279,-2.9551,-2.9801,-3.0037,-3.0177,-3.0314,-3.0472,-3.0511,-3.0559,0.0,-2.9411,-2.9512,-2.9513,-2.9608,0.0,-3.1412,-3.1789,-3.2317,-3.3978,-3.4337,-3.4372,-3.4572,-3.4583,-3.4495,-3.4269,-3.4099,-3.3895,-3.3671,-3.3491,-3.3274,-3.2902,-3.2674,-3.2387,-3.2073,-3.1819,-3.1521,-3.1078,-3.0733,-3.0401,-3.0087,-2.9826,-2.9738,-2.9946,-3.0017,-3.0103,-3.0189,-3.0189,-3.0189,-3.0189,-3.0189,-3.0231,-3.0333,-3.0401,-3.0609,-3.0831,-3.0935,-3.119,0.0,-2.9843,-2.9316,-2.9351,-2.7868,-2.7299,-2.733,-2.7434,-2.7496,-2.7526,-2.7707,-2.7871,-2.7946,-2.8003,-2.8614,-2.9494,-3.0337,-3.1217,-3.1986,-3.2398,-3.1991,-3.1441,-3.1501,-3.0777,-2.9904,-2.9469,-2.9213,-2.891,-2.8362,-2.8281,-2.8352,-2.8466,-2.85,-2.8558,-2.8707,-2.8731,-2.8755,-2.8915,-2.8952,-2.9001,-2.9079,-2.9129,-2.9193,-2.9214,-2.9235,-2.9323,-2.9466,-2.9425,-2.9617,-3.0112,-2.9701,-2.9692,-3.03,-2.9638,-2.9398,-2.9643,-2.9848,-3.008,-3.0316,-3.0451,-3.0567,-3.0645,-3.0645,-3.0634,0.0,-2.9626,-2.9719,-2.9717,-2.9717,-2.996,-3.0899,-3.1105,0.0,-3.3278,-3.3675,-3.3922,-3.4604,-3.4773,-3.4728,-3.4539,-3.4386,-3.4221,-3.3947,-3.3726,-3.3404,-3.287,-3.2608,-3.2353,-3.193,-3.1654,-3.1257,-3.0804,-3.041,-3.0044,-2.981,-2.9576,-2.9473,-2.9473,-2.9649,-2.9897,-3.0146,-3.0146,-3.0146,-3.0205,-3.0205,-3.0189,-3.0189,-3.0316,-3.0501,-3.0692,-3.0831,-3.1112,-3.1359,-2.9807,-2.9316,-2.9368,-2.7868,-2.7282,-2.733,-2.7434,-2.7496,-2.7526,-2.7801,-2.7929,-2.8025,-2.8154,-2.8892,-2.9872,-3.0685,-3.181,-3.2876,-3.293,-3.2371,-3.1769,-3.184,-3.0776,-2.9671,-2.974,-2.9277,-2.8845,-2.8845,-2.8892,-2.8934,-2.8934,-2.8966,-2.8979,-2.9129,-2.9129,-2.9191,-2.9316,-2.9398,-2.9438,-2.9438,-2.957,-2.9644,-2.9644,-2.9681,-3.0055,-3.0847,-3.0646,-3.0483,-3.0594,-3.0553,-3.0562,-3.0618,-2.9982,-2.9715,-2.9918,-3.008,-3.0266,-3.0511,-3.0634,-3.0704,-3.0717,-3.0717,-3.0704,-2.9975,0.0,-2.9857,-2.9855,-2.9888,-3.0148,0.0,-3.1225,-3.1545,-3.2645,0.0,0.0,-3.3994,-3.4491,-3.4831,-3.4747,-3.4517,-3.4269,-3.4023,-3.3633,-3.3244,-3.2916,-3.2573,-3.2197,-3.1856,-3.1449,-3.1004,-3.0576,-3.0156,-2.981,-2.9589,-2.9243,-2.9167,-2.935,-2.9305,-2.9441,-2.9814,-2.9814,-2.9858,-2.9946,-2.9946,-2.9989,-3.006,-3.0189,-3.0359,-3.0568,-3.079,-3.1032,-3.1167,-2.9731,-2.9245,-2.9283,-2.7736,-2.7201,-2.733,-2.7434,-2.7496,-2.7526,-2.7801,-2.7929,-2.8042,-2.8291,-2.9025,-3.0005,-3.0865,-3.1701,-3.2509,-3.3183,-3.2389,-3.1383,-3.149,-3.0375,-2.9269,-2.9333,-2.9255,-2.9175,-2.9175,-2.9277,-2.9358,-2.9358,-2.9398,-2.9456,-2.9533,-2.9551,-2.9607,-2.9732,-2.9817,-2.9864,-2.9864,-2.9927,-2.9992,-2.9984,-3.0,-3.0342,-3.1146,-3.0996,-3.1411,-3.269,-3.1581,-3.1205,-3.1921,-3.0646,-3.0007,-3.0209,-3.0442,-3.0599,-3.0658,-3.0742,-3.0778,-3.0773,-3.0773,-3.0748,-3.0075,-3.0113,-3.0034,-3.0034,-3.0049,-3.0213,-3.0647,0.0,0.0,0.0,0.0,0.0,0.0,0.0,-3.4945,-3.4811,-3.4626,-3.434,-3.3921,-3.3473,-3.3104,-3.2802,-3.2438,-3.2055,-3.1617,-3.1179,-3.0699,-3.0199,-2.975,-2.9364,-2.9152,-2.8842,-2.8748,-2.8982,-2.8936,-2.9121,-2.9608,-2.9653,-2.9742,-2.983,-2.9874,-2.9902,-2.9946,-3.0076,-3.0231,-3.0443,-3.0651,-3.0895,-3.1106,-2.9976,-2.9445,-2.9196,-2.8048,-2.7444,-2.7215,-2.7434,-2.7496,-2.7526,-2.7842,-2.8071,-2.8255,-2.8484,-2.9239,-3.0241,-3.117,-3.2029,-3.2812,-3.3515,-3.2934,-3.201,-3.1742,-3.0841,-2.9884,-2.955,-2.9533,-2.9588,-2.9588,-2.9661,-2.9731,-2.9731,-2.9782,-2.9848,-2.9912,-2.9943,-2.9954,-3.0066,-3.0136,-3.0177,-3.0177,-3.0228,-3.0241,-3.0248,-3.0254,-3.0726,-3.1919,-3.1928,-3.2371,-3.3562,-3.2443,-3.1965,-3.2469,-3.0982,-3.0228,-3.0423,-3.061,-3.0722,-3.075,-3.0769,-3.0798,-3.0793,-3.0804,-3.0779,-2.9883,-3.0088,-3.0087,-3.0207,-3.0226,-3.0226,-3.0234,0.0,0.0,0.0,0.0,0.0,0.0,-3.4489,0.0,-3.4832,-3.4628,-3.4316,-3.3753,-3.3327,-3.2961,-3.2606,-3.2232,-3.1785,-3.1278,-3.0781,-3.0284,-2.9722,-2.9212,-2.8842,-2.859,-2.8381,-2.8348,-2.8525,-2.8605,-2.8889,-2.9366,-2.9547,-2.9653,-2.9697,-2.983,-2.9874,-2.9918,-2.9989,-3.0103,-3.0316,-3.0443,-3.0733,-3.1044,-3.0285,-2.9688,-2.9261,-2.8562,-2.7877,-2.7306,-2.7577,-2.76,-2.7557,-2.79,-2.8219,-2.8518,-2.8687,-2.9436,-3.048,-3.1455,-3.243,-3.3362,-3.398,-3.3673,-3.3007,-3.242,-3.1751,-3.1065,-3.0246,-3.0105,-3.0133,-3.0,-3.0022,-3.0066,-3.0066,-3.0122,-3.0177,-3.0235,-3.026,-3.0266,-3.034,-3.0378,-3.043,-3.043,-3.0442,-3.0443,-3.0433,-3.0422,-3.1124,-3.2791,-3.294,-3.3256,-3.4025,-3.3188,-3.2535,-3.2288,-3.1034,-3.0423,-3.0618,-3.0684,-3.0745,-3.0806,-3.0798,-3.0801,-3.0801,-3.079,-3.0806,-2.9126,-2.9359,-2.9522,-3.0206,-3.0374,-3.0374,-3.0355,0.0,0.0,0.0,0.0,0.0,0.0,-3.414,-3.5016,-3.4832,-3.4394,-3.3947,-3.3577,-3.3238,-3.2848,-3.2386,-3.186,-3.1338,-3.0925,-3.0208,-2.9589,-2.909,-2.8559,-2.814,-2.794,-2.7775,-2.7825,-2.8057,-2.822,-2.8462,-2.8826,-2.9167,-2.9502,-2.9697,-2.9742,-2.9786,-2.9918,-2.9989,-3.0017,-3.006,-3.0359,-3.0526,-3.0543,-2.9995,-2.9804,-2.9786,-2.9059,-2.8492,-2.8064,-2.8278,-2.8007,-2.7557,-2.794,-2.8273,-2.8518,-2.8712,-2.9507,-3.0572,-3.1563,-3.2625,-3.3637,-3.4507,-3.411,-3.3431,-3.3449,-3.2942,-3.2233,-3.1432,-3.1289,-3.1162,-3.0463,-3.0325,-3.0329,-3.0329,-3.0359,-3.037,-3.0441,-3.0442,-3.0472,-3.054,-3.0565,-3.0571,-3.0571,-3.0614,-3.0634,-3.0574,-3.0565,-3.1255,-3.2937,-3.3062,-3.3708,-3.523,-3.3763,-3.2249,-3.0886,-3.0655,-3.061,-3.067,-3.0745,-3.0786,-3.0807,-3.0794,-3.0796,-3.0791,-3.081,-3.0804,-2.8299,-2.8567,-2.8805,-2.9641,-3.0163,-3.0441,-3.0441,0.0,0.0,0.0,0.0,0.0,0.0,-3.406,-3.4963,-3.4588,-3.4105,-3.3671,-3.3309,-3.2862,-3.2403,-3.1985,-3.1359,-3.0771,-3.0293,-2.9556,-2.8919,-2.84,-2.7815,-2.7414,-2.7342,-2.7203,-2.7306,-2.7675,-2.7925,-2.822,-2.8525,-2.8873,-2.9198,-2.9486,-2.9563,-2.9608,-2.9697,-2.9726,-2.9798,-2.9897,-3.0027,-3.0258,-3.041,-3.0227,-2.9982,-2.9755,-2.9555,-2.9149,-2.8733,-2.9073,-2.9109,-2.8983,-2.9313,-2.96,-2.9898,-3.0111,-3.093,-3.1908,-3.2524,-3.3466,-3.4434,-3.4977,-3.4785,-3.4344,-3.4006,-3.3743,-3.3359,-3.2562,-3.2397,-3.218,-3.1341,-3.1187,-3.1072,-3.0608,-3.052,-3.053,-3.0595,-3.0621,-3.0626,-3.0642,-3.0651,-3.0672,-3.0704,-3.0704,-3.0698,-3.0711,-3.069,-3.1154,-3.2391,-3.2906,-3.3674,-3.4883,-3.3768,-3.2532,-3.1319,-3.0865,-3.0684,-3.0745,-3.0774,-3.081,-3.0843,-3.0847,-3.0847,-3.0843,-3.0819,-3.0794,-2.7497,-2.7787,-2.8029,-2.8909,0.0,-3.0296,-3.0498,-3.0548,0.0,0.0,0.0,0.0,0.0,-3.3925,-3.4735,-3.4208,-3.3743,-3.3291,-3.2908,-3.2334,-3.1806,-3.1321,-3.0673,-3.0005,-2.9496,-2.8717,-2.8094,-2.755,-2.6938,-2.6587,-2.6602,-2.651,-2.6683,-2.7181,-2.756,-2.791,-2.825,-2.8605,-2.892,-2.9259,-2.9366,-2.9473,-2.9518,-2.9518,-2.9592,-2.9722,-2.9766,-2.9957,-3.0231,-3.0359,-3.0154,-2.9779,-3.0023,-2.9816,-2.9413,-2.9661,-2.9924,-3.018,-3.0409,-3.0686,-3.0985,-3.1283,-3.2109,-3.3036,-3.3306,-3.415,-3.5037,-3.5242,-3.53,-3.5153,-3.4609,-3.4545,-3.4433,-3.3625,-3.3432,-3.32,-3.2328,-3.2027,-3.1726,-3.1067,-3.0765,-3.0645,-3.0688,-3.069,-3.0711,-3.0724,-3.0722,-3.0739,-3.0794,-3.0769,-3.0745,-3.0794,-3.0748,-3.108,-3.1929,-3.2946,-3.379,-3.44,-3.3876,-3.3048,-3.1972,-3.1351,-3.0959,-3.079,-3.0794,-3.0823,-3.0909,-3.0892,-3.0892,-3.0909,-3.0847,-3.0823,-2.6735,-2.6986,-2.7198,-2.8065,-2.8877,0.0,-3.0508,-3.0688,0.0,-3.0602,0.0,0.0,0.0,-3.3564,-3.4128,-3.3715,-3.3266,-3.2745,-3.2162,-3.1608,-3.1021,-3.0394,-2.9625,-2.8903,-2.8386,-2.752,-2.6849,-2.6443,-2.5946,-2.5742,-2.577,-2.5784,-2.6042,-2.6563,-2.6811,-2.724,-2.784,-2.825,-2.8668,-2.9137,-2.9259,-2.9366,-2.9518,-2.9518,-2.9518,-2.9518,-2.9637,-2.9726,-2.9786,-2.9973,-3.014,-3.0269,-3.0427,-3.0342,-3.0185,-2.9765,-2.9758,-3.0068,-3.0318,-3.054,-3.0782,-3.118,-3.2035,-3.2966,-3.3306,-3.415,-3.5051,-3.5235,-3.5443,-3.557,-3.5512,-3.556,-3.5398,-3.4598,-3.4392,-3.4187,-3.3366,-3.2562,-3.1965,-3.1907,-3.1246,-3.069,-3.0704,-3.0704,-3.0722,-3.0778,-3.0784,-3.0798,-3.0798,-3.0806,-3.079,-3.0798,-3.0804,-3.112,-3.1929,-3.3544,-3.4517,-3.4588,-3.4522,-3.3744,-3.2063,-3.2002,-3.1625,-3.0819,-3.0799,-3.0825,-3.0894,-3.0894,-3.0894,-3.0894,-3.0894,-3.0891,-2.5993,-2.6111,-2.634,-2.7182,-2.7658,0.0,0.0,-3.0341,-3.0683,-3.0618,-3.1158,0.0,-3.273,-3.338,-3.3552,-3.2949,-3.2276,-3.1597,-3.092,-3.0237,-2.9496,-2.8745,-2.7911,-2.725,-2.6703,-2.5955,-2.5412,-2.5204,-2.4768,-2.461,-2.4808,-2.4921,-2.5189,-2.5783,-2.6283,-2.6759,-2.724,-2.7775,-2.8186,-2.8558,-2.8873,-2.9059,-2.9121,-2.9213,-2.9229,-2.9275,-2.9396,-2.9441,-2.9486,-2.9726,-2.987,-3.0011,-3.0468,-3.0727,-3.087,-3.0842,-3.1045,-3.134,-3.1656,-3.1943,-3.2247,-3.262,-3.3143,-3.3709,-3.403,-3.4547,-3.5051,-3.53,-3.5483,-3.5615,-3.5658,-3.5708,-3.5704,-3.5422,-3.5344,-3.5084,-3.4275,-3.3813,-3.341,-3.2905,-3.2108,-3.1513,-3.1508,-3.106,-3.0728,-3.0784,-3.0808,-3.0802,-3.079,-3.0798,-3.0798,-3.0801,-3.0794,-3.1133,-3.1982,-3.2664,-3.3288,-3.3819,-3.4319,-3.408,-3.2913,-3.2374,-3.1688,-3.0821,-3.0832,-3.0877,-3.0898,-3.0898,-3.0898,-3.0898,-3.0898,-3.0897,-2.5619,-2.5675,-2.5827,-2.6373,0.0,0.0,-2.8428,-2.951,-3.0335,-3.0532,-3.0945,-3.1499,-3.2143,-3.2447,-3.2375,-3.176,-3.0938,-3.003,-2.9143,-2.8295,-2.7448,-2.6616,-2.581,-2.5149,-2.4635,-2.4063,-2.3651,-2.3546,-2.3276,-2.3242,-2.3682,-2.3917,-2.4381,-2.5007,-2.5618,-2.6176,-2.6654,-2.724,-2.7625,-2.7875,-2.8398,-2.8685,-2.8889,-2.8951,-2.9014,-2.8998,-2.9091,-2.9137,-2.9183,-2.9412,-2.9605,-2.9837,-3.0368,-3.0773,-3.1072,-3.1389,-3.1691,-3.1984,-3.2335,-3.2672,-3.3006,-3.3368,-3.3734,-3.4074,-3.4473,-3.4772,-3.5016,-3.532,-3.5496,-3.5607,-3.5699,-3.5782,-3.5842,-3.5898,-3.5872,-3.5682,-3.5125,-3.4734,-3.4342,-3.3798,-3.2982,-3.2329,-3.2052,-3.1508,-3.104,-3.0823,-3.0789,-3.081,-3.0798,-3.0824,-3.0813,-3.0799,-3.0794,-3.1042,-3.1643,-3.1936,-3.2349,-3.2957,-3.3766,-3.3856,-3.3017,-3.2416,-3.1706,-3.085,-3.0878,-3.0898,-3.0898,-3.0875,-3.0874,-3.0897,-3.0878,-3.0879,-2.5694,-2.5701,-2.571,0.0,0.0,0.0,-2.6911,-2.8189,-2.9609,-3.0341,-3.0543,-3.0602,-3.0665,-3.0619,-3.0453,-3.0125,-2.9166,-2.8015,-2.6831,-2.5788,-2.4833,-2.3953,-2.3186,-2.2598,-2.2177,-2.1711,-2.1436,-2.1471,-2.1557,-2.1756,-2.2262,-2.2774,-2.3446,-2.4234,-2.4851,-2.5467,-2.6056,-2.6602,-2.6982,-2.7181,-2.771,-2.8284,-2.8794,-2.881,-2.881,-2.8794,-2.881,-2.8794,-2.8794,-2.8998,-2.938,-2.9837,-3.0166,-3.0452,-3.0733,-3.114,-3.1411,-3.1654,-3.2073,-3.237,-3.2687,-3.3142,-3.3541,-3.3895,-3.445,-3.4751,-3.4963,-3.5304,-3.5502,-3.5635,-3.5757,-3.5854,-3.5898,-3.5905,-3.5898,-3.5898,-3.5898,-3.5169,-3.4517,-3.4517,-3.3856,-3.3029,-3.2149,-3.2013,-3.1721,-3.092,-3.0798,-3.0798,-3.0798,-3.0858,-3.0868,-3.081,-3.079,-3.0808,-3.0801,-3.158,-3.2092,-3.2084,-3.2904,-3.2996,-3.2146,-3.21,-3.1716,-3.0918,-3.0898,-3.0896,-3.0894,-3.0831,-3.0832,-3.0894,-3.0831,-3.0834,-2.5698,-2.5703,0.0,-2.5707,0.0,0.0,0.0,-2.8209,0.0,0.0,-2.9832,-2.963,-2.8732,-2.8602,-2.8174,-2.6888,-2.577,-2.4545,-2.3109,-2.1942,-2.0868,-1.9943,-1.9351,-1.8952,-1.8689,-1.8685,-1.8792,-1.9076,-1.9586,-2.0138,-2.0662,-2.1318,-2.2089,-2.2907,-2.3551,-2.4195,-2.4978,-2.5563,-2.6108,-2.6563,-2.693,-2.7494,-2.822,-2.8444,-2.8444,-2.8381,-2.8493,-2.8508,-2.8556,-2.8951,-2.9259,-2.947,-2.9793,-3.0113,-3.0401,-3.0757,-3.1038,-3.1317,-3.1765,-3.2179,-3.2573,-3.2975,-3.3408,-3.3868,-3.4269,-3.4628,-3.4964,-3.5261,-3.5416,-3.555,-3.5688,-3.5784,-3.5842,-3.5898,-3.5872,-3.5838,-3.5838,-3.5601,-3.541,-3.541,-3.473,-3.3876,-3.3068,-3.2415,-3.1715,-3.0864,-3.0774,-3.0824,-3.086,-3.0889,-3.0894,-3.0875,-3.0875,-3.0857,-3.0799,-3.1034,-3.1191,-3.1191,-3.1425,-3.1738,-3.2088,-3.2109,-3.1698,-3.0857,-3.0829,-3.0823,-3.0821,-3.0813,-3.081,-3.0833,-3.0816,-3.0801,-2.5697,-2.5698,0.0,-2.5698,-2.5696,-2.5876,-2.6548,0.0,0.0,0.0,-2.845,-2.7983,-2.6801,-2.593,-2.4891,-2.3289,-2.1787,-1.932,-1.5117,-1.3553,-1.1542,-0.7985,-0.7242,-0.8057,-1.0767,-1.1233,-1.2763,-1.6091,-1.7058,-1.7909,-1.8685,-1.9619,-2.061,-2.1518,-2.2323,-2.3122,-2.3917,-2.461,-2.5175,-2.5673,-2.6136,-2.6683,-2.724,-2.779,-2.7989,-2.7959,-2.7814,-2.7789,-2.7933,-2.8,-2.8276,-2.8756,-2.9083,-2.9539,-3.0076,-3.0426,-3.074,-3.1044,-3.1504,-3.2001,-3.2456,-3.2816,-3.3291,-3.3788,-3.4173,-3.4545,-3.4889,-3.5193,-3.5407,-3.5526,-3.5667,-3.5757,-3.581,-3.5857,-3.5838,-3.5803,-3.5803,-3.5807,-3.5799,-3.5799,-3.5391,-3.475,-3.3969,-3.3096,-3.2221,-3.1382,-3.0997,-3.0816,-3.0891,-3.0896,-3.0898,-3.0898,-3.0879,-3.0839,-3.0799,-3.0796,-3.0792,-3.081,-3.0801,-3.1014,-3.1528,-3.1569,-3.1335,-3.0806,-3.0791,-3.0801,-3.0794,-3.0806,-3.0802,-3.0806,-3.081,-3.0798,-2.5703,-2.5703,0.0,-2.5703,-2.5679,0.0,-2.6137,-2.7179,-2.7874,-2.7175,-2.6535,-2.5779,-2.4601,-2.2683,-2.0642,-1.8605,-1.6595,-1.2463,-0.4239,-0.2196,0.0946,0.7711,0.8667,0.6327,-0.0,-0.0967,-0.41,-1.1095,-1.3078,-1.4473,-1.5571,-1.7389,-1.8889,-1.9954,-2.0986,-2.1932,-2.2745,-2.3586,-2.4147,-2.4543,-2.5301,-2.5783,-2.6002,-2.6922,-2.7386,-2.7545,-2.6984,-2.6892,-2.7084,-2.6581,-2.6915,-2.7825,-2.8123,-2.8834,-2.9681,-3.0113,-3.0477,-3.0804,-3.1312,-3.1765,-3.2232,-3.2651,-3.3172,-3.3671,-3.4148,-3.448,-3.4793,-3.5176,-3.5379,-3.5509,-3.5657,-3.5737,-3.5793,-3.5788,-3.5803,-3.5803,-3.5803,-3.5807,-3.5799,-3.5799,-3.5799,-3.5535,-3.4742,-3.3939,-3.3128,-3.2231,-3.1429,-3.0905,-3.0897,-3.0898,-3.0898,-3.0894,-3.0831,-3.0808,-3.0808,-3.0796,-3.0785,-3.0794,-3.0798,-3.0745,-3.0681,-3.0767,-3.0804,-3.0794,-3.0782,-3.0789,-3.0794,-3.0784,-3.0784,-3.0794,-3.0784,-3.0794,-2.5698,-2.5697,0.0,0.0,-2.5542,-2.5292,-2.4981,-2.4816,-2.4918,-2.557,-2.483,-2.3314,-2.0937,-1.8818,-1.5282,-0.8658,-0.6418,-0.2941,0.4194,0.589,0.7059,0.8954,0.9372,0.8869,0.7257,0.6793,0.5768,0.3721,-0.1763,-0.5604,-0.6861,-1.2629,-1.6437,-1.77,-1.8743,-1.9599,-2.0264,-2.121,-2.2122,-2.3057,-2.3705,-2.4419,-2.5286,-2.6244,-2.6855,-2.7115,-2.6574,-2.6475,-2.6687,-2.6244,-2.6642,-2.7489,-2.7809,-2.846,-2.9275,-2.9665,-3.006,-3.0384,-3.0935,-3.1504,-3.2038,-3.257,-3.3111,-3.3671,-3.4148,-3.448,-3.4754,-3.5124,-3.533,-3.5451,-3.5601,-3.5658,-3.5718,-3.5793,-3.581,-3.5799,-3.5799,-3.5799,-3.5799,-3.5799,-3.5807,-3.5531,-3.4742,-3.4432,-3.3809,-3.231,-3.1938,-3.1597,-3.0976,-3.0898,-3.0874,-3.0825,-3.0804,-3.0796,-3.0798,-3.0759,-3.0721,-3.0725,-3.0665,-3.0632,-3.0625,-3.0734,-3.0774,-3.072,-3.0722,-3.0716,-3.073,-3.0717,-3.0717,-3.073,-3.0724,-3.0748,-2.5707,0.0,0.0,-2.5664,0.0,-2.4965,-2.4195,-2.3279,-2.2358,-2.1487,-2.1049,-1.9182,-1.3816,-1.0946,-0.6875,0.0902,0.3169,0.6442,1.3544,1.4948,1.6555,2.0047,2.0573,1.9345,1.5947,1.5357,1.3625,0.987,0.5793,0.3019,0.192,-0.5111,-0.9652,-1.0885,-1.4952,-1.7604,-1.8419,-1.9386,-2.0415,-2.1387,-2.1971,-2.2911,-2.4136,-2.5521,-2.6154,-2.622,-2.5589,-2.5336,-2.5364,-2.4987,-2.5516,-2.6595,-2.6948,-2.7859,-2.8982,-2.9441,-2.987,-3.0375,-3.124,-3.1978,-3.2596,-3.3068,-3.3651,-3.4202,-3.4284,-3.4502,-3.4812,-3.5124,-3.5296,-3.5418,-3.5558,-3.5657,-3.5718,-3.5775,-3.5801,-3.5799,-3.5799,-3.5799,-3.5799,-3.5807,-3.5795,-3.5682,-3.5282,-3.4905,-3.4218,-3.2929,-3.2728,-3.2577,-3.2148,-3.1733,-3.1452,-3.1421,-3.1058,-3.079,-3.075,-3.0714,-3.0685,-3.0651,-3.0614,-3.0582,-3.0557,-3.0614,-3.0664,-3.0651,-3.069,-3.0683,-3.0656,-3.0649,-3.0668,-3.071,-3.071,-3.0717,-2.571,0.0,-2.5676,-2.5592,-2.5247,0.0,-2.3472,-2.1919,-1.9648,-1.5932,-1.5485,-1.3564,-0.6274,-0.2179,0.2522,0.9892,1.1947,1.5061,2.2153,2.3299,2.5525,3.1197,3.1932,2.9762,2.4082,2.337,2.0789,1.4761,1.2716,1.1344,1.0505,0.3529,-0.1479,-0.3655,-0.9989,-1.4374,-1.6501,-1.762,-1.8592,-1.9459,-2.0306,-2.1386,-2.2729,-2.4321,-2.5092,-2.5157,-2.4546,-2.4132,-2.3941,-2.3628,-2.4282,-2.5615,-2.6184,-2.7304,-2.87,-2.9198,-2.9766,-3.0408,-3.1658,-3.2581,-3.3279,-3.3897,-3.4416,-3.4807,-3.4612,-3.468,-3.487,-3.5141,-3.5311,-3.5451,-3.5577,-3.5646,-3.5718,-3.5766,-3.5793,-3.5791,-3.5791,-3.5799,-3.5807,-3.5803,-3.5818,-3.584,-3.5914,-3.5369,-3.463,-3.3756,-3.3611,-3.3574,-3.3416,-3.2762,-3.226,-3.2118,-3.1445,-3.093,-3.072,-3.0691,-3.0661,-3.0593,-3.0586,-3.055,-3.05,-3.0472,-3.0511,-3.0567,-3.0621,-3.0649,-3.0593,-3.0593,-3.0621,-3.0673,-3.0673,-3.069,0.0,0.0,-2.5664,0.0,-2.4985,-2.4054,0.0,-1.9946,-1.5972,-0.9052,-0.7243,-0.5821,-0.2204,0.403,1.087,1.7619,1.9096,2.1442,2.7317,2.8015,2.8272,2.9176,2.9401,2.9215,2.8515,2.8676,2.851,2.7695,2.2593,1.9182,1.8416,1.1876,0.5232,-0.1171,-0.3417,-0.7395,-1.3398,-1.4762,-1.6048,-1.7353,-1.8924,-2.0099,-2.0897,-2.1807,-2.2998,-2.4258,-2.3892,-2.3588,-2.3387,-2.3493,-2.4214,-2.5346,-2.6117,-2.7258,-2.8477,-2.8826,-2.9409,-3.0228,-3.16,-3.2564,-3.3439,-3.474,-3.5072,-3.5064,-3.5469,-3.5275,-3.4926,-3.5209,-3.5379,-3.5496,-3.5572,-3.5643,-3.5698,-3.5708,-3.5766,-3.5793,-3.5791,-3.5807,-3.5803,-3.5803,-3.5846,-3.5914,-3.599,-3.5907,-3.5532,-3.4667,-3.4531,-3.4256,-3.3506,-3.33,-3.2934,-3.2186,-3.201,-3.1587,-3.0763,-3.0649,-3.0613,-3.0588,-3.0499,-3.0414,-3.0402,-3.0371,-3.0352,-3.0444,-3.05,-3.055,-3.0607,-3.054,-3.0549,-3.061,-3.061,-3.0637,-2.5694,-2.5705,-2.5664,0.0,-2.4774,-2.3566,-2.1489,-1.8288,-1.3604,-0.5979,-0.0303,0.4586,0.881,1.3008,1.7838,2.3927,2.4798,2.551,2.7723,2.787,2.7719,2.7683,2.7895,2.8179,2.8525,2.8989,2.944,2.9787,2.7498,2.598,2.5744,1.9443,1.4299,1.0931,0.6452,0.0806,-0.6119,-0.727,-1.0324,-1.525,-1.654,-1.7589,-1.8455,-1.9513,-2.0989,-2.2797,-2.3054,-2.3138,-2.31,-2.3353,-2.417,-2.5207,-2.5848,-2.6927,-2.8137,-2.8622,-2.9303,-3.0277,-3.2127,-3.3276,-3.416,-3.5611,-3.6235,-3.6371,-3.5928,-3.5752,-3.5645,-3.5379,-3.5393,-3.5515,-3.5591,-3.5651,-3.5697,-3.5699,-3.5718,-3.5756,-3.5791,-3.5795,-3.5811,-3.5859,-3.5903,-3.5977,-3.5997,-3.5996,-3.5872,-3.5488,-3.5429,-3.5289,-3.4912,-3.4429,-3.3988,-3.3606,-3.2673,-3.1918,-3.1463,-3.0913,-3.0585,-3.0559,-3.0447,-3.0379,-3.0348,-3.0311,-3.0548,-3.106,-3.0656,-3.049,-3.054,-3.051,-3.0521,-3.0606,-3.0593,-3.0642,0.0,0.0,-2.5643,-2.5429,-2.4739,-2.34,-2.0738,-1.6036,-1.0134,-0.2544,0.6047,1.3643,1.8462,2.0597,2.2956,2.7004,2.7385,2.6951,2.6509,2.6398,2.6353,2.632,2.6601,2.6978,2.7448,2.8052,2.8647,2.9158,2.9599,2.9948,3.0199,2.5651,2.2178,2.0315,1.5054,0.896,0.2061,0.0977,-0.3289,-1.0684,-1.1575,-1.3327,-1.5858,-1.7185,-1.8791,-2.0658,-2.1918,-2.2454,-2.2564,-2.3124,-2.3928,-2.4833,-2.5549,-2.6542,-2.766,-2.8352,-2.918,-3.0266,-3.258,-3.3894,-3.4833,-3.65,-3.7301,-3.7479,-3.6485,-3.625,-3.6193,-3.5506,-3.5407,-3.5528,-3.5596,-3.5643,-3.5687,-3.5728,-3.5718,-3.5736,-3.5807,-3.5823,-3.5845,-3.5885,-3.5943,-3.6009,-3.6001,-3.6001,-3.5994,-3.5996,-3.5994,-3.6009,-3.6003,-3.5425,-3.4944,-3.4722,-3.3512,-3.2542,-3.2033,-3.1348,-3.0808,-3.052,-3.0425,-3.0451,-3.0618,-3.0618,-3.1013,-3.1895,-3.1322,-3.1049,-3.1113,-3.1127,-3.1158,-3.1236,-3.1243,-3.1177,0.0,-2.5707,0.0,-2.5372,-2.4979,-2.378,-2.0397,-1.2644,-0.4138,0.3027,1.1783,1.9265,2.2918,2.4647,2.5433,2.5138,2.5064,2.4879,2.4427,2.4676,2.4893,2.4893,2.526,2.5724,2.6235,2.6951,2.7652,2.8294,2.8847,2.938,2.9886,2.9788,2.7011,2.1133,2.0169,1.6545,0.9879,0.8565,0.4655,-0.1852,-0.2543,-0.6494,-1.3147,-1.4679,-1.6103,-1.7586,-2.019,-2.1345,-2.1437,-2.2519,-2.3326,-2.3959,-2.519,-2.6172,-2.7056,-2.7997,-2.895,-3.0163,-3.2731,-3.4112,-3.5173,-3.7449,-3.8015,-3.7731,-3.7341,-3.6824,-3.6264,-3.5584,-3.5482,-3.5604,-3.5604,-3.5648,-3.5718,-3.5785,-3.5793,-3.5807,-3.5891,-3.5898,-3.5892,-3.5903,-3.5948,-3.599,-3.6007,-3.6003,-3.5995,-3.5993,-3.5992,-3.6007,-3.5994,-3.5965,-3.5627,-3.48,-3.456,-3.3788,-3.215,-3.1899,-3.1446,-3.0559,-3.0375,-3.0676,-3.15,-3.147,-3.1843,-3.2728,-3.269,-3.2708,-3.2776,-3.2848,-3.2905,-3.2977,-3.3045,-3.2663,0.0,0.0,0.0,-2.6116,-2.5707,-2.4614,-2.2371,-1.3727,-0.4499,0.1598,1.0253,1.7691,2.0809,2.3042,2.4167,2.3472,2.3055,2.2689,2.2247,2.2239,2.234,2.241,2.2753,2.3186,2.3715,2.4431,2.5135,2.5792,2.6932,2.7794,2.8333,2.9167,2.8683,2.6646,2.6592,2.3423,1.6827,1.2249,0.8668,0.6029,0.5521,0.1625,-0.5128,-0.6558,-1.0005,-1.4993,-1.6978,-1.8955,-2.093,-2.1716,-2.2511,-2.3257,-2.4306,-2.5343,-2.6453,-2.7635,-2.8748,-3.0022,-3.21,-3.3772,-3.5276,-3.6971,-3.7745,-3.7904,-3.7448,-3.6939,-3.6364,-3.5662,-3.5515,-3.5604,-3.5607,-3.5669,-3.5766,-3.5791,-3.5823,-3.5864,-3.5892,-3.5898,-3.5905,-3.5903,-3.5948,-3.599,-3.601,-3.6003,-3.5994,-3.5995,-3.5992,-3.6009,-3.6001,-3.5994,-3.5887,-3.5576,-3.5002,-3.4399,-3.3738,-3.3099,-3.2559,-3.2193,-3.2042,-3.2096,-3.2363,-3.2297,-3.2669,-3.3544,-3.3574,-3.3346,-3.2891,-3.2923,-3.2964,-3.304,-3.3093,-3.3006,-2.5699,0.0,0.0,0.0,-2.6578,-2.5931,-2.4055,-1.5155,-0.5905,-0.11,0.7712,1.5277,1.7623,1.9365,2.0582,2.0879,2.0739,2.0483,2.0088,2.0161,2.026,2.0429,2.0765,2.1226,2.1827,2.2551,2.3305,2.4053,2.5201,2.6109,2.6685,2.7843,2.8783,2.9398,2.9672,2.7757,2.3458,1.9276,1.6021,1.3721,1.3327,0.9788,0.3414,-0.0,-0.4365,-0.9403,-1.3095,-1.651,-1.9629,-2.047,-2.1295,-2.2115,-2.3251,-2.4416,-2.5713,-2.7136,-2.845,-2.9837,-3.1803,-3.3487,-3.5017,-3.6401,-3.7285,-3.7685,-3.7122,-3.6819,-3.6473,-3.5746,-3.5589,-3.5639,-3.565,-3.5532,-3.5395,-3.5405,-3.5425,-3.5463,-3.5499,-3.5702,-3.5891,-3.5894,-3.5953,-3.5994,-3.5994,-3.6005,-3.5994,-3.5995,-3.5993,-3.6009,-3.6005,-3.5999,-3.6004,-3.6005,-3.5455,-3.4969,-3.4633,-3.3984,-3.3451,-3.3081,-3.2954,-3.2985,-3.3164,-3.3142,-3.3497,-3.4339,-3.4388,-3.4148,-3.3667,-3.3736,-3.3801,-3.3839,-3.3909,-3.3819,0.0,0.0,0.0,-2.6874,-2.7546,-2.7625,-2.5321,-1.6577,-0.798,-0.46,0.4616,1.2483,1.3747,1.408,1.4903,1.7183,1.7989,1.8219,1.7917,1.8356,1.878,1.9059,1.9377,1.9932,2.0721,2.1446,2.2257,2.3116,2.3784,2.442,2.5067,2.6213,2.7464,2.8798,2.9041,2.9277,2.9538,2.968,2.6866,2.1137,2.096,1.7809,1.1911,0.4629,0.0689,-0.0844,-0.8507,-1.3938,-1.7445,-1.8619,-1.9608,-2.0576,-2.1968,-2.3357,-2.4799,-2.6547,-2.8086,-2.9641,-3.1896,-3.3283,-3.4366,-3.5862,-3.6727,-3.7055,-3.6463,-3.6476,-3.6521,-3.5809,-3.5648,-3.5708,-3.5764,-3.5172,-3.4564,-3.456,-3.4579,-3.4623,-3.4698,-3.5334,-3.5897,-3.5904,-3.5958,-3.5997,-3.6001,-3.6009,-3.5994,-3.5995,-3.5993,-3.6009,-3.6005,-3.5999,-3.6004,-3.6005,-3.5934,-3.5558,-3.471,-3.4512,-3.4052,-3.3141,-3.3006,-3.3264,-3.3914,-3.3939,-3.4306,-3.5073,-3.5164,-3.5198,-3.5209,-3.5403,-3.5493,-3.5507,-3.5553,-3.5187,-2.7448,0.0,0.0,0.0,0.0,0.0,-2.7518,-1.9362,-1.1382,-0.9202,-0.0385,0.7291,0.8486,0.9429,1.0481,1.1798,1.4144,1.5775,1.5697,1.5975,1.632,1.6544,1.6999,1.7518,1.8234,1.8976,1.9698,2.0472,2.166,2.254,2.2988,2.4791,2.6272,2.7295,2.7635,2.7991,2.8276,2.8671,2.8175,2.6823,2.7112,2.4098,1.82,1.6628,1.0489,0.0949,-0.1391,-0.6243,-1.2673,-1.5765,-1.7891,-1.9236,-2.0703,-2.2469,-2.4349,-2.6175,-2.7977,-2.9735,-3.1363,-3.3051,-3.4611,-3.5417,-3.6047,-3.6483,-3.6504,-3.6238,-3.5863,-3.5718,-3.5771,-3.571,-3.5159,-3.4378,-3.3723,-3.3731,-3.4202,-3.4674,-3.4697,-3.5369,-3.5962,-3.5962,-3.599,-3.6004,-3.6001,-3.6009,-3.5993,-3.5996,-3.5994,-3.5991,-3.6009,-3.5996,-3.5997,-3.6005,-3.5948,-3.578,-3.548,-3.5377,-3.5194,-3.4832,-3.4691,-3.4711,-3.4827,-3.4783,-3.4882,-3.5092,-3.5129,-3.5129,-3.5127,-3.5277,-3.5388,-3.5427,-3.5457,-3.5348,0.0,0.0,0.0,-2.9149,0.0,0.0,-2.8909,-2.295,-1.6753,-1.4157,-0.6862,-0.0202,0.23,0.43,0.6037,0.7309,0.9661,1.1842,1.3361,1.3882,1.4275,1.4755,1.5264,1.584,1.6646,1.7395,1.8196,1.8939,1.9929,2.0947,2.1972,2.3522,2.4788,2.5677,2.6067,2.6441,2.6744,2.7325,2.784,2.8365,2.8944,2.7682,2.4802,2.2867,1.7854,1.0371,0.4862,-0.0469,-0.5833,-1.1486,-1.5275,-1.7619,-1.9456,-2.1513,-2.3722,-2.5799,-2.7883,-2.9799,-3.1302,-3.2873,-3.4312,-3.4923,-3.5457,-3.5902,-3.6111,-3.5955,-3.5696,-3.576,-3.5577,-3.5174,-3.4378,-3.3506,-3.2863,-3.2863,-3.3529,-3.4153,-3.417,-3.5123,-3.5996,-3.6001,-3.6001,-3.5991,-3.6005,-3.5991,-3.5995,-3.5996,-3.5994,-3.6009,-3.6005,-3.5991,-3.5994,-3.5953,-3.5908,-3.5827,-3.5752,-3.5669,-3.5554,-3.5438,-3.5296,-3.5171,-3.5072,-3.5001,-3.4983,-3.4965,-3.4964,-3.5001,-3.502,-3.516,-3.5258,-3.532,-3.533,-3.5292,0.0,0.0,0.0,-2.9342,-2.9781,0.0,-2.9545,-2.6512,-2.2696,-1.8837,-1.3695,-0.8508,-0.42,-0.103,0.1532,0.3308,0.4877,0.7171,1.0939,1.1948,1.2551,1.3301,1.3924,1.4664,1.5596,1.6464,1.7272,1.8052,1.8655,1.9739,2.1579,2.2354,2.3132,2.3948,2.4302,2.4625,2.4981,2.5636,2.6349,2.704,2.781,2.895,3.0219,2.5515,2.3284,2.2499,1.1342,0.4759,0.1357,-0.6034,-1.1748,-1.6018,-1.8235,-2.0665,-2.317,-2.5528,-2.7773,-2.992,-3.1564,-3.2859,-3.3877,-3.4542,-3.507,-3.5442,-3.5582,-3.5636,-3.566,-3.5619,-3.4988,-3.416,-3.3437,-3.2614,-3.1968,-3.1951,-3.2693,-3.3397,-3.3398,-3.4765,-3.5994,-3.6001,-3.5996,-3.5999,-3.5991,-3.5994,-3.5996,-3.5995,-3.5993,-3.6007,-3.5994,-3.5985,-3.5966,-3.5914,-3.5833,-3.5764,-3.5708,-3.5574,-3.5432,-3.53,-3.5155,-3.5035,-3.4889,-3.4831,-3.4791,-3.4788,-3.4791,-3.4812,-3.487,-3.5,-3.5124,-3.5176,-3.5157,-3.5124,-3.0125,-3.0192,-3.0237,-3.0117,-2.9994,0.0,-2.9147,-2.729,-2.4679,-2.108,-1.7276,-1.3283,-0.9103,-0.5925,-0.3269,-0.1175,0.0752,0.3596,0.8281,0.9585,1.0471,1.1414,1.2308,1.3233,1.4367,1.533,1.6219,1.7024,1.8194,1.9405,2.0701,2.1002,2.1428,2.2034,2.2267,2.2598,2.3024,2.3716,2.45,2.5389,2.633,2.7335,2.8306,2.9173,2.7013,2.2497,2.1351,1.4384,0.3624,0.0347,-0.6421,-1.501,-1.76,-2.0366,-2.3204,-2.5661,-2.803,-3.0218,-3.1914,-3.3241,-3.4282,-3.4907,-3.5302,-3.5588,-3.5716,-3.5323,-3.4693,-3.4004,-3.3215,-3.2543,-3.2397,-3.1711,-3.1045,-3.1053,-3.2265,-3.34,-3.341,-3.4761,-3.5995,-3.5996,-3.5994,-3.601,-3.5994,-3.5996,-3.5996,-3.5995,-3.5991,-3.6003,-3.5994,-3.5955,-3.5904,-3.5897,-3.583,-3.5756,-3.5629,-3.5495,-3.535,-3.5223,-3.5089,-3.4964,-3.4831,-3.4751,-3.4728,-3.4727,-3.4666,-3.4647,-3.4647,-3.485,-3.4964,-3.4964,-3.4908,-3.487,-3.0585,-3.0491,-3.0402,-3.0234,-3.0,0.0,0.0,-2.7879,-2.6073,-2.3185,-2.0182,-1.699,-1.3402,-1.0303,-0.7577,-0.5357,-0.3316,-0.075,0.2781,0.5699,0.7949,0.9174,1.0253,1.1428,1.2676,1.3871,1.5153,1.6539,1.7867,1.8861,1.9342,1.9675,2.0008,2.0192,2.0367,2.0637,2.0992,2.1718,2.2526,2.3405,2.4553,2.5824,2.7195,2.944,2.9287,2.7202,2.5667,1.9228,0.9416,0.4144,-0.3952,-1.3322,-1.676,-2.0045,-2.3244,-2.5959,-2.8462,-3.0726,-3.2393,-3.3647,-3.4637,-3.5186,-3.5212,-3.5065,-3.513,-3.4568,-3.3727,-3.2853,-3.2309,-3.1904,-3.1465,-3.1056,-3.075,-3.075,-3.1753,-3.2834,-3.3292,-3.4432,-3.5474,-3.5911,-3.5994,-3.5996,-3.5996,-3.5996,-3.5994,-3.5992,-3.6005,-3.5994,-3.5955,-3.5914,-3.5883,-3.5852,-3.5791,-3.5708,-3.5554,-3.5418,-3.5281,-3.516,-3.4982,-3.4831,-3.471,-3.4626,-3.4583,-3.4539,-3.4495,-3.445,-3.445,-3.452,-3.4588,-3.4691,-3.467,-3.4609,-3.053,-3.0449,-3.0343,-3.0118,-2.9921,-2.9645,0.0,0.0,0.0,-2.4713,-2.2378,-1.9829,-1.6804,-1.3987,-1.1408,-0.9163,-0.7183,-0.5157,-0.303,0.0915,0.4431,0.6564,0.7949,0.9314,1.0764,1.2434,1.4196,1.6134,1.7355,1.8029,1.7997,1.8389,1.8561,1.8466,1.8561,1.872,1.8984,1.9737,2.0535,2.1403,2.2659,2.421,2.6063,2.8134,3.0064,3.1574,2.8134,2.2392,1.4882,0.7568,-0.1692,-1.169,-1.6029,-1.9946,-2.3514,-2.644,-2.9049,-3.1322,-3.2921,-3.4086,-3.4968,-3.5387,-3.5054,-3.4409,-3.4039,-3.3451,-3.2737,-3.1853,-3.162,-3.1476,-3.0754,-3.0634,-3.0683,-3.0678,-3.1352,-3.2252,-3.318,-3.407,-3.494,-3.5818,-3.5999,-3.6005,-3.5993,-3.5992,-3.6009,-3.6003,-3.5996,-3.5981,-3.5909,-3.5894,-3.5853,-3.5791,-3.5718,-3.5618,-3.547,-3.534,-3.519,-3.5038,-3.487,-3.4711,-3.4602,-3.4495,-3.4427,-3.434,-3.4269,-3.4147,-3.398,-3.3931,-3.4003,-3.4184,-3.4184,-3.4116,-3.055,-3.0458,-3.0343,-3.0085,-2.9869,-2.9589,-2.9126,0.0,-2.7356,-2.4872,0.0,-2.1397,-1.8327,0.0,0.0,-1.248,-1.0623,-0.8714,-0.677,-0.4577,-0.14,0.3374,0.5222,0.6823,0.8579,1.1336,1.3674,1.5414,1.6031,1.658,1.7126,1.7003,1.6925,1.6768,1.6768,1.6935,1.7203,1.7947,1.8713,1.9533,2.0718,2.2324,2.4238,2.6281,2.8336,3.0328,3.162,2.5995,1.5686,1.2525,0.2638,-1.0988,-1.5904,-2.0211,-2.4073,-2.7194,-2.9838,-3.2001,-3.3496,-3.4541,-3.529,-3.5589,-3.5057,-3.401,-3.2425,-3.1903,-3.1679,-3.0818,-3.0607,-3.0637,-3.053,-3.0549,-3.0613,-3.0618,-3.1317,-3.2246,-3.3122,-3.4008,-3.4867,-3.5739,-3.5955,-3.5991,-3.6009,-3.6009,-3.6003,-3.5996,-3.6007,-3.597,-3.5919,-3.5846,-3.5799,-3.5727,-3.5607,-3.547,-3.5326,-3.5209,-3.5038,-3.4851,-3.471,-3.4583,-3.4517,-3.434,-3.4197,-3.4148,-3.3998,-3.3578,-3.2884,-3.2808,-3.2884,-3.3078,-3.303,-3.2958,-3.052,-3.0414,-3.0292,-3.0045,-2.9855,-2.9608,-2.9212,-2.8396,-2.7189,-2.5345,0.0,0.0,0.0,0.0,0.0,0.0,-1.3325,-1.1668,-0.9733,-0.7978,-0.5043,0.0,0.2011,0.4203,0.7112,0.9653,1.1672,1.2959,1.3995,1.4639,1.4877,1.4945,1.4906,1.4749,1.4808,1.4974,1.5187,1.5867,1.6592,1.7346,1.8524,2.0284,2.2532,2.4305,2.651,2.9009,3.1045,2.5847,1.5727,1.2958,0.2985,-1.1173,-1.6821,-2.139,-2.5043,-2.8207,-3.0741,-3.283,-3.4074,-3.4936,-3.533,-3.4382,-3.3723,-3.2994,-3.1258,-3.0752,-3.0708,-3.0369,-3.0323,-3.0402,-3.0436,-3.049,-3.054,-3.0597,-3.0892,-3.1581,-3.2985,-3.3583,-3.4255,-3.5621,-3.5914,-3.5951,-3.5988,-3.5991,-3.5991,-3.6004,-3.597,-3.5924,-3.5846,-3.5813,-3.5752,-3.5649,-3.5554,-3.5445,-3.5296,-3.5176,-3.502,-3.4793,-3.4607,-3.445,-3.4316,-3.4197,-3.4099,-3.3998,-3.3895,-3.3403,-3.2543,-3.2464,-3.1944,-3.1064,-3.1616,-3.2059,-3.049,-3.039,-3.0253,-3.0068,-2.9874,-2.9645,-2.9314,-2.8319,-2.7103,-2.5737,-2.4212,0.0,0.0,0.0,-1.8389,-1.7006,0.0,-1.4122,-1.2368,-1.078,-0.8069,-0.3307,-0.0823,0.1792,0.5056,0.721,0.8896,1.0207,1.1495,1.2279,1.2409,1.2607,1.2753,1.2655,1.2777,1.289,1.3124,1.3784,1.4486,1.5168,1.6384,1.8182,2.0499,2.214,2.4408,2.7179,2.9321,2.4652,1.5259,1.2163,0.2229,-1.1621,-1.815,-2.3096,-2.6868,-2.9506,-3.176,-3.3616,-3.4611,-3.5187,-3.5224,-3.3383,-3.2661,-3.2181,-3.0494,-3.0019,-3.0068,-3.0094,-3.0199,-3.0279,-3.033,-3.0402,-3.0488,-3.0569,-3.0597,-3.1028,-3.2579,-3.3121,-3.3738,-3.5248,-3.5738,-3.5929,-3.5958,-3.599,-3.5994,-3.5974,-3.5929,-3.5878,-3.582,-3.5768,-3.5718,-3.5596,-3.5514,-3.5411,-3.5251,-3.5107,-3.4927,-3.4711,-3.4498,-3.4316,-3.4173,-3.4099,-3.3998,-3.3868,-3.378,-3.3268,-3.2329,-3.2264,-3.1418,-2.9953,-3.0722,-3.132,-3.0439,-3.0348,-3.0272,-3.0132,-2.9943,-2.9718,-2.9375,-2.8452,-2.7287,-2.5882,-2.4557,-2.317,-2.1556,-2.0603,-1.9688,-1.8612,-1.7411,0.0,0.0,-1.3293,-1.0772,-0.6438,-0.3019,-0.0235,0.1865,0.369,0.5509,0.7277,0.8535,0.946,0.9976,1.0184,1.0398,1.0607,1.0607,1.0746,1.1073,1.1735,1.2387,1.3039,1.4484,1.6205,1.8087,1.9826,2.1985,2.4545,2.7124,2.3004,1.4279,1.073,0.0952,-1.2495,-1.9725,-2.5503,-2.9901,-3.1247,-3.2763,-3.4258,-3.502,-3.5302,-3.5002,-3.3123,-3.2386,-3.1902,-3.0207,-2.9806,-2.9912,-2.9907,-3.0049,-3.0199,-3.0207,-3.0299,-3.0421,-3.0488,-3.055,-3.0848,-3.1745,-3.2648,-3.3568,-3.4478,-3.5326,-3.5894,-3.5909,-3.5958,-3.5981,-3.5914,-3.5899,-3.5872,-3.5818,-3.5735,-3.5649,-3.5519,-3.5443,-3.5335,-3.5122,-3.4982,-3.4772,-3.4431,-3.4386,-3.4316,-3.4124,-3.4049,-3.3947,-3.3807,-3.3605,-3.3081,-3.2198,-3.2072,-3.1464,-3.0475,-3.0722,-3.0751,-3.0425,-3.0318,-3.0199,-3.0068,-2.9891,-2.9681,-2.9474,-2.819,-2.6826,-2.6134,-2.4608,-2.3068,-2.2136,-2.1379,-2.0588,-1.9632,-1.8589,-1.7478,0.0,-1.4554,-1.2531,-1.0316,-0.6846,-0.3793,-0.1814,0.0127,0.1943,0.3603,0.5052,0.6173,0.6832,0.7233,0.7634,0.7911,0.8163,0.8356,0.8628,0.9255,0.9882,1.0448,1.1524,1.29,1.4731,1.622,1.8155,2.0419,2.2972,1.947,1.1478,0.6528,-0.2761,-1.4643,-2.2867,-2.8339,-3.1776,-3.2617,-3.3732,-3.4844,-3.5232,-3.5262,-3.4882,-3.3597,-3.2675,-3.1854,-3.077,-3.0114,-2.9789,-2.9876,-3.0007,-3.0128,-3.0194,-3.0273,-3.0359,-3.0469,-3.054,-3.0848,-3.1706,-3.2648,-3.3568,-3.4432,-3.5295,-3.5897,-3.5894,-3.5914,-3.5928,-3.5894,-3.5897,-3.5878,-3.581,-3.5737,-3.5637,-3.5502,-3.5449,-3.532,-3.5122,-3.4927,-3.471,-3.4427,-3.4363,-3.4245,-3.4049,-3.3921,-3.3788,-3.3671,-3.3491,-3.2965,-3.2054,-3.1906,-3.1344,-3.0457,-3.0911,-3.116,-3.0421,-3.0305,-3.0171,-3.0068,-2.9891,-2.9736,-2.957,-2.8331,-2.7108,-2.6808,-2.5373,-2.4032,-2.3473,-2.2659,-2.1771,-2.0931,-1.9777,-1.8574,0.0,-1.5741,-1.4369,-1.3459,-1.0124,-0.7206,-0.5398,-0.3558,-0.1771,-0.0132,0.145,0.2638,0.3499,0.4164,0.4698,0.5101,0.5356,0.5687,0.6086,0.6668,0.7256,0.7842,0.8742,0.989,1.1236,1.2565,1.4006,1.5583,1.7367,1.3581,0.5772,0.0627,-0.8047,-1.8837,-2.6131,-3.0728,-3.3295,-3.3772,-3.4511,-3.5286,-3.5316,-3.5153,-3.4755,-3.3731,-3.2903,-3.2213,-3.1456,-3.0882,-3.0565,-3.0712,-3.0625,-3.051,-3.0596,-3.0464,-3.0292,-3.0425,-3.0509,-3.0801,-3.168,-3.2604,-3.3526,-3.4399,-3.5275,-3.5872,-3.5891,-3.5905,-3.5905,-3.5897,-3.5885,-3.5842,-3.5812,-3.5728,-3.5623,-3.5483,-3.5402,-3.527,-3.5053,-3.4888,-3.4687,-3.4427,-3.434,-3.4221,-3.3998,-3.3868,-3.3726,-3.3605,-3.3452,-3.3051,-3.2379,-3.2197,-3.1773,-3.1182,-3.152,-3.1734]},{"header":{"parameterUnit":"m.s-1","parameterCategory":1,"la1":30.6,"la2":29.2853,"lo1":-89.7004,"lo2":-87.6739,"dy":0.0162,"dx":0.0183,"nx":112,"ny":82,"refTime":"2023-07-17T00:00:00:Z","depth":0,"parameterNumber":3,"parameterNumberName":"V-component_of_WINDS"},"data":[0.0,0.0,0.0,0.0,0.0,0.0,0.0,0.0,0.0,0.0,0.0,0.0,0.0,0.0,0.0,0.0,0.0,0.0,0.0,0.0,0.0,0.0,0.0,0.0,0.0,0.0,0.0,0.0,0.0,0.0,0.0,0.0,0.0,0.0,0.0,0.0,0.0,0.0,0.0,0.0,0.0,0.0,0.0,0.0,0.0,0.0,0.0,0.0,0.0,0.0,0.0,0.0,0.0,0.0,0.0,0.0,0.0,0.0,0.0,0.0,0.0,0.0,0.0,0.0,0.0,0.0,0.0,0.0,0.0,0.0,0.0,0.0,0.0,0.0,0.0,0.0,0.0,0.0,0.0,0.0,0.0,0.0,0.0,0.0,0.0,0.0,0.0,0.0,0.0,0.0,-1.7168,-1.7357,-1.7145,-1.6867,-1.6571,-1.6246,-1.5972,-1.5771,0.0,0.0,0.0,0.0,0.0,0.0,0.0,0.0,0.0,0.0,0.0,0.0,0.0,0.0,0.0,0.0,0.0,0.0,0.0,0.0,0.0,0.0,0.0,0.0,0.0,0.0,0.0,0.0,0.0,0.0,0.0,0.0,0.0,0.0,0.0,0.0,0.0,0.0,0.0,0.0,0.0,0.0,0.0,0.0,0.0,0.0,0.0,0.0,0.0,0.0,0.0,0.0,0.0,0.0,0.0,0.0,0.0,0.0,0.0,0.0,0.0,0.0,0.0,0.0,0.0,0.0,0.0,0.0,0.0,0.0,0.0,0.0,0.0,0.0,0.0,0.0,0.0,0.0,0.0,0.0,0.0,0.0,0.0,0.0,0.0,0.0,0.0,0.0,0.0,0.0,0.0,0.0,0.0,0.0,0.0,0.0,0.0,0.0,0.0,0.0,0.0,0.0,0.0,0.0,-1.5799,-1.6051,-1.5806,-1.5655,-1.5829,-1.5587,-1.549,-1.561,0.0,0.0,0.0,0.0,0.0,0.0,0.0,0.0,0.0,0.0,0.0,0.0,0.0,0.0,0.0,0.0,0.0,0.0,0.0,0.0,0.0,0.0,0.0,0.0,0.0,0.0,0.0,0.0,0.0,0.0,0.0,0.0,0.0,0.0,0.0,0.0,0.0,0.0,0.0,0.0,0.0,0.0,0.0,0.0,0.0,0.0,0.0,0.0,0.0,0.0,0.0,0.0,0.0,0.0,0.0,0.0,0.0,0.0,0.0,0.0,0.0,0.0,0.0,0.0,0.0,0.0,0.0,0.0,0.0,0.0,0.0,0.0,0.0,0.0,0.0,0.0,0.0,0.0,0.0,0.0,0.0,0.0,0.0,0.0,0.0,0.0,0.0,0.0,0.0,0.0,0.0,0.0,0.0,0.0,0.0,0.0,0.0,0.0,0.0,0.0,0.0,0.0,0.0,-1.5273,-1.5524,-1.571,-1.5464,-1.5387,-1.5622,-1.5413,-1.5328,-1.5551,-1.5784,0.0,0.0,0.0,0.0,0.0,0.0,0.0,0.0,0.0,0.0,0.0,0.0,0.0,0.0,0.0,0.0,0.0,0.0,0.0,0.0,0.0,0.0,0.0,0.0,0.0,0.0,0.0,0.0,0.0,0.0,0.0,0.0,0.0,0.0,0.0,0.0,0.0,0.0,0.0,0.0,0.0,0.0,0.0,0.0,0.0,0.0,0.0,0.0,0.0,0.0,0.0,0.0,0.0,0.0,0.0,0.0,0.0,0.0,0.0,0.0,0.0,0.0,0.0,0.0,0.0,0.0,0.0,0.0,0.0,0.0,0.0,0.0,0.0,0.0,0.0,0.0,0.0,0.0,0.0,0.0,0.0,0.0,0.0,0.0,0.0,0.0,0.0,0.0,0.0,0.0,0.0,0.0,0.0,0.0,0.0,0.0,0.0,0.0,0.0,0.0,0.0,0.0,-1.4787,-1.5082,-1.5227,-1.5146,-1.5133,-1.5319,-1.5219,-1.5224,-1.5433,-1.5683,0.0,0.0,0.0,0.0,0.0,0.0,0.0,0.0,0.0,0.0,0.0,0.0,0.0,0.0,0.0,0.0,0.0,0.0,0.0,0.0,0.0,0.0,0.0,0.0,0.0,0.0,0.0,0.0,0.0,0.0,0.0,0.0,0.0,0.0,0.0,0.0,0.0,0.0,0.0,0.0,0.0,0.0,0.0,0.0,0.0,0.0,0.0,0.0,0.0,0.0,0.0,0.0,0.0,0.0,0.0,0.0,0.0,0.0,0.0,0.0,0.0,0.0,0.0,0.0,0.0,0.0,0.0,0.0,0.0,0.0,0.0,0.0,0.0,0.0,0.0,0.0,0.0,0.0,0.0,0.0,0.0,0.0,0.0,0.0,0.0,0.0,0.0,0.0,0.0,0.0,0.0,0.0,0.0,0.0,0.0,0.0,0.0,0.0,0.0,0.0,0.0,0.0,-1.3415,-1.3655,-1.3905,-1.4133,-1.4341,-1.457,-1.4842,-1.5088,-1.5313,-1.5624,0.0,0.0,0.0,0.0,0.0,0.0,0.0,0.0,0.0,0.0,0.0,0.0,0.0,0.0,0.0,0.0,0.0,0.0,0.0,0.0,0.0,0.0,0.0,0.0,0.0,0.0,0.0,0.0,0.0,0.0,0.0,0.0,0.0,0.0,0.0,0.0,0.0,0.0,0.0,0.0,0.0,0.0,0.0,0.0,0.0,0.0,0.0,0.0,0.0,0.0,0.0,0.0,0.0,0.0,0.0,0.0,0.0,0.0,0.0,0.0,0.0,0.0,0.0,0.0,0.0,0.0,0.0,0.0,0.0,0.0,0.0,0.0,0.0,0.0,0.0,0.0,0.0,0.0,0.0,0.0,0.0,0.0,0.0,0.0,0.0,0.0,0.0,0.0,0.0,0.0,0.0,0.0,0.0,0.0,0.0,0.0,0.0,0.0,0.0,0.0,0.0,0.0,-1.3129,-1.3391,-1.3661,-1.3914,-1.4144,-1.4369,-1.4686,-1.4918,-1.5025,0.0,0.0,0.0,0.0,0.0,0.0,0.0,0.0,0.0,0.0,0.0,0.0,0.0,0.0,0.0,0.0,0.0,0.0,0.0,0.0,0.0,0.0,0.0,0.0,0.0,0.0,0.0,0.0,0.0,0.0,0.0,0.0,0.0,0.0,0.0,0.0,0.0,0.0,0.0,0.0,0.0,0.0,0.0,0.0,0.0,0.0,0.0,0.0,0.0,0.0,0.0,0.0,0.0,0.0,0.0,0.0,0.0,0.0,0.0,0.0,0.0,0.0,0.0,0.0,0.0,0.0,0.0,0.0,0.0,0.0,0.0,0.0,0.0,0.0,0.0,0.0,0.0,0.0,0.0,0.0,0.0,0.0,0.0,0.0,0.0,0.0,0.0,0.0,0.0,0.0,0.0,0.0,0.0,0.0,0.0,0.0,0.0,0.0,0.0,0.0,0.0,0.0,-1.2733,-1.299,-1.3267,-1.3547,-1.3782,-1.4013,-1.4268,-1.4332,-1.4438,-1.4574,0.0,0.0,0.0,0.0,0.0,0.0,0.0,0.0,0.0,0.0,0.0,0.0,0.0,0.0,0.0,0.0,0.0,0.0,0.0,0.0,0.0,0.0,0.0,0.0,0.0,0.0,0.0,0.0,0.0,0.0,0.0,0.0,0.0,0.0,0.0,0.0,0.0,0.0,0.0,0.0,0.0,0.0,0.0,0.0,0.0,0.0,0.0,0.0,0.0,0.0,0.0,0.0,0.0,0.0,0.0,0.0,0.0,0.0,0.0,0.0,0.0,0.0,0.0,0.0,0.0,0.0,0.0,0.0,0.0,0.0,0.0,0.0,0.0,0.0,0.0,0.0,0.0,0.0,0.0,0.0,0.0,0.0,0.0,0.0,0.0,0.0,0.0,0.0,0.0,0.0,0.0,0.0,0.0,0.0,0.0,0.0,0.0,0.0,0.0,0.0,0.0,0.0,-1.2686,-1.2932,-1.3198,-1.3459,-1.3674,-1.3921,-1.417,-1.3761,-1.3617,0.0,0.0,0.0,0.0,0.0,0.0,0.0,0.0,0.0,0.0,0.0,0.0,0.0,0.0,0.0,0.0,0.0,0.0,0.0,0.0,0.0,0.0,0.0,0.0,0.0,0.0,0.0,0.0,0.0,0.0,0.0,0.0,0.0,0.0,0.0,0.0,0.0,0.0,0.0,0.0,0.0,0.0,0.0,0.0,0.0,0.0,0.0,0.0,0.0,0.0,0.0,0.0,0.0,0.0,0.0,0.0,0.0,0.0,0.0,0.0,0.0,0.0,0.0,0.0,0.0,0.0,0.0,0.0,0.0,0.0,0.0,0.0,0.0,0.0,0.0,0.0,0.0,0.0,0.0,0.0,0.0,0.0,0.0,0.0,0.0,0.0,0.0,0.0,0.0,0.0,0.0,0.0,0.0,0.0,0.0,0.0,0.0,0.0,0.0,0.0,0.0,0.0,0.0,-1.3301,-1.3189,-1.3198,-1.3459,-1.3594,-1.3762,-1.3974,-1.365,-1.3465,-1.3525,0.0,0.0,0.0,0.0,0.0,0.0,0.0,0.0,0.0,0.0,0.0,0.0,0.0,0.0,0.0,0.0,0.0,0.0,0.0,0.0,0.0,0.0,0.0,0.0,0.0,0.0,0.0,0.0,0.0,0.0,0.0,0.0,0.0,0.0,0.0,0.0,0.0,0.0,0.0,0.0,0.0,0.0,0.0,0.0,0.0,0.0,0.0,0.0,0.0,0.0,0.0,0.0,0.0,0.0,0.0,0.0,0.0,0.0,0.0,0.0,0.0,0.0,0.0,0.0,0.0,0.0,0.0,0.0,0.0,0.0,0.0,0.0,0.0,0.0,0.0,0.0,0.0,0.0,0.0,0.0,0.0,0.0,0.0,0.0,0.0,0.0,0.0,0.0,0.0,0.0,0.0,0.0,0.0,0.0,0.0,0.0,0.0,0.0,0.0,0.0,0.0,0.0,-1.3592,-1.3531,-1.3458,-1.3506,-1.3547,-1.3591,-1.3545,-1.3147,-1.2826,-1.2642,0.0,0.0,0.0,0.0,0.0,0.0,0.0,0.0,0.0,0.0,0.0,0.0,0.0,0.0,0.0,0.0,0.0,0.0,0.0,0.0,0.0,0.0,0.0,0.0,0.0,0.0,0.0,0.0,0.0,0.0,0.0,0.0,0.0,0.0,0.0,0.0,0.0,0.0,0.0,0.0,0.0,0.0,0.0,0.0,0.0,0.0,0.0,0.0,0.0,0.0,0.0,0.0,0.0,0.0,0.0,0.0,0.0,0.0,0.0,0.0,0.0,0.0,0.0,0.0,0.0,0.0,0.0,0.0,0.0,0.0,0.0,0.0,0.0,0.0,0.0,0.0,0.0,0.0,0.0,0.0,0.0,0.0,0.0,0.0,0.0,0.0,0.0,0.0,0.0,0.0,0.0,0.0,0.0,0.0,0.0,0.0,0.0,0.0,0.0,0.0,0.0,0.0,-1.3812,-1.3939,-1.3894,-1.3621,-1.362,-1.3448,-1.3032,-1.2453,-1.193,-1.1509,0.0,0.0,0.0,0.0,0.0,0.0,0.0,0.0,0.0,0.0,0.0,0.0,0.0,0.0,0.0,0.0,0.0,0.0,0.0,0.0,0.0,0.0,0.0,0.0,0.0,0.0,0.0,0.0,0.0,0.0,0.0,0.0,0.0,0.0,0.0,0.0,0.0,0.0,0.0,0.0,0.0,0.0,0.0,0.0,0.0,0.0,0.0,0.0,0.0,0.0,0.0,0.0,0.0,0.0,0.0,0.0,0.0,0.0,0.0,0.0,-1.8949,-1.8587,0.0,0.0,0.0,0.0,0.0,0.0,0.0,0.0,0.0,0.0,0.0,0.0,0.0,0.0,0.0,0.0,0.0,0.0,0.0,0.0,0.0,0.0,0.0,0.0,0.0,0.0,0.0,0.0,0.0,0.0,0.0,0.0,0.0,0.0,0.0,0.0,0.0,0.0,0.0,0.0,-1.5234,-1.4614,-1.4179,-1.4291,-1.3852,-1.3415,-1.297,-1.2423,-1.1874,-1.1375,-1.0843,0.0,0.0,0.0,0.0,0.0,0.0,0.0,0.0,0.0,0.0,0.0,0.0,0.0,0.0,0.0,0.0,0.0,0.0,0.0,0.0,0.0,0.0,0.0,0.0,0.0,0.0,0.0,0.0,0.0,0.0,0.0,0.0,0.0,0.0,0.0,0.0,0.0,0.0,0.0,0.0,0.0,0.0,0.0,0.0,0.0,0.0,0.0,0.0,0.0,0.0,0.0,0.0,0.0,0.0,0.0,0.0,0.0,0.0,0.0,-1.9655,-1.9537,0.0,0.0,0.0,0.0,0.0,0.0,0.0,0.0,0.0,0.0,0.0,0.0,0.0,0.0,0.0,0.0,0.0,0.0,0.0,0.0,0.0,0.0,0.0,0.0,0.0,0.0,0.0,0.0,0.0,0.0,0.0,0.0,0.0,0.0,0.0,0.0,0.0,0.0,0.0,0.0,-1.569,-1.512,-1.4683,-1.4534,-1.4012,-1.3461,-1.2938,-1.2393,-1.1817,-1.1294,-1.0741,0.0,0.0,0.0,0.0,0.0,0.0,0.0,0.0,0.0,0.0,0.0,0.0,0.0,0.0,0.0,0.0,0.0,0.0,0.0,0.0,0.0,0.0,0.0,0.0,0.0,0.0,0.0,0.0,0.0,0.0,0.0,0.0,0.0,0.0,0.0,0.0,0.0,0.0,0.0,0.0,0.0,0.0,0.0,0.0,0.0,0.0,0.0,0.0,0.0,0.0,0.0,0.0,0.0,-1.9502,-1.9594,-1.964,-1.9867,-1.9944,-1.9989,-2.0257,-2.0323,-2.0173,-1.9628,0.0,0.0,0.0,0.0,0.0,0.0,0.0,0.0,0.0,0.0,0.0,0.0,0.0,0.0,0.0,0.0,0.0,0.0,0.0,0.0,0.0,0.0,-1.5499,-1.5727,-1.5569,-1.5139,-1.4376,0.0,0.0,0.0,0.0,0.0,0.0,0.0,0.0,0.0,0.0,0.0,-1.5948,-1.5644,-1.5284,-1.4774,-1.4284,-1.369,-1.2983,-1.2455,-1.1916,-1.137,-1.0847,-1.0544,0.0,0.0,0.0,0.0,0.0,0.0,0.0,0.0,0.0,0.0,0.0,0.0,0.0,0.0,0.0,0.0,0.0,0.0,0.0,0.0,0.0,0.0,0.0,0.0,0.0,0.0,0.0,0.0,0.0,0.0,0.0,0.0,-1.6184,-1.6561,0.0,0.0,0.0,0.0,0.0,0.0,0.0,0.0,0.0,0.0,0.0,0.0,0.0,-1.9354,-1.9495,-1.9851,-2.0052,-2.0065,-2.0302,-2.0437,-2.0437,-2.0584,-2.0669,-2.0669,-2.0718,0.0,-1.9867,-1.9653,0.0,0.0,0.0,0.0,0.0,0.0,0.0,0.0,0.0,0.0,0.0,0.0,0.0,0.0,0.0,0.0,0.0,0.0,0.0,0.0,0.0,0.0,-1.5585,-1.5599,-1.5414,-1.5174,-1.5059,-1.4924,-1.4811,-1.4945,-1.5099,-1.5303,0.0,0.0,0.0,0.0,0.0,0.0,-1.6837,-1.6423,-1.6009,-1.5657,-1.5039,-1.4211,-1.3071,-1.2839,-1.2533,-1.1929,-1.1383,-1.1096,-1.1096,-1.0663,0.0,0.0,0.0,0.0,0.0,0.0,0.0,0.0,0.0,0.0,0.0,0.0,0.0,0.0,0.0,0.0,0.0,0.0,0.0,0.0,0.0,0.0,0.0,0.0,0.0,0.0,0.0,0.0,0.0,-1.5488,-1.5953,-1.6126,-1.6777,-1.7334,0.0,0.0,0.0,0.0,0.0,0.0,0.0,0.0,0.0,-1.7996,-1.8484,-1.8881,-1.904,-1.9344,-1.9617,-1.9772,-1.9965,-2.0067,-2.0156,-2.0295,-2.0346,-2.0346,-2.0346,-2.0161,-1.9874,-1.9713,-1.9675,-1.9628,0.0,0.0,0.0,0.0,-1.9733,-1.9538,-1.9477,-1.9065,-1.8618,-1.8314,0.0,0.0,0.0,0.0,0.0,0.0,0.0,-1.5653,-1.5826,-1.5742,-1.57,-1.5974,-1.5873,-1.5708,-1.5708,-1.5763,-1.5662,-1.5279,-1.5392,-1.5661,-1.6109,-1.6573,0.0,0.0,0.0,-1.7498,-1.7605,-1.6965,-1.6467,-1.6317,-1.5429,-1.4637,-1.4073,-1.3361,-1.2843,-1.2533,-1.1984,-1.1657,-1.1657,-1.1422,-1.1409,0.0,0.0,0.0,0.0,0.0,0.0,0.0,0.0,0.0,0.0,0.0,0.0,0.0,0.0,0.0,0.0,0.0,0.0,0.0,0.0,0.0,0.0,0.0,0.0,0.0,0.0,0.0,0.0,-1.5044,-1.5588,-1.5588,-1.6385,-1.6965,0.0,0.0,0.0,0.0,0.0,0.0,-1.719,-1.7368,-1.7479,-1.7634,-1.7897,-1.8116,-1.8344,-1.8667,-1.8934,-1.921,-1.9356,-1.946,-1.9592,-1.9747,-1.9786,-1.9786,-1.9786,-1.9786,-1.9812,-1.9746,-1.969,-1.9641,-1.9543,-1.9494,-1.9445,-1.9813,-1.9759,-1.9552,-1.9488,-1.901,-1.8374,-1.8116,-1.7557,-1.69,-1.6384,0.0,0.0,0.0,0.0,-1.5606,-1.5966,-1.5862,-1.5772,-1.6177,-1.6192,-1.6114,-1.6114,-1.6249,-1.6223,-1.5732,-1.5807,-1.6134,-1.6643,-1.7116,0.0,-1.7958,-1.8075,-1.8132,-1.8127,-1.7593,-1.7063,-1.6808,-1.5795,-1.5079,-1.4897,-1.3861,-1.3216,-1.3153,-1.2572,-1.2229,-1.2229,-1.2056,-1.2027,-1.2122,0.0,0.0,0.0,0.0,0.0,0.0,0.0,0.0,0.0,0.0,0.0,0.0,0.0,0.0,0.0,0.0,0.0,0.0,0.0,0.0,0.0,0.0,0.0,0.0,0.0,0.0,0.0,0.0,0.0,-1.5049,-1.5794,0.0,0.0,0.0,0.0,-1.6353,-1.6353,-1.6353,-1.6353,-1.6581,-1.6751,-1.6864,-1.7134,-1.7412,-1.7767,-1.8007,-1.8321,-1.8614,-1.8798,-1.8893,-1.904,-1.9186,-1.9226,-1.9226,-1.9226,-1.9226,-1.9279,-1.9619,-1.9709,-1.9619,-1.9619,-1.9463,-1.9202,-1.9226,-1.9093,-1.8839,-1.8721,-1.8483,-1.8244,-1.7831,-1.6994,-1.6031,-1.5541,-1.5195,0.0,0.0,-1.517,-1.541,-1.543,-1.5654,-1.5884,-1.5914,-1.6009,-1.6114,-1.6114,-1.6249,-1.6477,-1.6698,-1.6834,-1.7102,-1.772,0.0,-1.8536,-1.8545,-1.8981,-1.9055,-1.828,-1.8369,-1.8124,-1.7083,-1.6305,-1.5627,-1.5138,-1.4339,-1.3835,-1.3835,-1.3205,-1.2834,-1.2834,-1.2234,-1.2161,-1.2729,-1.2507,0.0,0.0,0.0,0.0,0.0,0.0,0.0,0.0,0.0,0.0,0.0,0.0,0.0,0.0,0.0,0.0,0.0,0.0,0.0,0.0,0.0,0.0,0.0,0.0,0.0,0.0,0.0,0.0,-1.4566,-1.5154,0.0,-1.5874,-1.5689,-1.5638,-1.5884,-1.5904,-1.5904,-1.5904,-1.6056,-1.6228,-1.6343,-1.6524,-1.6807,-1.7099,-1.719,-1.7523,-1.803,-1.8096,-1.8193,-1.841,-1.8452,-1.8506,-1.8506,-1.8506,-1.8506,-1.8506,-1.8667,-1.8881,-1.9105,-1.8987,-1.8815,-1.8602,-1.8506,-1.829,-1.8096,-1.803,-1.7865,-1.759,-1.7267,-1.6634,-1.6073,-1.5852,-1.57,-1.5543,-1.5543,-1.5654,-1.5719,-1.5719,-1.5736,-1.5798,-1.5798,-1.5846,-1.5961,-1.5961,-1.6249,-1.6591,-1.6751,-1.6976,-1.7301,-1.7909,-1.8506,-1.8967,-1.9292,-1.9519,-1.9439,-1.8985,-1.8779,-1.841,-1.7651,-1.6989,-1.6504,-1.6214,-1.5194,-1.4531,-1.4475,-1.3854,-1.3461,-1.3461,-1.3155,-1.3078,-1.3264,-1.3044,-1.293,0.0,0.0,0.0,0.0,0.0,0.0,0.0,0.0,0.0,0.0,0.0,0.0,0.0,0.0,0.0,0.0,0.0,0.0,0.0,0.0,0.0,0.0,0.0,0.0,0.0,-1.3771,-1.4178,-1.4031,-1.4459,-1.4844,-1.5094,-1.4985,-1.4968,-1.5262,-1.5361,-1.5439,-1.5439,-1.5546,-1.571,-1.5884,-1.5941,-1.6171,-1.6581,-1.6581,-1.6864,-1.7379,-1.7379,-1.7534,-1.781,-1.7865,-1.792,-1.792,-1.792,-1.7986,-1.7975,-1.792,-1.803,-1.8313,-1.8302,-1.8182,-1.8007,-1.7865,-1.7645,-1.7468,-1.7368,-1.7211,-1.6941,-1.6637,-1.6296,-1.5951,-1.5951,-1.5836,-1.573,-1.573,-1.573,-1.573,-1.573,-1.5672,-1.5614,-1.5672,-1.5798,-1.5914,-1.5961,-1.6296,-1.6637,-1.6751,-1.7088,-1.7468,-1.803,-1.8614,-1.9198,-1.9695,-1.9937,-1.9821,-1.9349,-1.9189,-1.8777,-1.7977,-1.7353,-1.6948,-1.6896,-1.5831,-1.5083,-1.4862,-1.434,-1.3971,-1.3801,-1.3661,-1.3547,-1.348,-1.3408,-1.3276,-1.3105,0.0,0.0,0.0,0.0,0.0,0.0,0.0,0.0,0.0,0.0,0.0,0.0,0.0,0.0,0.0,0.0,0.0,0.0,0.0,0.0,0.0,0.0,0.0,-1.3085,-1.3342,-1.3506,-1.3506,-1.3772,-1.397,-1.399,-1.421,-1.4411,-1.4421,-1.4801,-1.497,-1.497,-1.497,-1.5137,-1.5362,-1.541,-1.5584,-1.6056,-1.6056,-1.6285,-1.6751,-1.6751,-1.692,-1.719,-1.7357,-1.7468,-1.7468,-1.7601,-1.7656,-1.7656,-1.7534,-1.7423,-1.7334,-1.7601,-1.759,-1.7468,-1.7323,-1.7145,-1.6955,-1.6684,-1.6477,-1.6374,-1.6181,-1.5894,-1.5672,-1.5672,-1.5546,-1.541,-1.541,-1.541,-1.541,-1.541,-1.541,-1.5478,-1.5672,-1.5798,-1.5972,-1.6066,-1.6343,-1.6637,-1.6807,-1.72,-1.7634,-1.803,-1.8614,-1.9198,-1.9695,-2.0258,0.0,-1.9402,-1.9553,-1.9225,-1.8018,-1.7366,-1.7027,-1.7027,-1.6308,-1.5571,-1.4999,-1.4756,-1.4389,-1.3866,-1.3646,-1.3544,-1.3544,-1.3581,-1.3643,-1.3703,0.0,0.0,0.0,0.0,0.0,0.0,0.0,0.0,0.0,0.0,0.0,0.0,0.0,0.0,0.0,0.0,0.0,0.0,0.0,0.0,0.0,-1.3184,-1.3282,-1.2978,-1.3292,-1.3455,-1.3352,-1.3459,-1.359,-1.3888,-1.4042,-1.4244,-1.4542,-1.4849,-1.497,-1.497,-1.4843,-1.4893,-1.5079,-1.5088,-1.5254,-1.5584,-1.5584,-1.5826,-1.6285,-1.6285,-1.6457,-1.674,-1.6797,-1.692,-1.6976,-1.7032,-1.7043,-1.7043,-1.7032,-1.6976,-1.6931,-1.7134,-1.7134,-1.6976,-1.6931,-1.6761,-1.6534,-1.6192,-1.6019,-1.5904,-1.5846,-1.5614,-1.5332,-1.5332,-1.5205,-1.5147,-1.5205,-1.5264,-1.5254,-1.5362,-1.5536,-1.5614,-1.5672,-1.5894,-1.6124,-1.6249,-1.6534,-1.6818,-1.7099,-1.7434,-1.7755,-1.803,-1.8614,-1.9198,-1.9695,-2.0156,-2.0169,-1.9402,-1.9436,-1.9125,-1.8004,-1.7733,-1.7598,-1.7518,-1.6862,-1.6332,-1.607,-1.5548,-1.5136,-1.4896,-1.4809,-1.4587,-1.4287,-1.4089,-1.3867,0.0,0.0,0.0,0.0,0.0,0.0,0.0,0.0,0.0,0.0,0.0,0.0,0.0,0.0,0.0,0.0,0.0,0.0,0.0,0.0,0.0,0.0,-1.3407,-1.3578,-1.3336,-1.3406,-1.3455,-1.3404,-1.3198,-1.3138,-1.3378,-1.3662,-1.3968,-1.4208,-1.4687,-1.497,-1.497,-1.4834,-1.4775,-1.497,-1.4911,-1.502,-1.5254,-1.5254,-1.542,-1.5826,-1.5826,-1.5999,-1.6306,-1.6343,-1.6457,-1.6524,-1.6581,-1.6581,-1.6581,-1.6524,-1.6524,-1.6524,0.0,0.0,0.0,0.0,-1.6316,-1.6144,-1.5914,-1.5798,-1.5672,-1.5604,-1.5381,-1.5215,-1.5215,-1.5156,-1.5098,-1.5156,-1.5264,-1.5313,-1.5488,-1.5604,-1.573,-1.5836,-1.6066,-1.6239,-1.642,-1.6694,-1.6976,-1.7278,-1.7501,0.0,-1.8139,-1.8679,-1.9146,-1.9656,-2.0118,-2.007,-1.9232,-1.9346,-1.9068,-1.7936,-1.7801,-1.776,-1.772,-1.725,0.0,0.0,0.0,-1.5595,-1.5121,-1.5044,0.0,0.0,0.0,-1.431,-1.4212,-1.4215,0.0,0.0,-1.3788,-1.385,0.0,0.0,0.0,0.0,0.0,0.0,0.0,0.0,0.0,0.0,0.0,0.0,0.0,0.0,0.0,0.0,-1.3685,-1.393,-1.3984,-1.3782,-1.3613,-1.3516,-1.3085,-1.2774,-1.2774,-1.3365,-1.38,-1.38,-1.4601,-1.5088,-1.5029,-1.4843,0.0,0.0,0.0,-1.4849,-1.5046,-1.5084,-1.5193,-1.543,-1.543,-1.5585,-1.5856,-1.6009,-1.6056,-1.6056,-1.6181,-1.6239,-1.6239,-1.6124,-1.6056,-1.6056,-1.6259,-1.6316,-1.6327,-1.5972,-1.5856,-1.5856,-1.574,0.0,0.0,-1.5478,-1.5313,-1.5156,-1.5156,-1.5156,-1.5156,-1.5156,-1.5254,-1.542,-1.5614,-1.573,-1.5788,-1.6066,-1.6306,-1.6488,-1.6637,-1.6853,-1.7078,-1.7323,-1.7545,-1.7865,-1.8367,-1.8732,-1.9146,-1.9565,-2.0067,-2.0021,-1.9047,-1.9211,-1.898,-1.78,-1.7679,0.0,-1.7638,-1.7474,-1.7098,-1.64,-1.6281,-1.5862,-1.5051,-1.4947,-1.4971,-1.5085,-1.4915,-1.4868,-1.4903,-1.4697,-1.4428,-1.4095,-1.4047,-1.4115,0.0,0.0,0.0,0.0,0.0,0.0,0.0,0.0,0.0,0.0,0.0,0.0,0.0,0.0,0.0,-1.305,-1.3608,-1.4157,-1.4436,-1.459,-1.4449,-1.3748,-1.3313,-1.3074,-1.3074,-1.3931,-1.445,-1.445,-1.511,-1.5488,-1.5303,-1.5196,-1.5088,-1.497,-1.5111,-1.5289,-1.5463,-1.567,-1.567,-1.5575,-1.5645,0.0,-1.5478,-1.5662,-1.5846,-1.5972,-1.5972,-1.5972,-1.5972,-1.5972,-1.5846,-1.5788,-1.5914,-1.5972,-1.5972,-1.5798,-1.574,-1.573,-1.5536,-1.5478,-1.5478,-1.541,-1.5254,-1.5039,-1.5039,-1.4911,0.0,-1.497,-1.5147,-1.5323,-1.5624,-1.5798,-1.5914,-1.6259,-1.6477,-1.6637,-1.6842,-1.7078,-1.7323,-1.7545,-1.7755,-1.8018,-1.8452,-1.8827,-1.9146,-1.9565,-1.9965,-1.9922,-1.9014,-1.9042,-1.876,-1.7649,-1.7529,-1.7488,-1.7323,-1.7253,-1.7118,-1.6806,-1.6583,-1.6351,-1.6166,-1.5825,-1.5627,-1.5636,-1.5227,-1.5005,-1.4903,-1.4605,-1.4497,-1.4546,-1.4328,-1.4221,0.0,0.0,0.0,0.0,0.0,0.0,0.0,0.0,0.0,0.0,0.0,-1.2564,-1.2564,0.0,-1.3061,-1.3234,-1.3865,-1.4408,-1.4639,-1.4865,-1.4859,-1.4423,-1.4122,-1.3993,-1.3993,-1.4705,-1.5147,-1.5147,-1.5624,-1.5884,-1.5768,-1.5546,-1.5381,-1.5196,-1.5229,-1.5378,-1.5586,-1.5607,-1.5607,-1.5586,-1.5647,-1.5549,-1.5313,-1.5488,-1.5604,-1.5662,-1.5556,-1.5566,-1.5566,-1.5508,-1.5381,-1.5391,-1.5439,-1.5556,-1.5662,-1.5546,-1.5546,-1.5546,-1.541,-1.541,-1.541,-1.5313,-1.5137,-1.497,-1.4902,-1.4843,-1.4843,-1.497,-1.5137,-1.5371,-1.573,-1.5856,-1.6029,-1.642,-1.6581,-1.6751,-1.6955,-1.719,-1.749,-1.7656,-1.781,-1.8061,-1.8506,-1.8786,-1.9052,-1.946,-1.9772,-1.9673,-1.8802,-1.8904,-1.8595,-1.7552,-1.7406,-1.7323,-1.7199,-1.6976,-1.682,-1.6693,-1.6491,-1.6275,-1.6175,-1.5913,-1.5703,-1.5424,-1.5244,-1.4971,-1.464,-1.466,-1.4623,-1.4474,-1.4676,-1.4734,0.0,0.0,0.0,0.0,0.0,0.0,0.0,-1.3285,-1.2867,-1.2744,-1.2683,-1.2683,-1.2683,-1.3033,-1.3329,-1.345,-1.3992,-1.4469,-1.4647,-1.4955,-1.5147,-1.5193,-1.4996,-1.4882,-1.4882,-1.5444,-1.5758,-1.5758,-1.6073,-1.6228,-1.6228,-1.6009,-1.5778,-1.5526,-1.5459,-1.5554,-1.5699,-1.5548,-1.5548,-1.5586,-1.5647,-1.5489,-1.5215,-1.5362,-1.541,-1.5362,-1.5205,-1.5156,-1.5156,-1.5039,-1.497,-1.497,-1.497,-1.5137,-1.5362,-1.5362,-1.5362,-1.541,-1.541,-1.541,-1.5362,-1.5264,-1.5098,-1.497,-1.4775,-1.4843,-1.497,-1.497,-1.5196,-1.5478,-1.5788,-1.5914,-1.6029,-1.6524,-1.6694,-1.6864,-1.7022,-1.7301,-1.759,-1.7656,-1.781,-1.8073,-1.8506,-1.8679,-1.8905,-1.9316,-1.9604,-1.9497,-1.8754,-1.8737,-1.8513,-1.7555,-1.7277,-1.7115,-1.7073,-1.6693,-1.6479,-1.6436,-1.6231,-1.6025,-1.5792,-1.5748,-1.5525,-1.5108,-1.5017,-1.4789,-1.4373,-1.4661,-1.4644,-1.4459,-1.4922,-1.5129,-1.6097,-1.5999,-1.5743,-1.5109,-1.4483,-1.3888,0.0,-1.2981,-1.256,-1.2428,-1.2243,-1.2182,-1.2305,-1.2552,-1.2858,-1.3268,-1.3761,-1.4181,-1.4647,-1.5216,-1.5708,-1.5928,-1.5494,-1.5174,-1.5174,-1.5711,-1.6051,-1.6051,-1.6486,-1.6694,-1.657,-1.6513,-1.6343,-1.6056,-1.6217,-1.6217,-1.5962,-1.6196,-1.6071,-1.5586,-1.5708,-1.5549,-1.5215,-1.5362,-1.5362,-1.5205,-1.5098,-1.5029,-1.5029,-1.5039,-1.497,-1.497,-1.497,-1.5088,-1.5215,-1.5215,-1.5313,-1.541,-1.541,-1.541,-1.5362,-1.5264,-1.5098,-1.497,-1.4775,-1.4843,-1.497,-1.497,-1.5196,-1.5478,-1.5788,-1.5914,-1.6029,-1.6648,-1.6818,-1.6874,-1.7211,-1.749,-1.7656,-1.7711,-1.792,-1.8193,-1.856,-1.8614,-1.8774,-1.9316,-1.9604,-1.9636,-1.9192,-1.8853,-1.8395,-1.774,-1.7226,-1.6833,-1.6607,-1.6479,-1.6362,-1.6231,-1.5969,-1.5836,-1.5792,-1.5525,-1.5255,-1.5108,-1.48,-1.4569,-1.4373,-1.438,-1.4572,-1.4935,-1.5008,-1.5018,-1.6042,-1.5705,-1.5254,-1.4666,-1.407,-1.3571,-1.3484,-1.2971,-1.26,-1.2737,-1.2493,-1.2228,-1.2284,-1.2445,-1.2683,-1.2981,-1.3528,-1.4061,-1.4538,-1.5128,-1.5652,-1.6056,-1.6213,-1.631,-1.6439,-1.6721,-1.695,-1.7016,-1.7136,-1.719,-1.7134,-1.7032,-1.6864,-1.6524,-1.6597,-1.6591,-1.6497,-1.6434,-1.625,-1.5882,-1.5892,-1.5679,-1.5215,-1.5362,-1.5303,-1.5088,-1.4902,-1.4784,-1.4684,-1.4684,-1.4684,-1.4684,-1.4684,-1.4793,-1.4902,-1.5156,-1.5254,-1.541,-1.541,-1.5362,-1.5254,-1.5156,-1.497,-1.4784,-1.4606,-1.4725,-1.4843,-1.497,-1.5147,-1.5381,-1.5798,-1.5914,-1.6029,-1.6648,-1.6818,-1.6874,-1.7222,-1.7434,-1.759,-1.7656,-1.7865,-1.8127,-1.8506,-1.8614,-1.8774,-1.9223,-1.9473,-1.9469,-1.9231,-1.8783,-1.8096,-1.7093,-1.6789,-1.6565,-1.6362,-1.6219,-1.6088,-1.5981,-1.5848,-1.5659,-1.5537,-1.53,-1.5119,-1.4949,-1.4616,-1.4384,-1.4161,-1.4555,-1.4707,-1.4702,-1.5068,-1.5213,-1.5807,-1.5332,-1.4852,-1.4309,-1.37,-1.33,-1.3424,-1.294,-1.2588,-1.2937,-1.26,-1.223,-1.2303,-1.2413,-1.256,-1.2744,-1.3346,-1.3881,-1.441,-1.5059,-1.5642,-1.6171,-1.674,-1.72,-1.749,-1.759,-1.7634,-1.7755,-1.77,-1.77,-1.77,-1.759,-1.7379,-1.7043,-1.7032,-1.6977,-1.6781,-1.6614,-1.6367,-1.6128,-1.5958,-1.5683,-1.5332,-1.5313,-1.5196,-1.498,-1.4725,-1.4556,-1.4455,-1.4455,-1.4455,-1.4455,-1.4455,-1.4556,-1.4715,-1.4961,-1.5196,-1.5362,-1.5362,-1.5254,-1.5156,-1.497,-1.4843,-1.4656,-1.4565,-1.4616,-1.4715,-1.497,-1.5098,-1.5332,-1.5798,-1.5914,-1.6029,-1.6591,-1.6751,-1.6874,-1.7155,-1.7368,-1.7534,-1.7645,-1.781,-1.8018,-1.8464,-1.856,-1.8721,-1.9064,-1.9275,-1.9337,-1.9334,-1.8715,-1.7861,-1.6773,-1.6523,-1.6349,-1.6144,-1.6001,-1.5913,-1.5792,-1.5671,-1.5492,-1.5255,-1.5108,-1.4926,-1.4673,-1.4477,-1.4262,-1.4068,-1.4614,-1.4742,-1.4552,-1.5078,-1.5254,-1.5263,-1.5098,-1.4852,-1.4189,-1.364,-1.3247,-1.3052,-1.2747,-1.2588,-1.2796,-1.2395,-1.2101,-1.2238,-1.2223,-1.2251,-1.2744,-1.3216,-1.3752,-1.441,-1.5118,-1.5826,-1.6524,-1.6987,-1.749,-1.803,-1.7963,-1.7909,-1.7909,-1.803,-1.8084,-1.8084,-1.8084,-1.792,-1.7656,-1.7656,-1.7379,-1.6839,-1.6648,-1.642,-1.6077,-1.5808,-1.5692,-1.5682,-1.5205,-1.5029,-1.497,-1.4625,-1.4446,-1.4336,-1.4336,-1.4336,-1.4336,-1.4336,-1.4497,-1.4715,-1.4715,-1.4902,-1.5215,-1.5215,-1.5215,-1.5156,-1.4834,-1.4715,-1.4656,-1.4565,-1.4616,-1.4715,-1.497,-1.5098,-1.5332,-1.5798,-1.5914,-1.6029,-1.6467,-1.6694,-1.6864,-1.6955,-1.7301,-1.7534,-1.7645,-1.781,-1.8018,-1.8367,-1.8518,-1.8667,-1.8999,-1.9117,-1.9316,-1.954,-1.8647,-1.7778,-1.7082,-1.6507,-1.6144,-1.6044,-1.5869,-1.5792,-1.5715,-1.5447,-1.5255,-1.5108,-1.496,-1.4731,-1.443,-1.428,-1.4212,-1.4283,-1.4449,-1.4572,-1.47,-1.5052,-1.5029,-1.4845,-1.4535,-1.4139,-1.3939,-1.3467,-1.3137,-1.3363,-1.3096,-1.2916,-1.3412,-1.2876,-1.2358,-1.2565,-1.2439,-1.2367,-1.2867,-1.3467,-1.4061,-1.4725,-1.5478,-1.6114,-1.6694,-1.7301,-1.781,-1.8084,-1.8084,-1.8127,-1.8344,-1.8398,-1.8452,-1.8452,-1.8452,-1.8302,-1.7975,-1.7986,-1.77,-1.7166,-1.7099,-1.6818,-1.6306,-1.5904,-1.5672,-1.5672,-1.5205,-1.497,-1.497,-1.4565,-1.4327,-1.4267,-1.4139,-1.4079,-1.4079,-1.4079,-1.4258,-1.4437,-1.4538,-1.4715,-1.4902,-1.5029,-1.497,-1.4834,-1.4715,-1.4666,-1.4556,-1.4506,-1.4506,-1.4616,-1.4784,-1.4911,-1.5147,-1.5488,-1.573,-1.5972,-1.6374,-1.6648,-1.6864,-1.6955,-1.719,-1.7434,-1.7656,-1.7755,-1.792,-1.8313,-1.8422,-1.8518,-1.8721,-1.9105,-1.9245,-1.898,-1.8302,-1.7589,-1.6956,-1.6374,-1.6001,-1.5836,-1.5748,-1.5671,-1.5447,-1.5255,-1.5108,-1.496,-1.4686,-1.4512,-1.4373,-1.3999,-1.3983,-1.4304,-1.4355,-1.4464,-1.4719,-1.4946,-1.4961,-1.4291,-1.3979,-1.3669,-1.3605,-1.3224,-1.2897,-1.316,-1.3048,-1.3051,-1.3349,-1.3026,-1.2624,-1.278,-1.2623,-1.2613,-1.3094,-1.3761,-1.4419,-1.5079,-1.5826,-1.6457,-1.6976,-1.7579,-1.8073,-1.8313,-1.841,-1.8518,-1.8721,-1.8827,-1.8881,-1.8839,-1.8786,-1.8679,-1.8302,-1.8302,-1.803,-1.7445,-1.7379,-1.6987,-1.6306,-1.5972,-1.5672,-1.5498,-1.5147,-1.497,-1.4843,-1.4446,-1.4267,-1.4198,-1.401,-1.395,-1.395,-1.395,-1.401,-1.4198,-1.43,-1.4359,-1.4478,-1.4784,-1.4834,-1.4647,-1.4597,-1.4497,-1.4455,-1.4455,-1.4455,-1.4446,-1.4656,-1.4843,-1.5088,-1.5362,-1.5662,-1.5972,-1.6249,-1.6649,-1.7041,-1.7145,-1.7535,-1.784,-1.7947,-1.7958,-1.8013,-1.8228,-1.8367,-1.8476,-1.856,-1.8881,-1.8972,-1.8633,-1.8188,-1.7593,-1.6943,-1.638,-1.5939,-1.5626,-1.5582,-1.5435,-1.5255,-1.5108,-1.4915,-1.4731,-1.4512,-1.4326,-1.414,-1.3763,-1.3823,-1.4297,-1.4268,-1.4434,-1.4782,-1.4896,-1.4784,-1.3613,-1.3478,-1.3353,-1.3271,-1.2903,-1.2593,-1.2477,-1.2608,-1.2781,-1.2796,-1.2788,-1.281,-1.2817,-1.279,-1.2981,-1.345,-1.4112,-1.4765,-1.5352,-1.6171,-1.6853,-1.7468,-1.7865,-1.8313,-1.878,-1.8994,-1.9047,-1.9071,-1.93,-1.9328,-1.9235,-1.9182,-1.9011,-1.8614,-1.856,-1.829,-1.7711,-1.7557,-1.7054,-1.6144,-1.6022,-1.5751,-1.5282,-1.5136,-1.493,-1.4684,-1.4446,-1.4207,-1.401,-1.389,-1.3769,-1.3769,-1.3769,-1.389,-1.401,-1.401,-1.401,-1.407,-1.4538,-1.4647,-1.4597,-1.4378,-1.4267,-1.4267,-1.4267,-1.4267,-1.4327,-1.4597,-1.4843,-1.5088,-1.5303,-1.5662,-1.5914,-1.6087,-1.6811,-1.7488,-1.7509,-1.811,-1.8605,-1.8483,-1.8428,-1.8317,-1.8121,-1.8259,-1.841,-1.856,-1.856,-1.856,-1.8614,-1.823,-1.7721,-1.7114,-1.6525,-1.5998,-1.5551,-1.5357,-1.521,-1.5108,-1.496,-1.4731,-1.4419,-1.4384,-1.414,-1.361,-1.3594,-1.385,-1.4301,-1.416,-1.4443,-1.497,-1.4784,-1.4547,-1.3227,-1.3112,-1.2902,-1.2772,-1.2663,-1.2593,-1.2421,-1.237,-1.2504,-1.2751,-1.2602,-1.253,-1.2899,-1.3094,-1.339,-1.3914,-1.4697,-1.54,-1.5968,-1.6775,-1.7412,-1.7744,-1.8302,-1.8844,-1.9345,-1.96,-1.9934,-2.0322,-1.9672,-1.9223,-1.9182,-1.9011,-1.8798,-1.8614,-1.8344,-1.803,-1.7711,-1.756,-1.727,-1.6752,-1.686,-1.6654,-1.6272,-1.5699,-1.5364,-1.5111,-1.4574,-1.4207,-1.401,-1.389,-1.37,-1.3571,-1.3571,-1.37,-1.383,-1.383,-1.389,-1.401,-1.413,-1.4189,-1.4189,-1.407,-1.407,-1.4079,-1.4267,-1.4267,-1.4327,-1.4506,-1.4803,-1.5029,-1.5088,-1.5498,-1.5994,-1.6355,-1.6943,-1.7476,-1.7935,-1.8237,-1.8533,-1.8714,-1.8628,-1.8442,-1.8176,-1.8073,-1.8018,-1.8073,-1.7963,-1.8084,-1.856,-1.8166,-1.78,-1.7608,-1.6736,-1.615,-1.5975,-1.5475,-1.5108,-1.496,-1.4789,-1.4569,-1.443,-1.4197,-1.3962,-1.3621,-1.3777,-1.3911,-1.4141,-1.4344,-1.4554,-1.4656,-1.4597,-1.43,-1.2716,-1.2538,-1.238,-1.2282,-1.2229,-1.2111,-1.2049,-1.2069,-1.2123,-1.2225,-1.2397,-1.2644,-1.294,-1.3358,-1.3812,-1.451,-1.5225,-1.5931,-1.6539,-1.7364,-1.8014,-1.8293,-1.889,-1.9427,-1.9778,-2.0041,-2.0273,-2.0574,-2.02,-1.9818,-1.9468,-1.9294,-1.897,-1.841,-1.8193,-1.8022,-1.78,-1.7643,-1.7467,-1.7215,-1.7101,-1.6908,-1.6456,-1.6018,-1.5726,-1.5466,-1.4823,-1.452,-1.4371,-1.396,-1.37,-1.364,-1.3511,-1.3571,-1.37,-1.37,-1.37,-1.3761,-1.3761,-1.3761,-1.3821,-1.3881,-1.389,-1.395,-1.4139,-1.4139,-1.4198,-1.4455,-1.4743,-1.497,-1.497,-1.5517,-1.6138,-1.6547,-1.7205,-1.7945,-1.8383,-1.8794,-1.9014,-1.8907,-1.8717,-1.8385,-1.8011,-1.7865,-1.7799,-1.7744,-1.7645,-1.77,-1.7963,-1.7821,-1.7675,-1.7445,-1.6853,-1.639,-1.6173,-1.5597,-1.5197,-1.5009,-1.4879,-1.4701,-1.4462,-1.4422,-1.433,-1.4061,-1.4022,-1.4047,-1.4205,-1.4213,-1.4248,-1.43,-1.4112,-1.3821,-1.2198,-1.2027,-1.1874,-1.1876,-1.1715,-1.156,-1.156,-1.1652,-1.1704,-1.1619,-1.2168,-1.2727,-1.2985,-1.3528,-1.424,-1.5059,0.0,-1.6353,-1.6984,-1.7876,-1.8577,-1.8863,-1.9448,-1.9865,-2.0029,-2.0159,-2.0252,-2.0394,-2.0732,-2.0628,-1.9857,-1.9765,-1.9285,-1.8191,-1.818,-1.8036,-1.7889,-1.7829,-1.7688,-1.748,-1.7236,-1.6885,-1.6353,-1.6305,-1.6094,-1.5753,-1.5223,-1.4961,-1.4826,-1.4232,-1.3873,-1.383,-1.3631,-1.3511,-1.3511,-1.3511,-1.3511,-1.3511,-1.3511,-1.3511,-1.3511,-1.37,-1.3769,-1.383,-1.395,-1.401,-1.407,-1.4387,-1.4743,-1.498,-1.5037,-1.5671,-1.6336,-1.6628,-1.7553,-1.8456,-1.885,-1.9447,-1.9652,-1.8956,-1.8585,-1.8224,-1.7745,-1.7601,-1.759,-1.7468,-1.7412,-1.7301,-1.7134,-1.7423,-1.7477,-1.6966,-1.6866,-1.6655,-1.6254,-1.5764,-1.5388,-1.5203,-1.5094,-1.4956,-1.4558,-1.478,-1.4829,-1.4556,-1.4297,-1.4131,-1.4223,-1.3919,-1.3839,-1.3821,-1.3511,-1.3147,-1.1908,-1.1831,-1.176,-1.1306,-1.1368,-1.1498,-1.1247,-1.1227,0.0,-1.1575,-1.1792,-1.2189,-1.2875,-1.3528,-1.424,-1.5059,-1.5816,-1.6592,-1.7434,-1.8074,-1.8563,-1.8977,-1.9301,-1.9505,-1.9828,-1.9862,-2.0166,-2.0734,-2.0894,-2.0653,-1.9994,-1.9738,-1.9306,-1.8625,-1.8436,-1.8169,-1.7891,-1.8124,-1.8107,-1.7849,-1.8005,-1.7783,-1.7233,-1.6902,-1.6543,-1.6184,-1.5771,-1.5332,-1.4907,-1.4772,-1.4425,-1.395,-1.3821,-1.3769,-1.37,-1.3571,-1.3511,-1.3511,-1.3511,-1.3511,-1.3511,-1.3511,-1.364,-1.383,-1.395,-1.4139,-1.4267,-1.4446,-1.4616,-1.4859,-1.5387,-1.5834,-1.6363,-1.7209,-1.7819,-1.8291,-1.8934,-1.9344,-1.9393,-1.8639,-1.844,-1.8165,-1.7476,-1.7256,-1.7123,-1.7067,-1.6909,-1.674,-1.6684,-1.7099,-1.729,-1.7181,-1.6808,-1.6534,-1.6457,-1.5916,-1.5542,-1.5542,-1.5224,-1.5028,-1.4935,-1.4694,-1.446,-1.4184,-1.4217,-1.4092,-1.3693,-1.3803,-1.3511,-1.3017,-1.2781,-1.2359,-1.1427,-1.1354,-1.1349,-1.0887,-1.0965,-1.1066,-1.0877,0.0,0.0,-1.1059,-1.1428,-1.1988,-1.2605,-1.3338,-1.4181,-1.5059,-1.5889,-1.665,-1.7339,-1.8132,-1.8714,-1.8942,-1.9277,-1.9528,-1.9672,-1.9693,-1.9867,-2.0366,-2.0388,-2.0258,-2.0056,-1.9482,-1.8928,-1.8566,-1.8497,-1.8437,-1.8249,-1.8397,-1.837,-1.8238,-1.818,-1.793,-1.7579,-1.7378,-1.709,-1.6733,-1.6317,-1.5965,-1.5569,-1.5088,-1.4736,-1.4416,-1.4029,-1.389,-1.3769,-1.37,-1.3571,-1.3511,-1.3511,-1.3511,-1.3545,-1.375,-1.3951,-1.4145,-1.425,-1.4577,-1.4934,-1.5058,-1.5235,-1.5396,-1.5789,-1.6249,-1.6772,-1.7441,-1.8046,-1.8547,-1.8713,-1.8919,-1.8913,-1.807,-1.7948,-1.7723,-1.7038,-1.6853,-1.6729,-1.656,-1.6389,-1.6285,-1.6124,-1.6306,-1.6534,-1.6684,-1.6539,-1.6401,-1.6401,-1.5923,-1.5552,-1.5489,-1.5285,-1.5134,-1.5026,-1.4873,-1.4646,-1.4411,-1.4151,-1.3776,-1.3287,-1.3107,-1.265,-1.2035,-1.1725,-1.1281,-1.1038,-1.0973,-1.0935,-1.0632,-1.0585,-1.0575,-1.0571,-1.0591,0.0,-1.0728,-1.1263,-1.1844,-1.2406,-1.3083,-1.3907,0.0,-1.5701,-1.6467,-1.7083,-1.7905,-1.8446,-1.856,-1.8968,-1.9264,-1.9198,-1.9208,-1.9341,-1.9594,-1.9736,-1.9836,-2.0024,-1.9262,-1.8757,-1.8623,-1.867,-1.8731,-1.8731,-1.8634,-1.8549,-1.8482,-1.8212,-1.793,-1.7706,-1.7706,-1.7579,-1.7226,-1.6908,-1.6654,-1.6324,-1.5469,-1.5051,-1.487,-1.4291,-1.401,-1.389,-1.383,-1.37,-1.3571,-1.3511,-1.3511,-1.3571,-1.3973,-1.4227,-1.4496,-1.4693,-1.5115,-1.556,-1.5689,-1.5753,-1.59,-1.6241,-1.6645,-1.711,-1.7603,-1.8085,-1.8441,-1.8325,-1.8319,-1.8208,-1.7469,-1.7242,-1.7047,-1.6483,-1.6343,-1.6228,-1.5999,-1.5884,-1.5778,-1.5556,-1.5498,-1.5546,-1.5884,-1.6056,-1.6124,-1.6124,-1.5787,-1.5528,-1.5351,-1.5203,-1.5101,-1.4922,-1.4849,-1.4725,-1.4538,-1.3881,-1.3329,-1.2757,-1.2205,-1.1593,-1.0919,-1.0591,-1.0135,-1.1038,-1.1038,-1.1011,-1.0488,-1.0438,-1.0564,-1.043,0.0,-1.0558,-1.1222,-1.1269,-1.153,-1.2379,-1.268,-1.3239,-1.4382,-1.5038,-1.5813,-1.684,-1.7191,-1.7451,-1.7726,-1.8017,-1.8114,-1.791,-1.8066,-1.8269,-1.8576,-1.9065,-1.9528,-1.9868,-1.9498,-1.9225,-1.9225,-1.9125,-1.9069,-1.9069,-1.8854,-1.8674,-1.8482,-1.8347,-1.8056,-1.7706,-1.7706,-1.7657,-1.747,-1.7432,-1.7128,-1.6542,-1.6095,-1.5568,-1.5056,-1.4481,-1.4267,-1.4207,-1.3899,-1.3769,-1.3769,-1.3571,-1.3511,-1.3571,-1.3973,-1.4336,-1.4648,-1.5021,-1.5413,-1.5689,-1.5689,-1.5689,-1.5836,-1.6412,-1.6609,-1.6864,-1.7716,-1.7752,-1.7619,-1.7875,-1.7681,-1.7255,-1.6759,-1.6548,-1.6297,-1.5868,-1.5662,-1.5526,-1.5468,-1.5254,-1.5088,-1.5088,-1.4784,-1.4588,-1.4647,-1.5177,-1.5468,-1.5468,-1.5429,-1.5352,-1.5235,-1.508,-1.4904,-1.4718,-1.4341,-1.401,-1.389,-1.3199,-1.2581,-1.1888,-1.1274,-1.0521,-0.9646,-0.9314,-0.8796,-1.0956,-1.0777,-1.0583,-1.0228,-1.0079,-0.9982,-1.0073,0.0,-1.0074,-1.0617,-1.0853,-1.1175,-1.1988,-1.2343,-1.2871,-1.3851,0.0,0.0,-1.5963,-1.6401,-1.6747,-1.6991,-1.7079,-1.7157,-1.7235,-1.7373,-1.7794,-1.8327,-1.8741,-1.9142,-1.9539,-1.9417,-1.9274,-1.9208,-1.9142,-1.9075,-1.9075,-1.8875,-1.8741,-1.8674,-1.8482,-1.8337,-1.8202,-1.8124,-1.7998,-1.7803,-1.7657,-1.7357,-1.6878,-1.6235,-1.5807,-1.5395,-1.4693,-1.4387,-1.4267,-1.4019,-1.389,-1.3769,-1.3571,-1.3511,-1.3571,-1.3973,-1.4438,-1.4883,-1.5287,-1.5762,-1.6269,-1.6269,-1.6346,-1.6526,-1.6887,-1.6924,-1.7051,-1.7254,-1.7102,-1.69,-1.6689,-1.6507,-1.6253,-1.5811,-1.5664,-1.5497,-1.5156,-1.501,-1.4883,-1.4715,-1.4606,-1.4428,-1.4309,-1.4189,-1.4001,-1.3812,-1.4291,-1.4656,-1.4656,-1.4597,-1.4529,-1.4478,-1.4369,-1.4181,-1.3992,-1.3502,-1.3086,-1.272,-1.1958,-1.1267,-1.0584,-0.9824,-0.9058,-0.8415,-0.7962,-0.7507,-1.0726,-1.0492,-1.0241,-0.9995,-0.97,-0.955,0.0,0.0,-0.981,-1.0349,-1.0566,-1.0855,-1.1474,-1.182,-1.2255,0.0,0.0,-1.4478,-1.5007,-1.5521,-1.5895,-1.6044,-1.6263,-1.6412,-1.656,-1.6968,-1.751,-1.8134,-1.8607,-1.8942,-1.9285,-1.9351,-1.9341,-1.9142,-1.9142,-1.9142,-1.9075,-1.8942,-1.8875,-1.8808,-1.8684,-1.8549,-1.8482,-1.8414,-1.8269,-1.8076,-1.792,-1.7647,-1.7248,-1.6431,-1.5891,-1.5606,-1.4818,-1.4455,-1.4327,-1.4079,-1.395,-1.3821,-1.3571,-1.345,-1.3527,-1.3911,-1.4273,-1.4638,-1.5078,-1.5834,-1.6542,-1.6542,-1.6621,-1.6769,-1.689,-1.6798,-1.6711,-1.6578,-1.6252,-1.5845,-1.5523,-1.536,-1.5181,-1.4881,-1.4824,-1.4706,-1.441,-1.4291,-1.4172,-1.3872,-1.3761,-1.364,-1.3467,-1.3338,-1.3147,-1.2964,-1.3208,-1.3511,-1.3821,-1.3761,-1.37,-1.3649,-1.3528,-1.3338,-1.3147,-1.265,-1.2151,-1.1663,-1.0899,-1.0078,-0.9256,-0.8484,-0.7772,-0.7181,-0.6666,-0.6268,-1.0402,-1.0321,-1.0168,-0.9646,-0.9518,-0.9533,-0.9731,-0.9782,-0.999,-1.0627,-1.0607,-1.0497,-1.0851,-1.0981,-1.1303,-1.2234,-1.2713,0.0,-1.4148,-1.4489,-1.4713,-1.4864,-1.5443,-1.5797,-1.5797,-1.6621,-1.7451,-1.794,-1.8482,-1.8942,-1.9285,-1.9473,-1.9473,-1.9285,-1.9285,-1.9208,-1.9075,-1.9075,-1.9008,-1.8808,-1.8808,-1.8674,-1.8482,-1.8482,-1.8414,-1.8269,-1.8269,-1.8008,-1.7404,-1.6542,-1.6,-1.5606,-1.4818,-1.4515,-1.4455,-1.413,-1.401,-1.395,-1.3631,-1.3407,-1.3369,-1.3794,-1.3777,-1.3719,-1.4461,-1.5489,-1.6272,-1.6272,-1.6272,-1.6281,-1.6281,-1.5903,-1.5545,-1.5748,-1.5098,-1.4461,-1.4577,-1.4285,-1.401,-1.401,-1.389,-1.3761,-1.3571,-1.339,-1.3268,-1.307,-1.272,-1.2544,-1.2482,-1.2236,-1.2042,-1.1981,-1.1732,-1.1911,-1.2948,-1.3009,-1.2956,-1.2805,-1.2613,-1.2421,-1.2305,-1.1802,-1.1288,-1.0836,-1.0148,-0.9192,-0.8027,-0.7507,-0.6789,-0.5939,-0.5554,-0.516,-1.0101,-0.985,-0.9594,-0.9396,-0.9081,-0.8892,-0.9311,-0.9217,-0.9214,-0.9825,-0.9932,-0.9952,-1.0324,-1.0551,-1.0888,-1.1633,-1.2158,0.0,-1.347,-1.3855,-1.4217,-1.4641,-1.5221,-1.5718,-1.614,-1.663,-1.7245,-1.794,-1.8482,-1.9008,-1.9473,-1.9791,-1.9791,-1.9473,-1.9473,-1.9473,-1.9473,-1.9473,-1.9407,-1.9341,-1.9341,-1.9208,-1.9019,-1.8942,-1.8741,-1.8405,-1.8337,-1.8008,-1.7404,-1.6542,-1.6,-1.5606,-1.4818,-1.4515,-1.4455,-1.413,-1.401,-1.395,-1.3631,-1.3407,-1.3327,-1.3437,-1.3514,-1.3669,-1.4015,-1.4688,-1.5515,-1.5843,-1.58,-1.5609,-1.5463,-1.5036,-1.4545,-1.4366,-1.4,-1.3693,-1.3549,-1.3336,-1.3147,-1.2972,-1.285,-1.2666,-1.2413,-1.229,-1.2166,-1.1856,-1.1655,-1.1469,-1.1365,-1.1101,-1.0961,-1.0843,-1.0717,-1.1031,-1.1911,-1.1787,-1.1696,-1.186,-1.1607,-1.1459,-1.1353,-1.0769,-1.0142,-0.9372,-0.8544,-0.7707,-0.6728,-0.6071,-0.5345,-0.4622,-0.4492,-0.4295,0.0,-0.9344,-0.8952,-0.8882,-0.863,0.0,-0.8711,-0.8592,-0.8584,-0.9025,-0.912,-0.929,-0.9669,-0.9916,-1.0218,-1.0887,-1.1409,-1.2003,-1.2673,-1.3193,-1.3783,-1.4649,-1.515,-1.5709,-1.6342,-1.683,-1.7382,-1.8124,-1.8741,-1.9274,-1.9726,-2.0118,-2.0248,-2.0009,-1.9868,-1.9736,-1.9605,-1.9605,-1.9605,-1.9605,-1.9605,-1.9539,-1.9417,-1.9274,-1.8942,-1.8617,-1.8405,-1.8008,0.0,-1.6542,-1.6,-1.5606,-1.4818,-1.4515,-1.4455,-1.413,-1.401,-1.395,-1.3588,-1.3294,-1.318,-1.3058,-1.304,-1.3132,-1.3349,-1.4062,-1.4915,-1.528,-1.5088,-1.4745,-1.4522,-1.3945,-1.3314,-1.3043,-1.2702,-1.2421,-1.2259,-1.2151,-1.2035,-1.1864,-1.1732,-1.1538,-1.1163,-1.1101,-1.1038,-1.0667,-1.0395,-1.0199,-1.0155,-0.9888,-0.9697,-0.9633,-0.957,-0.974,-1.029,-1.0637,-1.0853,-1.1034,-1.0737,-1.0588,-1.0507,-0.9845,-0.9058,-0.8221,-0.7442,-0.6531,-0.555,-0.4755,-0.4092,-0.3627,-0.3627,-0.3558,0.0,-0.8635,-0.8382,-0.8172,-0.8172,-0.8098,-0.8063,-0.8044,0.0,-0.8297,-0.8318,-0.8458,-0.8869,-0.9074,-0.9468,-1.0067,-1.0513,-1.1037,-1.1855,-1.2526,-1.3411,-1.4721,-1.5292,-1.578,-1.6533,-1.7097,-1.7774,-1.8509,-1.9187,-1.9791,-2.0107,-2.0518,-2.0733,-2.0733,-2.0377,-1.9977,-1.9671,-1.9671,-1.9671,-1.9615,-1.9615,-1.9605,-1.9605,-1.9407,-1.9152,-1.8808,-1.8617,-1.8144,-1.7472,-1.6607,-1.6,-1.5615,-1.4818,-1.4506,-1.4455,-1.413,-1.401,-1.395,-1.3484,-1.3172,-1.292,-1.2683,-1.2413,-1.2297,-1.2632,-1.3585,-1.4466,-1.4489,-1.4159,-1.3731,-1.3515,-1.2669,-1.1912,-1.179,-1.1312,-1.0856,-1.0856,-1.073,-1.0674,-1.0674,-1.0471,-1.0262,-0.9888,-0.9888,-0.9767,-0.9384,-0.9058,-0.886,-0.886,-0.8549,-0.8361,-0.8361,-0.8231,-0.8194,-0.841,-0.9516,-1.0274,-1.0311,-1.0001,-0.9783,-0.9801,-0.8881,-0.8032,-0.7321,-0.6531,-0.5609,-0.4492,-0.3558,-0.3092,-0.2958,-0.2958,-0.2889,-0.7335,0.0,-0.7722,-0.7652,-0.7521,-0.7447,0.0,-0.7568,-0.7573,-0.7762,0.0,0.0,-0.8083,-0.852,-0.9008,-0.9473,-1.0143,-1.0887,-1.1632,-1.2826,-1.3855,-1.4569,-1.5275,-1.6053,-1.676,-1.7432,-1.8172,-1.8921,-1.9584,-2.0107,-2.0431,-2.0955,-2.1094,-2.0839,-2.0903,-2.0711,-2.0205,-2.0205,-2.014,-2.0009,-2.0009,-1.9944,-1.9802,-1.9605,-1.9341,-1.9008,-1.8684,-1.8279,-1.7813,-1.6821,-1.6211,-1.5817,-1.4981,-1.4616,-1.4455,-1.413,-1.401,-1.395,-1.3484,-1.3172,-1.2928,-1.2375,-1.2097,-1.1971,-1.208,-1.2727,-1.3383,-1.3491,-1.3004,-1.2362,-1.2088,-1.1281,-1.0437,-1.0315,-1.0002,-0.9691,-0.9691,-0.9442,-0.9186,-0.9186,-0.9058,-0.8865,-0.8538,-0.8474,-0.835,-0.7967,-0.7642,-0.7377,-0.7377,-0.7116,-0.6924,-0.7129,-0.7064,-0.7145,-0.7478,-0.8233,-0.8859,-0.9219,-0.8832,-0.8581,-0.8553,-0.7712,-0.6859,-0.6009,-0.4686,-0.3689,-0.3155,-0.269,-0.249,-0.2557,-0.2557,-0.2622,-0.6461,-0.6745,-0.7003,-0.7003,-0.6937,-0.6836,-0.6864,0.0,0.0,0.0,0.0,0.0,0.0,0.0,-0.847,-0.9084,-0.9765,-1.0663,-1.1929,-1.3185,-1.4137,-1.4776,-1.5559,-1.6333,-1.7166,-1.791,-1.8721,-1.9518,-2.0161,-2.0752,-2.1083,-2.1537,-2.1663,-2.1348,-2.1411,-2.1158,-2.054,-2.0475,-2.0346,-2.0216,-2.0151,-2.0074,-2.0009,-1.9813,-1.9539,-1.9208,-1.8875,-1.8472,-1.7959,-1.722,-1.6574,-1.6017,-1.5308,-1.4823,-1.4547,-1.413,-1.401,-1.395,-1.3354,-1.2867,-1.2359,-1.1872,-1.1518,-1.1306,-1.1268,-1.1421,-1.1781,-1.2364,-1.1906,-1.1179,-1.0698,-0.9872,-0.9137,-0.8894,-0.8608,-0.8415,-0.8415,-0.8156,-0.7897,-0.7897,-0.7702,-0.7442,-0.7181,-0.7051,-0.6915,-0.6597,-0.6268,-0.6071,-0.6071,-0.5807,-0.5741,-0.5811,-0.5881,-0.6112,-0.6422,-0.6859,-0.7473,-0.829,-0.8014,-0.7748,-0.7571,-0.6798,-0.5807,-0.4683,-0.342,-0.2688,-0.2353,-0.2084,-0.1951,-0.2018,-0.2154,-0.222,-0.5741,-0.5917,-0.6121,-0.6214,-0.6218,-0.6218,-0.6083,0.0,0.0,0.0,0.0,0.0,0.0,-0.7488,0.0,-0.8846,-0.9685,-1.0738,-1.2452,-1.355,-1.4418,-1.5204,-1.5982,-1.6811,-1.7696,-1.8586,-1.9386,-2.0237,-2.0933,-2.1439,-2.1839,-2.2173,-2.2247,-2.1987,-2.1851,-2.1474,-2.085,-2.0593,-2.0475,-2.041,-2.0216,-2.0151,-2.0085,-1.9944,-1.9736,-1.9407,-1.9208,-1.8741,-1.8104,-1.7662,-1.7054,-1.6303,-1.5832,-1.5294,-1.4749,-1.4279,-1.4063,-1.389,-1.3233,-1.249,-1.174,-1.1373,-1.1006,-1.0644,-1.0448,-1.0225,-1.012,-1.0959,-1.0698,-1.0013,-0.945,-0.8656,-0.7889,-0.7541,-0.7297,-0.7095,-0.7064,-0.6793,-0.6597,-0.6597,-0.6334,-0.6071,-0.5877,-0.5745,-0.5609,-0.5418,-0.5084,-0.4888,-0.4888,-0.4686,-0.455,-0.4616,-0.4818,-0.4999,-0.534,-0.5512,-0.6089,-0.7232,-0.713,-0.6915,-0.6569,-0.5752,-0.4683,-0.3353,-0.2684,-0.215,-0.1817,-0.1614,-0.1547,-0.1547,-0.1748,-0.1817,-0.4874,-0.4781,-0.4874,-0.5394,-0.5561,-0.5561,-0.5557,0.0,0.0,0.0,0.0,0.0,0.0,-0.7257,-0.8084,-0.8846,-1.0351,-1.1855,-1.2973,-1.3768,-1.4625,-1.5621,-1.6585,-1.755,-1.8307,-1.9431,-2.0431,-2.1135,-2.1815,-2.2384,-2.2726,-2.2896,-2.2836,-2.2519,-2.2347,-2.2037,-2.1526,-2.1094,-2.0658,-2.041,-2.0346,-2.0281,-2.0085,-1.9944,-1.9868,-1.9802,-1.9341,-1.9075,-1.89,-1.8112,-1.7556,-1.7197,-1.6777,-1.6038,-1.5237,-1.4878,-1.4425,-1.389,-1.3103,-1.2367,-1.174,-1.131,-1.0813,-1.0378,-1.0179,-0.9586,-0.9092,-0.9165,-0.906,-0.8802,-0.834,-0.7605,-0.6925,-0.6466,-0.6082,-0.5705,-0.5509,-0.5279,-0.5143,-0.5143,-0.508,-0.5014,-0.4821,-0.4686,-0.4486,-0.4292,-0.3956,-0.3754,-0.3754,-0.3556,-0.3558,-0.3889,-0.3956,-0.4254,-0.4776,-0.4867,-0.5038,-0.5422,-0.5802,-0.5614,-0.4754,-0.4172,-0.342,-0.2616,-0.215,-0.1816,-0.1412,-0.1277,-0.121,-0.1344,-0.1345,-0.148,-0.4229,-0.4015,-0.3856,-0.4232,-0.4575,-0.4821,-0.4821,0.0,0.0,0.0,0.0,0.0,0.0,-0.7162,-0.8313,-0.9755,-1.1329,-1.2673,-1.3542,-1.4545,-1.5542,-1.6385,-1.7472,-1.8489,-1.9299,-2.0409,-2.1302,-2.199,-2.2725,-2.3207,-2.3352,-2.3543,-2.3424,-2.3017,-2.2714,-2.2347,-2.1987,-2.1463,-2.1019,-2.0646,-2.0604,-2.054,-2.041,-2.0335,-2.0194,-1.9977,-1.9781,-1.9462,-1.9187,-1.8705,-1.8283,-1.779,-1.7323,-1.666,-1.5927,-1.5296,-1.4672,-1.4136,-1.3436,-1.2794,-1.208,-1.1483,-1.0953,-1.0445,-0.9789,-0.9124,-0.8506,-0.7995,-0.7871,-0.7693,-0.7228,-0.6559,-0.5957,-0.5522,-0.5204,-0.4953,-0.4754,-0.4591,-0.4436,-0.437,-0.4289,-0.4223,-0.4028,-0.3828,-0.3625,-0.3491,-0.3222,-0.3021,-0.2889,-0.2889,-0.2956,-0.3025,-0.3226,-0.3481,-0.3834,-0.3968,-0.4284,-0.4825,-0.4896,-0.4572,-0.3915,-0.3244,-0.2684,-0.215,-0.168,-0.1345,-0.101,-0.0875,-0.0875,-0.101,-0.1144,-0.1277,-0.362,-0.335,-0.3132,-0.3166,0.0,-0.4056,-0.4015,-0.409,0.0,0.0,0.0,0.0,0.0,-0.7599,-0.9064,-1.095,-1.2365,-1.3535,-1.4394,-1.5596,-1.6645,-1.7541,-1.8613,-1.9672,-2.0462,-2.1542,-2.2347,-2.3015,-2.3728,-2.415,-2.4163,-2.4292,-2.4131,-2.3628,-2.3125,-2.2702,-2.2371,-2.1851,-2.14,-2.0967,-2.085,-2.0733,-2.0669,-2.0669,-2.0529,-2.0237,-2.0172,-1.9922,-1.9539,-1.9341,-1.8934,-1.8428,-1.7951,-1.7301,-1.6472,-1.5605,-1.492,-1.4395,-1.3858,-1.3184,-1.2519,-1.1696,-1.1134,-1.0575,-0.955,-0.8832,-0.8169,-0.733,-0.6942,-0.6674,-0.618,-0.5626,-0.5069,-0.4651,-0.4476,-0.4297,-0.4184,-0.4074,-0.3966,-0.3883,-0.3777,-0.3627,-0.3429,-0.3226,-0.3025,-0.2891,-0.2688,-0.2487,-0.2288,-0.2354,-0.242,-0.2288,-0.2622,-0.2856,-0.3004,-0.3245,-0.3626,-0.43,-0.4084,-0.3765,-0.336,-0.2674,-0.2165,-0.1748,-0.1277,-0.1009,-0.0742,-0.0607,-0.0607,-0.0742,-0.0875,-0.1009,-0.2928,-0.2777,-0.2619,-0.2579,-0.2908,0.0,-0.3274,-0.3429,0.0,-0.3825,0.0,0.0,0.0,-0.8758,-1.1007,-1.2271,-1.344,-1.4665,-1.5948,-1.6895,-1.791,-1.8992,-2.0171,-2.1192,-2.188,-2.299,-2.3859,-2.4337,-2.4838,-2.5077,-2.5104,-2.5118,-2.4821,-2.4234,-2.393,-2.3471,-2.2848,-2.2371,-2.18,-2.1169,-2.0967,-2.085,-2.0669,-2.0669,-2.0669,-2.0669,-2.0464,-2.0335,-2.0281,-1.9933,-1.9573,-1.9191,-1.9013,-1.8141,-1.6732,-1.5826,-1.5163,-1.4584,-1.4057,-1.3518,-1.2908,-1.1969,-1.1344,-1.0791,-0.955,-0.8673,-0.7931,-0.7169,-0.617,-0.5395,-0.5386,-0.4919,-0.4346,-0.3789,-0.3691,-0.3593,-0.336,-0.3351,-0.343,-0.3424,-0.3353,-0.3226,-0.3092,-0.2889,-0.2688,-0.249,-0.2153,-0.1951,-0.1951,-0.1817,-0.1748,-0.1951,-0.2154,-0.2381,-0.2793,-0.2935,-0.302,-0.2874,-0.3172,-0.3101,-0.2594,-0.2378,-0.1865,-0.1144,-0.1143,-0.0942,-0.0539,-0.0539,-0.0539,-0.0539,-0.0539,-0.0674,-0.2503,-0.2284,-0.2131,-0.2139,-0.2055,0.0,0.0,-0.2988,-0.3293,-0.3692,-0.4518,0.0,-0.8312,-1.0525,-1.2545,-1.3901,-1.5309,-1.6624,-1.7852,-1.8986,-2.0083,-2.1077,-2.2201,-2.3069,-2.3729,-2.463,-2.5301,-2.5536,-2.5986,-2.6162,-2.6028,-2.592,-2.5632,-2.5007,-2.4509,-2.3989,-2.3471,-2.2896,-2.242,-2.1913,-2.1463,-2.121,-2.1158,-2.1031,-2.1042,-2.0978,-2.0775,-2.0711,-2.0646,-2.0335,-2.0053,-1.977,-1.9131,-1.8372,-1.7466,-1.6833,-1.6161,-1.5626,-1.493,-1.4305,-1.3605,-1.2685,-1.19,-1.1034,-0.9999,-0.8934,-0.7931,-0.6942,-0.5938,-0.5085,-0.4774,-0.4384,-0.391,-0.3411,-0.3403,-0.3455,-0.33,-0.3405,-0.3511,-0.3458,-0.3375,-0.3243,-0.3103,-0.2854,-0.2621,-0.2423,-0.2087,-0.1884,-0.1748,-0.1614,-0.1614,-0.1547,-0.1681,-0.1904,-0.2096,-0.2141,-0.2182,-0.2143,-0.255,-0.2607,-0.2229,-0.1767,-0.1384,-0.1076,-0.0673,-0.0337,-0.0202,0.0,0.0067,0.0,-0.0135,-0.027,-0.2073,-0.1852,-0.1636,-0.1671,0.0,0.0,-0.2237,-0.2647,-0.3055,-0.3749,-0.5248,-0.7344,-1.0289,-1.2374,-1.4246,-1.6008,-1.7504,-1.8947,-2.0217,-2.1419,-2.2526,-2.3444,-2.4386,-2.5149,-2.5734,-2.6376,-2.685,-2.6968,-2.7253,-2.7333,-2.7004,-2.6797,-2.6375,-2.5783,-2.5175,-2.4624,-2.4105,-2.3471,-2.3078,-2.2775,-2.2087,-2.1714,-2.1474,-2.1423,-2.1371,-2.136,-2.1233,-2.1169,-2.1106,-2.0786,-2.0442,-2.0031,-1.9253,-1.8674,-1.8212,-1.7579,-1.7028,-1.6473,-1.5771,-1.5062,-1.4266,-1.3397,-1.2445,-1.1484,-1.0293,-0.9155,-0.8084,-0.6945,-0.586,-0.5004,-0.4462,-0.3919,-0.353,-0.3141,-0.3217,-0.3357,-0.3228,-0.3421,-0.3609,-0.3552,-0.3467,-0.3327,-0.3157,-0.2895,-0.2647,-0.2426,-0.2085,-0.1749,-0.1614,-0.1481,-0.1278,-0.1143,-0.1277,-0.1423,-0.152,-0.1534,-0.1483,-0.1439,-0.1696,-0.1848,-0.1803,-0.1274,-0.0899,-0.074,-0.0202,0.0135,0.0135,0.0472,0.0539,0.0337,0.0269,0.0135,-0.1572,-0.1459,-0.1291,0.0,0.0,0.0,-0.1823,-0.228,-0.2851,-0.386,-0.6701,-0.9722,-1.2002,-1.4197,-1.6363,-1.8461,-2.0045,-2.1594,-2.3018,-2.4153,-2.516,-2.6026,-2.679,-2.7414,-2.788,-2.8294,-2.8576,-2.8623,-2.8607,-2.8481,-2.8112,-2.775,-2.721,-2.6563,-2.596,-2.5356,-2.4835,-2.4163,-2.3767,-2.3628,-2.2944,-2.2297,-2.1698,-2.171,-2.171,-2.1698,-2.171,-2.1698,-2.1698,-2.136,-2.0764,-2.0031,-1.9497,-1.9121,-1.8741,-1.7978,-1.7501,-1.7097,-1.6342,-1.57,-1.4982,-1.3897,-1.2959,-1.2003,-1.0368,-0.9311,-0.8394,-0.7022,-0.5941,-0.5087,-0.4311,-0.361,-0.3141,-0.3062,-0.3141,-0.3141,-0.3141,-0.3386,-0.3628,-0.3628,-0.3558,-0.3399,-0.3166,-0.2942,-0.2705,-0.2433,-0.1951,-0.1614,-0.1614,-0.1145,-0.0808,-0.0807,-0.0806,-0.0874,-0.1076,-0.1172,-0.1051,-0.063,-0.0646,-0.0864,-0.1193,-0.077,-0.0415,0.0,0.0202,0.0404,0.0539,0.074,0.0673,0.0539,0.074,0.0605,-0.1122,-0.101,0.0,-0.0898,0.0,0.0,0.0,-0.2282,0.0,0.0,-0.8837,-1.1374,-1.3936,-1.6514,-1.9004,-2.1102,-2.3102,-2.4868,-2.6235,-2.7218,-2.8074,-2.8881,-2.9375,-2.9749,-3.0054,-3.0194,-3.022,-3.0087,-2.9874,-2.9576,-2.9236,-2.881,-2.8273,-2.7665,-2.7093,-2.652,-2.5865,-2.5231,-2.4667,-2.4234,-2.3826,-2.3173,-2.2347,-2.2123,-2.2123,-2.2173,-2.2061,-2.2073,-2.2011,-2.1423,-2.0967,-2.0635,-2.0096,-1.9649,-1.9274,-1.8664,-1.8192,-1.7628,-1.689,-1.6132,-1.5275,-1.4338,-1.3244,-1.2077,-1.0887,-0.9685,-0.8475,-0.7334,-0.6325,-0.5392,-0.4698,-0.4077,-0.353,-0.3141,-0.3217,-0.3372,-0.3372,-0.3585,-0.3722,-0.3722,-0.365,-0.356,-0.3403,-0.305,-0.2775,-0.2632,-0.2017,-0.1481,-0.1078,-0.0741,-0.0539,-0.0472,-0.0472,-0.0404,-0.0336,-0.0203,-0.0068,0.0,0.0206,0.0138,-0.035,0.0,0.0207,0.0337,0.0807,0.1009,0.1076,0.1278,0.1345,0.1279,0.1211,0.1076,-0.0561,-0.0505,0.0,-0.0505,-0.0617,-0.1073,-0.2439,0.0,0.0,0.0,-1.085,-1.3422,-1.6184,-1.8839,-2.1259,-2.3391,-2.5622,-2.6714,-2.5664,-2.6457,-2.6545,-2.4945,-2.5048,-2.615,-2.8419,-2.87,-2.9528,-3.1411,-3.1253,-3.0864,-3.0492,-2.9923,-2.9297,-2.8686,-2.8064,-2.7434,-2.6797,-2.6162,-2.5618,-2.5119,-2.4694,-2.4131,-2.3471,-2.2909,-2.2665,-2.2641,-2.2323,-2.2104,-2.1922,-2.1195,-2.0923,-2.0797,-2.0269,-2.0018,-1.9813,-1.9198,-1.8654,-1.8104,-1.7373,-1.6482,-1.5568,-1.4697,-1.3535,-1.2298,-1.1186,-0.9906,-0.8699,-0.7561,-0.6483,-0.5547,-0.4854,-0.4311,-0.3843,-0.3374,-0.3372,-0.3526,-0.3526,-0.3684,-0.3763,-0.3763,-0.372,-0.3652,-0.342,-0.3114,-0.2819,-0.2539,-0.1896,-0.1211,-0.0674,-0.0404,-0.0202,0.0,0.0067,0.0202,0.0336,0.0538,0.0739,0.0807,0.1076,0.1151,0.0963,0.0896,0.0889,0.0941,0.1344,0.1547,0.1681,0.1817,0.1884,0.1817,0.1749,0.1614,0.0,0.0056,0.0,-0.0112,-0.0504,0.0,-0.4023,-0.5901,-0.773,-1.0025,-1.2871,-1.5797,-1.8792,-2.1153,-2.3332,-2.5375,-2.7214,-2.688,-2.2594,-2.2805,-2.1659,-1.692,-1.6649,-1.8911,-2.4238,-2.461,-2.6639,-3.1771,-3.1769,-3.1395,-3.1062,-3.0734,-3.0228,-2.9583,-2.8884,-2.8198,-2.747,-2.6777,-2.6352,-2.609,-2.5412,-2.5007,-2.4892,-2.3923,-2.339,-2.3113,-2.2443,-2.1972,-2.164,-2.0861,-2.0653,-2.0778,-2.0339,-2.0284,-2.0399,-1.9649,-1.9044,-1.8509,-1.7716,-1.689,-1.5982,-1.4966,-1.3825,-1.2673,-1.126,-1.0132,-0.8998,-0.7638,-0.6637,-0.5783,-0.4932,-0.4467,-0.3999,-0.3682,-0.3526,-0.3526,-0.3526,-0.3684,-0.3763,-0.3763,-0.3763,-0.3657,-0.3345,-0.3119,-0.2753,-0.2183,-0.151,-0.0877,-0.0337,-0.0067,0.0202,0.0539,0.074,0.0874,0.0874,0.121,0.1479,0.1681,0.1951,0.215,0.2482,0.1814,0.148,0.1681,0.1883,0.2085,0.2288,0.2423,0.2423,0.2288,0.2423,0.2288,0.0505,0.0561,0.0,0.0,-0.1115,-0.2994,-0.5253,-0.8003,-1.0577,-1.2265,-1.5216,-1.8379,-2.1213,-2.3764,-2.5816,-2.7046,-2.5272,-2.3114,-2.133,-1.854,-1.6333,-1.5353,-1.5445,-1.7314,-2.1689,-2.0011,-2.0797,-2.6064,-2.6034,-2.6084,-2.6771,-2.9394,-3.059,-2.99,-2.928,-2.8383,-2.7136,-2.6428,-2.6132,-2.6176,-2.5644,-2.5508,-2.5619,-2.458,-2.3969,-2.3675,-2.2898,-2.2412,-2.2097,-2.1252,-2.1003,-2.1188,-2.0766,-2.0772,-2.0978,-2.0388,-1.9802,-1.9264,-1.8405,-1.7373,-1.6324,-1.5188,-1.397,-1.2673,-1.126,-1.0132,-0.9069,-0.7787,-0.6788,-0.6012,-0.5321,-0.4774,-0.4307,-0.3999,-0.3843,-0.3763,-0.3763,-0.3763,-0.3763,-0.3763,-0.3684,-0.35,-0.3345,-0.2861,-0.229,-0.1481,-0.0976,-0.0552,-0.0135,0.0202,0.0539,0.0942,0.1008,0.121,0.1614,0.1949,0.2216,0.2418,0.2885,0.322,0.3286,0.2554,0.2287,0.2485,0.2688,0.2755,0.2824,0.2958,0.2958,0.2824,0.2891,0.2622,0.0898,0.0,0.0,-0.0112,0.0,-0.4178,-0.6596,-0.9941,-1.3302,-1.6045,-1.8298,-1.995,-2.0483,-2.1954,-2.2488,-2.0664,-1.8936,-1.6565,-1.3079,-1.096,-0.8803,-0.6177,-0.6192,-0.8311,-1.3263,-1.2659,-1.5065,-2.2565,-2.162,-2.1823,-2.4397,-2.6603,-2.764,-2.7284,-2.857,-2.8727,-2.7696,-2.7052,-2.6605,-2.6411,-2.5953,-2.5783,-2.5883,-2.5079,-2.4389,-2.3712,-2.3041,-2.2415,-2.1759,-2.0874,-2.0847,-2.1345,-2.0866,-2.0993,-2.1348,-2.0711,-2.0053,-1.9351,-1.8771,-1.7726,-1.6519,-1.5508,-1.4197,-1.2702,-1.1222,-1.0056,-0.8922,-0.7787,-0.6861,-0.6086,-0.5473,-0.4932,-0.4465,-0.4155,-0.3921,-0.3763,-0.3763,-0.3763,-0.3763,-0.3684,-0.3604,-0.3357,-0.3009,-0.2288,-0.1644,-0.115,-0.0643,-0.0213,0.007,0.0554,0.0892,0.1235,0.1492,0.1748,0.2083,0.2552,0.2887,0.3222,0.3556,0.3823,0.4023,0.3556,0.3291,0.3222,0.3226,0.3293,0.3357,0.3424,0.3426,0.3228,0.3228,0.2958,0.1291,0.0,0.0616,-0.0838,-0.2877,0.0,-0.8082,-1.1777,-1.5489,-1.8654,-1.9999,-2.0205,-1.8888,-1.8407,-1.6626,-1.1841,-1.0899,-0.8521,-0.2036,-0.168,-0.0334,0.4384,0.4488,0.2212,-0.2744,-0.4121,-0.8137,-1.6539,-1.5915,-1.6897,-2.0842,-2.2281,-2.3352,-2.4099,-2.6896,-2.8363,-2.8294,-2.7657,-2.7179,-2.6783,-2.6344,-2.6059,-2.5918,-2.5629,-2.4874,-2.3769,-2.3192,-2.2405,-2.1368,-2.063,-2.083,-2.1493,-2.1015,-2.1236,-2.1726,-2.1019,-2.0172,-1.9372,-1.9022,-1.7967,-1.6683,-1.5716,-1.4343,-1.2755,-1.1163,-0.9862,-0.8775,-0.771,-0.6784,-0.6012,-0.5476,-0.501,-0.4623,-0.4233,-0.3999,-0.3841,-0.3841,-0.3763,-0.3684,-0.3526,-0.337,-0.3136,-0.2433,-0.1699,-0.1134,-0.0958,-0.0367,0.0146,0.0365,0.0858,0.1268,0.1402,0.1923,0.2299,0.2485,0.3023,0.3493,0.3892,0.4095,0.4361,0.4694,0.4622,0.4356,0.4092,0.3828,0.3763,0.3892,0.3892,0.3828,0.3563,0.3563,0.3226,0.0,0.0,0.0112,0.0,-0.3678,-0.6445,0.0,-1.339,-1.6041,-1.5838,-1.6657,-1.7782,-1.8974,-1.5581,-1.1061,-0.6413,-0.3712,0.0374,0.7833,0.8232,0.7974,0.8781,0.8431,0.7555,0.6191,0.4478,0.2432,0.0121,-0.4648,-0.849,-1.1065,-1.5407,-1.9526,-2.331,-2.3937,-2.537,-2.7777,-2.7188,-2.6974,-2.7109,-2.6901,-2.6551,-2.6153,-2.6572,-2.5994,-2.4685,-2.3892,-2.2978,-2.2001,-2.1716,-2.1707,-2.1839,-2.211,-2.2172,-2.2049,-2.1526,-2.0688,-1.9724,-1.9081,-1.7958,-1.6581,-1.5467,-1.4081,-1.2503,-1.0844,-0.9617,-0.8546,-0.7484,-0.6637,-0.586,-0.5634,-0.5168,-0.4621,-0.4384,-0.4233,-0.3999,-0.3841,-0.3684,-0.3526,-0.3526,-0.3057,-0.2433,-0.1807,-0.1489,-0.1008,-0.0227,0.0075,0.0374,0.0804,0.1163,0.151,0.1616,0.1958,0.2417,0.2894,0.3424,0.3894,0.4231,0.4831,0.5226,0.5292,0.5355,0.5352,0.5163,0.4694,0.4361,0.4233,0.4428,0.4225,0.3758,0.3758,0.3355,0.1572,0.0954,-0.0112,0.0,-0.4368,-0.7487,-1.1127,-1.4876,-1.718,-1.578,-1.3864,-1.2026,-1.0735,-0.7778,-0.3629,0.2146,0.4877,0.7678,1.1768,1.2263,1.2269,1.2398,1.1913,1.1171,1.0312,0.8725,0.7136,0.5723,0.2104,-0.0907,-0.2819,-0.8861,-1.316,-1.5114,-1.9857,-2.3091,-2.4542,-2.4348,-2.5235,-2.7231,-2.6859,-2.67,-2.6728,-2.7105,-2.6505,-2.5098,-2.5049,-2.4382,-2.3303,-2.305,-2.2936,-2.2997,-2.2868,-2.2694,-2.2482,-2.1765,-2.0805,-1.9756,-1.9304,-1.8162,-1.6753,-1.5669,-1.4273,-1.2612,-1.0813,-0.9496,-0.8311,-0.7439,-0.656,-0.5864,-0.5637,-0.5249,-0.4779,-0.4462,-0.4307,-0.4153,-0.3841,-0.3604,-0.3448,-0.3137,-0.2589,-0.2043,-0.165,-0.1178,-0.0704,-0.0077,0.0232,0.0539,0.0838,0.1278,0.1558,0.1761,0.1998,0.2442,0.296,0.3522,0.3959,0.4431,0.5027,0.5425,0.5488,0.5686,0.58,0.5827,0.5199,0.4761,0.4564,0.4628,0.4425,0.4097,0.3892,0.3491,0.0,0.0,-0.0224,-0.2001,-0.4977,-0.8517,-1.2584,-1.5418,-1.6537,-1.4426,-1.0015,-0.5169,-0.0725,0.1079,0.3636,0.9101,1.1413,1.2999,1.4169,1.4859,1.5292,1.5426,1.4897,1.4119,1.3092,1.1691,1.0145,0.8568,0.663,0.481,0.3041,-0.2583,-0.6412,-0.79,-1.4411,-1.8577,-2.0031,-2.0348,-2.2337,-2.5953,-2.5547,-2.6156,-2.7605,-2.7906,-2.7469,-2.6441,-2.6354,-2.5717,-2.4624,-2.4368,-2.4243,-2.4191,-2.3721,-2.338,-2.3005,-2.2051,-2.091,-1.9843,-1.9383,-1.8212,-1.6708,-1.5682,-1.4225,-1.2449,-1.0721,-0.9291,-0.8107,-0.7305,-0.6483,-0.5786,-0.5479,-0.5168,-0.4857,-0.4387,-0.4307,-0.4151,-0.3684,-0.3528,-0.3294,-0.2824,-0.2277,-0.1808,-0.1572,-0.1021,-0.0393,0.0079,0.0393,0.0707,0.0943,0.1314,0.1602,0.1744,0.205,0.249,0.2943,0.3502,0.4056,0.4561,0.516,0.5575,0.5744,0.5952,0.6169,0.6344,0.5805,0.5335,0.5067,0.486,0.4657,0.439,0.4044,0.3621,0.0,0.0898,0.0,-0.222,-0.5538,-0.9547,-1.415,-1.4292,-1.2641,-0.9674,-0.4115,0.2238,0.8912,0.9585,0.9827,1.199,1.3965,1.5471,1.6245,1.7198,1.7838,1.7838,1.728,1.6546,1.5608,1.4255,1.2748,1.1145,0.9373,0.7462,0.5404,0.3394,-0.0118,-0.5416,-0.6994,-0.9892,-1.4374,-1.5373,-1.8001,-2.2286,-2.2317,-2.4667,-2.9016,-2.9281,-2.9505,-2.9559,-2.7917,-2.6595,-2.5661,-2.5791,-2.5568,-2.5137,-2.508,-2.4513,-2.3623,-2.247,-2.1227,-1.9965,-1.9088,-1.7757,-1.6215,-1.5131,-1.3649,-1.1987,-1.0355,-0.9011,-0.7874,-0.6917,-0.6177,-0.5559,-0.5162,-0.4851,-0.4623,-0.4235,-0.3999,-0.3684,-0.3219,-0.3141,-0.2982,-0.2589,-0.2199,-0.1807,-0.1415,-0.0943,-0.0314,0.0471,0.055,0.0786,0.1257,0.1492,0.1633,0.1748,0.2189,0.2585,0.2954,0.3494,0.4,0.4567,0.5219,0.5755,0.6123,0.6474,0.6696,0.6659,0.6651,0.6358,0.5779,0.535,0.4991,0.4635,0.4277,0.3866,0.0,0.0,0.0,-0.1712,-0.4591,-0.8117,-1.2657,-1.1776,-0.8974,-0.5393,-0.0089,0.6092,1.332,1.3641,1.3327,1.481,1.6143,1.7175,1.7776,1.8251,1.8497,1.8474,1.8018,1.7393,1.6528,1.534,1.4076,1.2789,1.1432,0.9979,0.8258,0.6935,0.48,0.1688,0.0696,-0.2669,-0.862,-1.2196,-1.4864,-1.6678,-1.712,-2.0091,-2.5206,-2.5821,-2.7868,-3.0911,-3.0472,-2.9469,-2.8028,-2.7796,-2.7308,-2.6754,-2.6179,-2.5343,-2.4239,-2.2882,-2.1467,-1.9965,-1.8814,-1.7394,-1.5798,-1.475,-1.3181,-1.1498,-1.0034,-0.8613,-0.7398,-0.661,-0.5864,-0.5162,-0.5004,-0.4696,-0.4233,-0.3841,-0.3528,-0.3295,-0.2982,-0.2904,-0.2826,-0.2589,-0.2199,-0.1807,-0.1336,-0.0943,-0.0393,0.0314,0.055,0.0707,0.1021,0.1257,0.1488,0.1864,0.1988,0.2255,0.2952,0.3479,0.407,0.4596,0.5434,0.6021,0.6291,0.6718,0.6944,0.7053,0.6907,0.6557,0.6022,0.5731,0.5369,0.5012,0.4651,0.4272,0.1797,0.0,0.0,0.0,-0.3263,-0.6106,-0.9597,-0.7107,-0.3206,-0.0172,0.5501,1.1564,1.7093,1.7284,1.6667,1.6983,1.7791,1.8524,1.898,1.93,1.9479,1.9387,1.9027,1.8452,1.7675,1.661,1.5499,1.431,1.3259,1.2036,1.0646,0.9723,0.8389,0.672,0.5701,0.2917,-0.1898,-0.5618,-0.8518,-1.0576,-1.1432,-1.4788,-2.04,-2.2969,-2.6083,-2.9597,-3.1614,-3.1546,-2.994,-2.9371,-2.8779,-2.8179,-2.7223,-2.6183,-2.4939,-2.3382,-2.1732,-2.0031,-1.8547,-1.6879,-1.5226,-1.4064,-1.2475,-1.0717,-0.9428,-0.8078,-0.6842,-0.6142,-0.5398,-0.4771,-0.4535,-0.4048,-0.3486,-0.3175,-0.2944,-0.2713,-0.2482,-0.2653,-0.2746,-0.2431,-0.212,-0.1729,-0.1257,-0.0864,-0.0393,0.0236,0.0471,0.0707,0.0864,0.11,0.1493,0.1887,0.1936,0.2215,0.303,0.3647,0.4181,0.487,0.5663,0.6262,0.6672,0.6969,0.7273,0.7534,0.7309,0.7025,0.6544,0.6177,0.5808,0.5587,0.5143,0.4678,0.0,0.0,0.0,0.0235,-0.1685,-0.3698,-0.5152,-0.0398,0.4654,0.6022,1.2682,1.886,2.0671,2.0776,2.0048,1.8507,1.8956,1.9623,1.9899,2.0477,2.0857,2.0709,2.0331,1.9759,1.8988,1.8075,1.7002,1.5813,1.479,1.3676,1.2362,1.1808,1.0749,0.908,0.8054,0.6894,0.5675,0.4502,0.1232,-0.4061,-0.5226,-0.8928,-1.4908,-2.088,-2.4287,-2.5787,-3.1205,-3.2637,-3.1151,-3.0533,-2.9907,-2.9249,-2.8244,-2.7107,-2.5793,-2.3903,-2.2042,-2.0182,-1.823,-1.6323,-1.4411,-1.3053,-1.1404,-0.9842,-0.8502,-0.7338,-0.6358,-0.5511,-0.4851,-0.4226,-0.3522,-0.2923,-0.2417,-0.2189,-0.2191,-0.2118,-0.1818,-0.2316,-0.2668,-0.2275,-0.2042,-0.165,-0.1021,-0.0707,-0.0393,0.0236,0.0471,0.0707,0.0864,0.11,0.1493,0.1887,0.2119,0.2486,0.3266,0.3856,0.4559,0.5249,0.582,0.6466,0.7286,0.7446,0.7684,0.8097,0.7876,0.7723,0.7484,0.6721,0.6338,0.6261,0.5631,0.518,0.2462,0.0,0.0,0.0,0.0,0.0,-0.1502,0.3458,0.8813,1.0401,1.6031,2.1327,2.3474,2.3048,2.2223,2.173,2.0969,2.0466,2.055,2.0632,2.061,2.043,2.008,1.9628,1.8965,1.8166,1.7351,1.643,1.581,1.5132,1.4295,1.3812,1.3314,1.2728,1.1873,1.0955,1.0082,0.8629,0.6634,0.4188,0.2491,-0.1738,-0.8198,-1.2136,-1.8076,-2.5568,-3.1864,-3.4101,-3.3232,-3.1969,-3.0987,-3.0194,-2.9159,-2.7746,-2.6112,-2.4195,-2.2055,-1.9868,-1.7745,-1.5588,-1.3547,-1.2023,-1.0336,-0.8759,-0.7593,-0.639,-0.528,-0.4623,-0.3839,-0.3046,-0.2304,-0.1952,-0.1767,-0.162,-0.1568,-0.1514,-0.1439,-0.1699,-0.1963,-0.1963,-0.1807,-0.1493,-0.1021,-0.0707,-0.0471,0.0,0.0393,0.0628,0.0707,0.1178,0.165,0.1887,0.2199,0.2659,0.3416,0.4031,0.4711,0.5439,0.6273,0.6904,0.7403,0.7791,0.7973,0.8102,0.803,0.803,0.7949,0.7257,0.6799,0.6486,0.6093,0.5915,0.0,0.0,0.0,0.3128,0.0,0.0,0.3166,0.7735,1.2624,1.4918,1.9243,2.3202,2.5031,2.4389,2.3555,2.354,2.2761,2.2039,2.1591,2.1376,2.1163,2.0879,2.0534,2.0093,1.9405,1.8736,1.7959,1.7203,1.6722,1.6365,1.6111,1.6016,1.5944,1.5889,1.5278,1.4581,1.3848,1.2525,1.1177,0.9767,0.7891,0.4508,-0.0379,-0.5227,-1.1048,-1.7873,-2.6888,-3.0719,-3.0721,-3.2213,-3.2206,-3.1142,-2.9959,-2.842,-2.6578,-2.4482,-2.208,-1.963,-1.7173,-1.4808,-1.2573,-1.076,-0.8923,-0.7223,-0.6205,-0.5053,-0.3988,-0.3365,-0.2488,-0.169,-0.105,-0.0804,-0.0717,-0.0717,-0.0658,-0.0671,-0.082,-0.0996,-0.1178,-0.1572,-0.1572,-0.1335,-0.0864,-0.0628,-0.0314,0.0079,0.0393,0.0707,0.0864,0.1335,0.1729,0.212,0.2511,0.3056,0.3837,0.4538,0.5234,0.6089,0.6861,0.7476,0.8016,0.8322,0.8479,0.8637,0.8556,0.8403,0.8327,0.7714,0.7253,0.6945,0.6788,0.678,0.0,0.0,0.0,0.4516,0.4984,0.0,0.7986,1.1665,1.5598,1.8673,2.1705,2.4192,2.5437,2.4822,2.419,2.4307,2.4241,2.3827,2.2805,2.247,2.2184,2.1811,2.1442,2.0943,2.0234,1.9534,1.8849,1.8131,1.7625,1.754,1.7947,1.8264,1.8483,1.871,1.8313,1.7809,1.7169,1.6175,1.4907,1.3482,1.1662,0.9686,0.7325,0.078,-0.3688,-0.6771,-1.8063,-2.3926,-2.5902,-3.104,-3.272,-3.1952,-3.065,-2.8971,-2.7009,-2.4652,-2.2092,-1.9337,-1.6519,-1.3863,-1.1335,-0.9336,-0.7294,-0.5455,-0.4448,-0.3431,-0.2415,-0.1789,-0.0916,-0.0149,0.0219,0.0427,0.0558,0.0349,0.0357,0.0291,-0.0073,-0.0152,-0.0393,-0.1021,-0.1178,-0.11,-0.0628,-0.0393,-0.0157,0.0236,0.0471,0.0786,0.1257,0.1492,0.1885,0.2433,0.2978,0.3522,0.4384,0.5237,0.6009,0.6942,0.7553,0.8089,0.8699,0.8927,0.916,0.9322,0.916,0.9003,0.8856,0.8241,0.7787,0.7638,0.7633,0.7787,0.3699,0.4243,0.4857,0.5446,0.6375,0.0,0.94,1.2365,1.5496,1.8083,2.0407,2.2437,2.387,2.3986,2.4017,2.4464,2.4617,2.4424,2.3713,2.3428,2.311,2.2768,2.2319,2.1807,2.1101,2.0436,1.9763,1.9074,1.8922,1.932,2.0343,2.037,2.0603,2.1185,2.0855,2.0437,1.9926,1.9034,1.7882,1.6488,1.4821,1.2965,1.1008,0.8159,0.3078,-0.3664,-0.8572,-1.6116,-2.4993,-2.6541,-2.9265,-3.2373,-3.0951,-2.9086,-2.6929,-2.4458,-2.1606,-1.8609,-1.5566,-1.2594,-0.983,-0.7499,-0.5591,-0.3898,-0.2733,-0.1851,-0.0984,0.0148,0.0725,0.0994,0.1273,0.1315,0.1355,0.1152,0.1127,0.1093,0.0729,0.0531,0.0314,0.0079,-0.0393,-0.0629,-0.0393,-0.0157,0.0,0.0236,0.0628,0.0943,0.1257,0.1727,0.2275,0.2668,0.345,0.4153,0.4849,0.5622,0.6472,0.7326,0.794,0.8475,0.8927,0.9311,0.9468,0.9549,0.9695,0.969,0.969,0.8932,0.8475,0.8475,0.8623,0.8694,0.3959,0.4625,0.5292,0.6083,0.7064,0.0,0.0,1.2195,1.4601,1.6768,1.8738,2.0519,2.1978,2.2607,2.3147,2.3919,2.4365,2.4559,2.4412,2.4201,2.3929,2.3591,2.3164,2.2673,2.2067,2.136,2.0761,2.0334,2.0828,2.1413,2.2056,2.2336,2.2615,2.3025,2.2819,2.2521,2.2218,2.1342,2.0371,1.9294,1.7676,1.6059,1.446,1.2572,0.8954,0.3762,-0.1964,-1.0224,-1.9853,-2.3505,-2.8122,-3.2766,-3.1192,-2.9166,-2.6739,-2.3997,-2.0869,-1.7561,-1.4253,-1.1095,-0.8076,-0.5573,-0.3546,-0.1914,-0.069,0.0377,0.1251,0.1937,0.2188,0.2371,0.2476,0.2444,0.2353,0.2083,0.2012,0.1936,0.1381,0.1202,0.1006,0.0705,0.0393,0.0079,0.0,0.0157,0.0393,0.055,0.0864,0.1257,0.1727,0.2118,0.2588,0.3215,0.3841,0.4543,0.5234,0.6086,0.6938,0.7714,0.8399,0.8927,0.9463,0.9765,0.9916,1.0067,1.0218,1.0368,1.0368,1.0062,0.9755,0.9458,0.9533,0.9679,0.4223,0.4891,0.5624,0.6539,0.7391,0.8431,0.0,0.0,0.0,1.5219,1.694,1.8572,1.9937,2.0933,2.1915,2.2966,2.368,2.4263,2.4678,2.4651,2.4505,2.4285,2.3929,2.3495,2.2953,2.2317,2.1964,2.2004,2.2823,2.3389,2.3561,2.4073,2.4409,2.4505,2.4409,2.4287,2.4081,2.3314,2.2509,2.1685,2.0224,1.8915,1.7663,1.5837,1.386,1.1414,0.4142,-0.4657,-1.4308,-2.0107,-2.6704,-3.3011,-3.1289,-2.9021,-2.6345,-2.3289,-1.9871,-1.6305,-1.272,-0.9373,-0.6166,-0.3563,-0.1301,0.0601,0.1709,0.2633,0.3369,0.3559,0.3533,0.3586,0.3708,0.3558,0.3293,0.2954,0.2881,0.268,0.2029,0.186,0.1678,0.1251,0.11,0.0864,0.0471,0.055,0.0707,0.0943,0.1178,0.1571,0.2196,0.2431,0.2979,0.3841,0.4307,0.4927,0.5777,0.663,0.748,0.825,0.8856,0.9382,0.9922,1.0218,1.0443,1.0663,1.0887,1.1013,1.0959,1.1107,1.0885,1.037,1.037,1.0593,0.4361,0.496,0.5624,0.6601,0.7517,0.8554,0.9958,0.0,1.2829,1.3787,0.0,1.6868,1.7854,0.0,0.0,2.1617,2.2523,2.3307,2.4005,2.4399,2.4648,2.4791,2.4568,2.4193,2.3731,2.3372,2.3566,2.443,2.4452,2.4697,2.5271,2.5447,2.557,2.5697,2.5697,2.5587,2.5384,2.4815,2.4168,2.3486,2.2314,2.1277,2.0338,1.892,1.7194,1.5204,1.1744,0.1761,-1.2091,-1.4345,-2.2286,-3.2839,-3.1046,-2.8598,-2.5702,-2.2219,-1.8555,-1.4837,-1.0803,-0.7342,-0.4099,-0.1087,0.1684,0.395,0.4341,0.4555,0.4735,0.4812,0.4643,0.4442,0.4495,0.4225,0.3894,0.3692,0.343,0.3176,0.2825,0.2527,0.2285,0.2108,0.1727,0.1335,0.0707,0.0707,0.0943,0.1178,0.1415,0.1806,0.2354,0.2821,0.3368,0.4229,0.5004,0.5777,0.6707,0.7484,0.825,0.8851,0.9463,0.9916,1.0143,1.0663,1.1111,1.126,1.1706,1.1726,1.1403,1.1618,1.1403,1.0827,1.0972,1.1188,0.4561,0.5226,0.5888,0.6868,0.7652,0.849,0.9703,1.0829,1.1822,1.2636,0.0,0.0,0.0,0.0,0.0,0.0,2.1222,2.2176,2.307,2.3672,2.4247,2.4883,2.486,2.4783,2.4801,2.5312,2.576,2.5991,2.6182,2.6409,2.6702,2.6686,2.6753,2.6884,2.6852,2.6737,2.6572,2.6148,2.5671,2.5121,2.4141,2.3541,2.3231,2.1693,2.025,1.8839,1.5648,0.4907,-1.0459,-1.2136,-2.0585,-3.2219,-2.9731,-2.7133,-2.4395,-2.0588,-1.6691,-1.2684,-0.8733,-0.5143,-0.1697,0.1877,0.4365,0.5892,0.5935,0.5978,0.59,0.5903,0.562,0.5292,0.5093,0.4761,0.4428,0.4164,0.3862,0.3528,0.3249,0.2938,0.2621,0.2413,0.2118,0.1805,0.1414,0.1335,0.1335,0.1493,0.1806,0.2276,0.2821,0.3212,0.3837,0.4693,0.5234,0.5931,0.6861,0.7638,0.8327,0.8998,0.976,1.0368,1.0738,1.1111,1.1409,1.1706,1.2003,1.2158,1.2006,1.2219,1.2103,1.1614,1.1585,1.1907,0.4761,0.5359,0.6086,0.6942,0.7657,0.8431,0.9454,1.0307,1.1019,1.1865,1.2874,0.0,0.0,0.0,1.7451,1.8722,0.0,2.0936,2.1973,2.2729,2.36,2.4701,2.5143,2.5621,2.6316,2.7145,2.7585,2.7482,2.7752,2.7906,2.787,2.7824,2.7822,2.7931,2.7875,2.7802,2.767,2.7347,2.696,2.6538,2.5966,2.5727,2.5771,2.4481,2.3366,2.2206,1.886,0.7478,-0.8766,-1.0389,-1.9187,-3.129,-2.8083,-2.4876,-2.166,-1.8348,-1.4474,-1.0358,-0.6493,-0.2461,0.1461,0.4692,0.6497,0.743,0.718,0.7068,0.6942,0.6741,0.635,0.5954,0.569,0.5292,0.4897,0.45,0.4164,0.3878,0.3568,0.3262,0.2952,0.2697,0.2421,0.2198,0.2042,0.1807,0.1729,0.1728,0.2198,0.2666,0.3134,0.368,0.4307,0.5082,0.5625,0.6244,0.7092,0.7863,0.8627,0.9382,1.0137,1.0738,1.1186,1.1409,1.1706,1.2077,1.2378,1.2521,1.2572,1.2791,1.2853,1.2561,1.2335,1.2575,0.4957,0.5488,0.609,0.6749,0.7466,0.8242,0.9262,0.9936,1.0611,1.1591,1.2378,1.3109,1.3999,1.5038,1.6157,1.7356,1.8508,0.0,0.0,2.1587,2.2712,2.4238,2.5506,2.6874,2.8455,2.8512,2.8675,2.9185,2.9045,2.8901,2.8769,2.8758,2.8764,2.875,2.875,2.874,2.8658,2.833,2.7987,2.7646,2.7823,2.7788,2.7588,2.7288,2.6552,2.5306,2.1965,1.0182,-0.6811,-0.8346,-1.7435,-2.9981,-2.6295,-2.1686,-1.6917,-1.524,-1.2087,-0.8067,-0.4222,0.0847,0.5857,0.6965,0.8,0.8772,0.8306,0.7917,0.7666,0.7526,0.6937,0.635,0.6214,0.5752,0.5296,0.4897,0.4498,0.4198,0.3968,0.3648,0.3306,0.3016,0.2703,0.2431,0.2196,0.2042,0.1964,0.2118,0.2353,0.2744,0.337,0.3992,0.4693,0.5467,0.617,0.6868,0.7706,0.8318,0.9155,1.0363,1.0513,1.0738,1.1335,1.1558,1.1855,1.2305,1.29,1.3114,1.3009,1.3367,1.3599,1.3568,1.3199,1.3132,0.516,0.5756,0.635,0.6942,0.7591,0.8301,0.9011,0.9432,0.9897,1.0758,1.128,1.1944,1.2909,1.395,1.5027,1.6255,1.741,1.8498,0.0,2.1375,2.3199,2.4753,2.6473,2.7868,2.8634,2.9218,2.9643,2.9881,2.9789,2.9677,2.9593,2.9558,2.9517,2.9525,2.9436,2.9382,2.9364,2.9132,2.8904,2.8705,2.8522,2.8806,2.9385,2.8815,2.8497,2.8234,2.5625,1.3257,-0.4902,-0.4362,-1.357,-2.754,-2.2374,-1.7451,-1.3162,-1.2033,-0.9038,-0.482,0.0384,0.433,0.7335,0.8144,0.8908,0.9436,0.8969,0.8493,0.7982,0.7727,0.7204,0.6679,0.628,0.5885,0.5422,0.4894,0.4564,0.4198,0.3963,0.3648,0.3306,0.3088,0.2855,0.2668,0.2431,0.2433,0.2512,0.2431,0.2668,0.3139,0.3843,0.4309,0.4929,0.5702,0.6251,0.6945,0.7706,0.8627,0.9463,1.0443,1.0588,1.0962,1.1558,1.1929,1.2298,1.2673,1.3193,1.3403,1.3359,1.3708,1.3873,1.38,1.4169,1.4283,0.5296,0.5822,0.6482,0.6942,0.7591,0.8177,0.8689,0.9001,0.94,1.0224,1.0705,1.127,1.235,1.3214,1.4206,1.5417,1.6448,1.7626,0.0,2.1468,2.3448,2.4918,2.6721,2.8115,2.8775,2.9513,3.0026,3.0195,3.018,3.0158,3.0129,3.0104,3.0085,3.0078,2.9994,2.9953,2.9914,2.977,2.9652,2.9523,2.9514,2.9993,3.087,3.0523,3.0556,3.0749,2.8619,1.7619,0.1214,0.0943,-0.7805,-2.0647,-1.6889,-1.2885,-0.9155,-0.8655,-0.5466,-0.0693,0.3868,0.6674,0.8344,0.9117,0.9746,1.0002,0.9542,0.9074,0.8548,0.8158,0.7636,0.7114,0.6643,0.6129,0.5683,0.516,0.4764,0.4397,0.4171,0.3859,0.3524,0.3236,0.3086,0.2981,0.2746,0.2826,0.2826,0.2668,0.3061,0.353,0.4001,0.4545,0.5165,0.5938,0.6402,0.7096,0.8012,0.8861,0.962,1.0443,1.0663,1.1037,1.1706,1.2077,1.2526,1.29,1.3346,1.3606,1.3744,1.4167,1.4396,1.4375,1.5034,1.5221]}]]